GFSNGP_sfc_temp_000.txt.gz
Temp
68 63 64 65 64 60 59 58 58 63 59 67 68 67 67 70 68 68 67 68 70 72 72 71 71 72 75 77 76 75 72 71 71 70 70 68 66 67 67 67 68 67 67 67
63 66 65 65 66 64 63 61 61 61 60 68 68 67 67 68 68 68 68 71 71 71 71 70 71 71 74 74 75 74 72 71 72 69 67 66 66 66 66 67 66 67 66 67
55 58 58 52 66 64 64 63 65 59 67 67 65 68 69 67 69 71 71 70 68 69 70 71 70 71 71 73 73 71 71 71 70 67 66 66 66 66 66 65 66 66 66 67
57 50 44 63 65 72 68 65 65 64 67 67 68 68 67 68 70 70 69 68 68 69 70 70 71 72 71 71 71 70 70 70 68 67 66 65 65 64 65 65 65 66 66 66
46 46 53 59 62 65 66 61 64 63 65 67 68 68 66 66 70 69 70 70 70 71 70 68 69 70 70 68 69 69 69 68 67 68 67 67 66 65 67 66 65 65 66 66
44 46 47 55 61 65 63 57 63 63 63 64 65 61 60 64 69 69 69 70 70 71 70 70 68 69 68 67 68 68 68 68 68 68 66 66 67 67 66 65 65 65 65 64
46 45 51 58 61 64 58 54 60 61 64 66 61 63 67 68 68 69 69 70 71 70 69 68 67 67 66 66 67 68 68 69 69 68 67 67 65 64 63 64 64 64 63 62
47 46 45 60 61 59 60 60 61 63 61 62 62 65 66 68 68 69 69 70 71 69 69 67 67 68 65 65 66 67 67 67 66 66 67 64 63 62 63 62 62 62 63 61
48 49 55 57 55 59 62 66 64 62 63 65 65 65 67 66 67 66 66 67 68 69 67 66 66 67 64 63 66 66 65 64 65 65 65 64 63 62 62 62 62 62 62 62
52 56 55 56 59 61 62 61 63 63 63 65 63 65 65 67 67 65 65 65 66 66 63 62 63 64 64 65 65 64 63 63 64 64 63 63 62 63 62 61 60 61 62 61
52 54 58 60 59 59 61 63 64 64 64 63 63 63 64 62 63 63 63 63 64 63 62 62 63 63 64 65 65 63 63 62 62 62 63 63 62 60 61 59 57 61 61 61
49 56 57 55 60 62 62 62 63 63 63 63 63 61 63 61 61 62 63 63 62 61 62 62 62 63 63 65 66 64 63 61 61 61 62 61 54 52 46 45 45 44 46 53
52 55 57 59 62 65 62 61 63 63 61 60 61 61 63 61 60 60 62 63 62 61 62 62 62 63 64 63 63 62 62 60 61 61 61 58 56 54 53 49 43 42 43 44
56 57 56 57 56 61 62 63 63 63 63 62 62 62 61 61 60 60 61 63 63 62 61 61 62 62 62 62 62 62 62 56 61 59 59 57 56 55 54 53 52 52 45 47
56 60 57 58 59 59 60 61 59 58 59 60 60 59 59 59 59 59 60 62 63 62 62 62 61 62 63 63 63 63 61 60 61 60 57 56 56 55 54 53 53 53 51 46
56 56 57 56 56 57 57 56 55 56 57 57 57 58 58 58 58 59 60 61 60 61 62 61 61 63 63 63 63 62 61 58 58 59 56 55 55 54 53 53 52 53 54 54
52 50 51 51 52 53 54 56 57 56 57 57 57 57 58 58 58 58 58 59 60 60 61 61 62 63 62 61 60 59 61 60 58 59 57 56 56 56 55 54 54 54 55 53
53 52 51 51 52 52 54 55 55 56 55 57 57 57 57 56 55 56 58 58 59 60 61 59 59 59 60 60 60 59 60 59 59 59 58 57 57 57 56 56 53 55 55 52
55 54 54 55 54 54 54 54 54 54 55 55 56 55 55 56 56 57 56 56 57 58 56 58 60 59 59 60 58 57 58 58 57 56 56 54 57 57 57 57 56 56 56 54
54 55 55 55 56 54 53 54 54 54 55 54 54 53 53 54 55 56 56 55 56 57 58 58 57 57 57 59 59 58 58 58 57 56 56 56 56 57 58 52 57 55 52 51
53 54 54 54 53 54 54 53 52 52 53 53 52 52 52 54 56 57 55 55 58 57 58 57 57 55 56 58 58 57 57 56 56 55 55 56 56 58 58 58 57 54 54 55
52 52 53 53 52 51 53 52 53 52 52 53 54 54 54 54 55 56 56 56 56 53 56 57 56 57 59 58 58 57 57 57 56 55 55 55 55 55 55 55 55 55 54 54
50 51 52 51 51 50 51 52 53 53 53 53 53 53 53 53 53 54 55 57 57 54 57 57 55 56 56 56 56 57 57 57 56 55 54 54 54 55 55 55 55 55 54 53
50 50 51 51 51 50 51 52 54 54 54 54 54 55 54 54 56 56 56 54 52 54 58 58 57 54 54 57 56 56 57 56 56 55 54 47 54 54 54 54 54 54 54 50
50 50 51 51 50 49 49 50 51 54 54 54 54 55 56 54 55 57 56 58 52 55 58 54 53 53 57 56 56 55 56 56 55 54 54 54 54 53 54 53 54 54 54 54
50 50 50 50 51 50 50 50 50 51 52 52 54 56 56 56 56 56 56 54 57 54 58 58 58 57 57 56 56 55 55 56 54 53 53 54 54 54 54 54 54 54 53 54
50 48 50 52 52 51 52 51 51 53 52 53 52 54 55 56 56 55 53 57 57 56 56 56 56 55 56 56 55 55 55 55 51 55 54 54 54 54 55 54 54 54 54 53

GFSNGP_sfc_temp_003.txt.gz
Temp
74 77 76 75 75 75 71 76 71 76 74 82 84 84 85 87 84 80 80 80 82 82 82 82 83 82 84 86 87 88 85 84 81 80 79 74 68 67 67 67 67 70 71 73
67 75 76 72 76 77 76 78 76 78 75 87 88 86 83 83 81 79 80 80 82 83 82 81 82 81 82 83 85 85 82 82 81 78 74 72 71 68 67 67 67 70 71 71
62 72 71 66 74 76 76 78 79 73 81 86 82 80 83 85 82 81 82 82 82 82 82 82 83 83 82 82 84 82 80 80 78 75 72 72 72 71 68 65 66 69 71 71
62 64 54 73 83 83 80 80 82 81 81 81 84 82 80 81 83 83 84 83 82 84 82 81 85 85 84 83 80 79 78 78 76 74 73 72 72 71 69 67 69 71 72 73
57 60 68 71 75 75 75 75 74 76 78 79 80 80 76 77 82 84 82 83 83 84 84 81 82 82 81 80 80 78 77 76 74 74 73 72 72 71 71 70 71 70 72 72
59 53 54 65 69 72 72 69 70 71 74 76 77 78 78 76 82 83 84 83 81 82 82 82 80 82 80 79 78 77 77 76 75 74 73 72 73 72 72 72 69 72 71 72
55 55 65 64 67 71 65 70 69 73 74 75 75 76 74 78 79 81 81 80 82 83 81 80 80 81 79 78 77 78 77 75 74 74 74 75 74 73 72 71 71 70 69 71
55 54 55 66 68 67 69 70 72 73 73 72 73 75 77 79 79 80 81 81 84 81 80 79 80 81 77 75 75 74 75 71 71 73 75 74 72 71 71 71 70 69 70 72
57 55 63 66 64 71 75 72 74 73 75 74 74 75 77 76 76 77 78 78 82 82 78 77 77 78 73 71 70 71 70 69 70 71 70 71 71 70 71 71 70 70 73 71
53 57 61 64 69 71 72 71 73 76 76 75 75 77 76 77 77 76 77 77 79 79 77 73 73 72 72 72 73 71 69 69 71 71 71 71 74 73 73 73 65 63 65 71
61 63 63 66 66 67 69 71 71 73 74 74 73 73 75 75 74 75 75 75 77 77 76 74 73 73 73 73 73 72 71 72 71 73 71 72 69 69 72 69 62 69 72 76
59 59 60 63 66 66 64 65 69 69 69 70 72 71 73 71 72 73 72 74 74 74 71 70 72 72 72 73 74 73 72 72 72 72 71 72 67 62 46 46 45 45 45 62
57 60 59 65 66 70 67 68 70 70 69 68 69 72 72 71 69 67 75 75 74 73 72 71 72 72 73 73 73 72 71 71 72 68 72 71 68 68 68 55 44 42 43 46
61 62 59 62 62 67 65 68 67 69 69 70 71 72 73 72 72 72 71 73 74 73 73 72 72 73 73 73 72 71 71 59 72 74 73 68 65 69 70 69 68 65 47 51
58 61 60 63 60 61 64 66 65 66 68 69 71 71 69 68 70 70 71 73 73 73 73 73 72 72 73 74 73 73 73 73 74 74 73 69 68 67 68 68 69 67 62 53
55 55 55 55 59 59 63 66 64 63 66 68 69 68 68 69 70 71 71 72 71 73 73 71 71 72 72 72 72 73 71 61 66 70 62 63 64 66 67 66 66 67 67 68
54 54 56 57 58 60 61 64 65 65 67 66 66 67 68 69 70 69 68 69 69 69 70 71 70 71 71 71 71 72 72 71 64 71 71 69 69 69 69 69 69 69 70 66
59 60 61 62 62 62 62 64 65 66 64 66 67 68 66 66 65 66 66 67 68 67 68 69 70 69 69 69 68 69 73 71 73 73 71 69 69 68 68 69 70 69 69 58
62 62 62 62 63 62 62 62 63 64 65 65 65 64 65 66 65 65 66 67 66 66 63 66 61 65 65 67 68 70 73 73 71 70 70 62 67 70 69 68 69 67 68 67
62 63 64 64 64 63 62 62 64 64 64 64 64 64 64 64 64 62 66 64 64 66 67 66 68 68 68 65 65 74 72 72 71 70 70 70 70 68 67 59 69 69 68 67
61 63 63 62 63 64 64 63 63 62 63 64 63 62 62 64 65 65 66 67 64 64 66 62 68 69 70 68 71 73 72 70 70 69 69 70 69 70 70 70 69 69 69 66
60 61 62 62 62 63 63 64 63 63 63 63 64 64 64 64 64 65 65 66 69 54 67 70 70 64 68 64 72 71 71 70 69 69 69 69 68 68 68 69 69 69 69 68
61 61 61 62 61 60 62 63 63 63 63 63 63 63 63 66 66 66 66 66 70 60 71 71 59 57 57 71 71 71 70 69 69 70 69 68 68 68 68 68 69 68 68 68
60 60 60 61 61 62 62 61 59 58 59 62 64 65 65 67 69 70 70 60 53 58 69 68 61 54 54 71 70 70 70 69 69 71 70 50 69 68 68 68 68 68 68 63
60 60 62 63 64 64 61 61 62 63 63 63 65 66 66 69 67 69 69 71 54 60 64 55 54 53 65 71 70 70 69 69 70 70 69 68 68 68 68 68 68 68 68 68
60 63 63 61 62 64 66 66 66 67 66 66 68 70 71 71 70 68 70 62 70 62 70 72 70 68 70 71 70 69 69 70 68 68 67 69 68 67 68 68 68 68 68 68
61 54 63 64 64 64 64 64 65 66 64 66 66 69 68 69 69 65 61 70 71 71 71 72 72 66 71 71 70 69 69 69 62 69 69 69 68 68 68 69 68 68 68 67

GFSNGP_sfc_temp_006.txt.gz
Temp
79 81 82 81 80 80 79 80 76 81 81 87 91 93 96 100 100 98 93 92 92 93 93 92 92 93 93 96 96 98 95 95 92 90 89 85 82 79 77 77 77 72 73 74
74 80 81 77 81 82 82 82 82 83 82 95 96 96 96 98 99 97 93 92 92 92 92 91 91 91 92 92 94 94 92 92 92 88 86 83 79 77 78 76 75 73 73 75
67 78 77 71 79 81 82 85 84 78 85 92 92 94 95 97 98 96 95 93 92 92 93 92 92 91 91 90 92 91 89 89 88 86 83 80 79 78 76 75 74 77 77 76
68 71 59 78 88 87 83 85 88 87 89 92 92 96 97 100 99 98 96 95 93 96 94 92 95 95 93 91 88 88 86 86 86 84 81 80 78 76 76 77 76 76 77 76
64 67 72 77 82 82 80 80 89 87 90 93 95 92 89 92 93 96 97 97 94 96 92 90 93 92 90 89 87 86 85 84 84 83 80 78 76 76 78 77 77 78 79 78
68 62 58 71 75 79 78 71 90 91 90 91 92 82 92 89 92 95 95 95 93 93 91 91 91 92 89 88 86 85 85 84 83 82 81 78 77 77 76 77 78 80 78 78
66 63 70 72 74 79 64 73 91 92 90 90 87 88 85 88 90 93 92 91 91 90 89 88 90 91 88 88 87 88 87 85 82 81 80 79 77 75 76 76 75 76 76 78
67 62 60 72 75 69 73 79 82 84 87 86 84 84 85 86 86 88 88 90 92 89 87 89 90 89 86 85 87 86 85 82 78 78 78 80 75 73 71 72 73 74 73 74
69 70 68 71 69 73 81 78 82 83 85 85 84 83 86 86 87 89 90 91 92 89 85 86 87 87 85 82 82 82 78 75 75 77 76 75 72 70 72 74 77 73 70 76
67 67 68 69 73 77 80 82 84 85 86 86 83 85 84 85 86 86 87 87 89 87 85 82 82 83 82 80 80 80 76 76 74 73 74 74 74 74 75 76 75 73 74 69
65 65 70 71 71 73 74 79 81 83 83 82 83 83 80 78 82 83 83 85 87 85 84 80 80 80 81 80 79 77 74 75 74 75 73 74 71 68 78 70 70 79 76 70
66 65 60 57 66 71 71 74 76 78 77 78 80 78 76 75 80 79 81 82 82 82 81 80 80 79 80 78 78 77 76 77 79 80 79 77 75 73 46 48 46 46 46 60
67 68 60 58 63 71 70 72 75 76 77 75 78 80 79 76 75 70 78 78 81 80 80 79 79 79 80 80 79 78 79 79 82 78 82 80 79 78 75 58 44 43 43 45
67 61 56 57 54 64 72 75 71 76 77 77 78 78 77 76 78 77 74 79 82 82 81 81 81 79 80 80 79 79 80 64 82 82 82 81 80 79 80 78 75 71 49 53
55 61 63 63 57 60 70 74 71 67 71 71 75 74 73 73 74 76 78 80 80 82 81 81 80 78 80 81 79 78 80 81 82 82 82 78 80 80 80 79 78 76 65 55
55 55 56 57 60 62 63 69 72 71 73 71 73 71 71 73 75 76 78 78 78 79 80 79 79 78 80 80 80 81 80 65 72 82 80 80 79 79 79 78 78 76 75 75
51 50 53 54 56 60 62 65 68 70 72 69 70 71 73 74 75 74 75 78 77 77 78 78 75 77 78 79 80 83 83 78 70 80 80 80 80 80 80 80 78 78 79 75
59 57 58 61 65 65 64 69 70 71 71 72 73 72 70 71 70 72 74 76 75 74 75 75 76 77 78 79 80 83 82 80 80 79 81 79 80 81 80 79 79 78 77 65
63 64 65 66 66 65 65 65 68 70 71 71 71 70 72 72 71 73 75 74 74 70 70 74 64 72 76 73 77 82 80 78 80 82 82 68 77 79 79 79 79 77 77 74
65 67 69 69 69 67 65 67 68 67 70 71 71 70 70 71 72 72 73 70 71 73 74 73 75 73 74 71 65 77 81 82 82 82 80 79 79 78 78 65 74 74 71 72
66 67 67 70 70 70 70 69 70 69 70 71 70 69 70 71 72 73 73 73 69 70 73 65 76 77 79 75 77 82 81 81 80 80 78 77 78 77 76 75 73 75 75 72
67 68 68 69 70 69 70 71 70 70 69 69 70 70 71 70 72 72 72 73 74 55 72 76 78 67 74 65 82 81 80 79 80 79 78 77 76 76 76 76 76 76 76 76
68 69 70 69 68 68 71 71 71 70 69 69 69 70 71 74 74 73 68 72 74 65 78 79 60 58 59 77 80 80 78 77 78 79 77 76 75 75 75 75 75 75 75 74
69 69 68 70 71 70 68 69 70 71 70 71 71 72 73 74 76 78 77 62 55 62 74 71 65 56 52 80 79 79 79 78 77 77 78 53 75 75 75 74 74 74 75 70
68 70 70 70 70 71 70 71 73 73 72 72 73 75 75 76 74 76 77 76 55 64 75 55 55 55 72 77 78 76 77 77 77 76 76 75 74 74 74 74 74 75 74 74
65 69 70 68 69 71 73 74 73 74 74 73 75 77 78 78 79 77 79 68 77 68 77 78 75 71 75 77 78 78 77 78 75 75 72 75 75 74 74 74 74 74 74 74
68 59 70 70 71 72 72 71 71 71 71 71 71 75 75 76 75 72 66 77 78 78 78 79 79 72 78 78 78 78 78 77 68 77 77 76 75 75 75 74 74 74 74 74

GFSNGP_sfc_temp_009.txt.gz
Temp
82 84 85 84 83 84 81 83 78 83 83 89 94 96 98 101 101 101 102 101 100 101 101 99 99 97 98 101 101 102 98 97 94 92 92 91 89 88 87 86 85 83 83 80
76 83 83 80 84 85 84 84 84 85 84 97 99 100 99 99 99 99 101 103 100 99 100 98 98 98 97 97 100 100 96 96 95 92 90 89 88 87 84 83 83 82 80 77
68 79 79 73 81 83 85 88 86 79 86 94 94 95 98 99 100 99 101 103 101 99 99 99 98 97 97 96 99 97 95 95 95 92 89 88 87 84 81 79 81 80 79 77
70 74 61 80 90 89 86 87 90 89 90 93 94 97 100 103 101 101 103 104 103 103 100 98 101 100 99 97 94 94 92 92 93 91 89 87 84 81 79 79 79 79 77 78
67 67 67 72 80 81 79 82 92 90 91 94 97 98 96 103 104 104 105 107 105 103 101 97 99 98 96 94 92 92 90 90 90 90 87 86 82 81 79 77 77 78 77 75
70 63 62 78 80 87 86 73 91 92 92 93 95 86 94 102 103 102 104 107 103 101 101 97 97 97 93 92 90 89 90 89 89 88 86 84 83 79 79 79 78 81 79 75
68 66 73 80 84 86 69 73 83 87 88 92 91 95 99 101 101 100 102 102 101 99 95 94 96 95 90 90 89 91 91 90 88 86 85 84 81 79 79 77 76 74 74 76
70 65 62 81 83 75 77 83 86 87 88 88 96 98 93 94 95 97 98 97 97 94 92 93 94 92 89 88 90 90 89 87 85 84 85 81 77 79 77 75 74 75 75 77
73 73 76 79 76 81 85 84 86 87 91 93 94 91 92 91 92 92 92 93 95 92 89 91 91 91 88 87 88 87 86 84 82 79 79 79 78 75 74 74 73 76 75 76
73 72 74 78 82 83 85 85 88 90 90 91 90 90 90 90 91 91 92 91 91 90 87 86 89 89 87 86 86 84 80 76 76 76 76 76 77 76 73 74 76 78 76 74
70 72 74 74 76 78 80 85 85 88 83 87 87 86 87 85 87 89 88 89 89 86 84 83 85 84 85 84 84 82 80 77 76 77 76 73 72 72 75 72 71 79 78 77
64 73 70 69 75 79 76 76 78 79 75 80 78 75 81 84 85 84 85 85 84 84 83 83 83 82 82 82 83 81 79 80 79 79 76 74 73 68 46 49 45 45 48 62
63 74 70 70 72 72 75 78 77 78 80 79 82 82 82 79 79 72 84 84 84 83 83 82 82 81 80 81 81 80 82 83 84 80 84 81 81 80 76 59 46 44 45 47
71 70 64 67 59 67 72 76 74 78 79 80 80 81 81 81 80 79 77 79 82 81 80 82 82 80 78 80 79 82 83 65 85 87 87 85 84 83 83 77 75 72 49 54
64 68 66 65 60 57 60 63 71 72 76 76 79 79 79 77 77 78 81 83 83 83 83 82 79 80 84 84 82 82 83 85 86 87 87 83 85 84 84 84 82 75 67 58
60 58 60 58 56 55 57 60 65 71 74 73 72 73 76 79 78 79 79 81 81 81 82 83 82 82 84 84 83 84 83 70 78 86 84 84 84 83 84 83 82 69 74 73
53 53 53 52 53 57 56 58 61 63 72 74 71 73 74 75 75 76 77 79 79 79 81 82 79 80 82 82 83 86 86 84 72 86 84 85 84 84 84 84 83 80 76 71
55 57 56 56 56 55 60 64 64 69 68 73 76 76 73 74 70 72 76 78 76 77 80 79 79 77 81 83 84 87 86 85 84 85 84 83 83 84 84 84 83 79 70 68
62 63 64 68 69 66 64 65 68 71 70 72 73 74 75 75 74 74 77 76 75 73 70 72 66 74 79 77 77 86 83 85 85 85 82 71 79 83 81 77 78 74 68 69
62 66 69 70 71 71 69 72 72 72 73 73 73 73 73 74 76 75 75 72 73 74 73 75 75 76 78 76 71 86 80 81 76 78 77 81 82 76 73 68 78 77 77 74
68 67 70 72 70 72 71 72 70 68 71 71 70 69 70 74 76 72 67 72 72 73 74 67 78 80 81 78 80 82 81 79 76 75 79 80 80 81 77 77 79 77 73 72
69 69 70 72 71 71 71 72 72 71 70 69 71 71 70 72 72 74 75 70 77 58 75 76 73 67 76 67 83 82 79 82 83 83 80 80 79 79 80 78 75 74 77 74
70 70 71 71 71 72 73 73 72 72 70 71 70 70 73 75 74 65 65 74 76 65 70 68 62 62 61 77 85 85 83 81 81 81 80 79 79 78 78 78 79 79 79 78
70 70 70 72 72 71 69 71 73 73 73 71 73 74 74 74 72 80 76 66 60 63 73 68 67 59 53 80 82 82 82 80 80 80 81 62 77 78 78 78 77 78 78 74
70 70 70 71 72 71 72 73 73 75 74 70 72 74 76 78 77 78 79 76 60 65 67 56 58 58 74 79 80 77 76 79 80 81 80 79 78 78 78 78 77 77 78 78
70 72 71 71 72 74 74 75 74 74 75 73 75 77 78 79 77 79 75 70 79 71 80 76 76 74 78 79 79 78 73 77 78 79 77 78 78 78 78 77 77 77 77 77
71 62 73 72 73 73 73 72 72 72 73 73 72 76 78 78 76 75 67 78 79 78 77 79 77 71 77 79 79 76 76 79 69 78 77 77 77 78 79 78 77 77 77 77

GFSNGP_sfc_temp_012.txt.gz
Temp
80 83 84 83 82 83 80 80 74 81 81 87 91 91 93 98 97 97 98 98 99 100 95 93 92 91 92 94 93 94 90 90 87 87 86 86 85 85 85 84 84 83 81 80
74 82 82 80 84 84 84 83 82 83 82 95 97 97 95 93 96 95 96 99 97 97 97 95 93 91 92 92 92 93 89 89 88 86 85 84 84 84 84 84 83 82 80 80
67 78 78 72 80 83 84 87 85 78 85 93 91 92 95 91 97 96 97 98 98 97 96 97 97 93 91 91 93 91 88 88 87 86 85 84 85 84 83 82 82 80 80 79
69 72 59 79 89 89 85 87 89 89 89 91 91 93 95 97 95 92 97 98 98 102 97 96 102 101 96 94 90 89 88 88 88 87 85 84 84 84 83 82 81 79 78 74
65 66 73 79 84 83 82 81 90 89 91 93 95 96 92 98 100 98 99 100 99 103 99 95 97 96 94 93 91 90 89 88 88 88 86 85 84 83 82 80 78 76 74 72
68 61 59 76 86 87 85 71 88 88 88 90 93 84 89 97 101 102 103 103 101 102 99 96 95 98 93 92 90 89 89 89 89 88 86 84 83 80 78 77 76 77 73 73
66 64 71 80 84 85 66 71 84 87 86 86 84 86 89 98 94 99 100 100 102 97 94 92 94 95 89 90 88 90 90 89 88 87 85 84 82 79 76 76 77 74 73 74
66 59 53 79 76 70 78 84 85 87 88 86 89 91 91 95 92 95 99 100 99 95 92 92 93 90 87 86 88 88 87 86 84 84 85 83 79 76 76 75 73 72 72 71
68 70 78 82 80 84 86 85 85 86 89 89 89 91 95 93 95 95 97 95 97 91 89 90 89 87 84 84 85 84 84 82 82 82 79 78 76 75 74 75 74 72 73 72
68 76 79 81 85 86 88 86 88 86 84 90 90 93 91 91 91 90 91 90 90 87 85 84 85 86 85 84 84 83 80 79 78 76 75 76 75 76 75 74 74 75 73 72
70 76 76 77 79 82 84 82 81 79 77 76 77 79 85 86 86 87 86 86 86 84 84 83 83 82 84 83 82 78 77 76 75 74 74 72 65 68 75 65 65 74 73 74
56 60 71 70 77 80 77 78 77 77 73 72 71 69 71 77 79 79 79 79 79 80 80 79 81 81 82 82 81 79 76 75 73 74 72 73 69 65 47 48 46 46 49 68
53 55 61 70 74 80 77 78 79 79 77 73 72 68 67 67 70 72 77 77 79 81 81 80 79 79 81 82 81 78 77 76 78 75 77 74 73 71 67 56 47 45 45 51
59 59 53 60 65 74 77 78 76 79 79 79 77 73 64 66 70 74 77 79 82 82 80 79 77 77 78 80 79 80 80 70 80 80 80 78 78 76 76 71 69 65 48 52
58 64 62 63 64 65 68 71 72 73 75 75 77 77 77 75 75 76 79 82 82 81 79 80 79 78 81 82 81 78 79 80 77 82 83 79 80 81 79 75 74 67 60 54
58 62 63 60 59 61 62 63 63 63 70 74 74 74 76 77 77 77 78 79 77 75 78 75 75 77 77 78 79 80 80 71 76 83 79 82 82 81 81 79 70 68 68 66
55 52 52 52 54 56 56 61 57 58 61 65 72 74 75 74 74 74 75 76 76 76 79 76 77 77 78 79 80 81 83 81 70 82 80 83 82 81 82 82 77 74 70 69
59 61 61 57 55 53 54 57 57 59 58 62 68 74 73 70 70 70 72 76 76 74 73 73 75 77 76 78 77 81 81 80 83 83 80 78 82 81 82 82 78 74 77 66
60 62 63 64 64 64 62 61 61 64 68 66 64 67 71 73 74 73 72 69 70 68 70 74 68 74 76 70 73 82 82 80 80 74 71 70 73 81 75 77 67 75 75 70
64 66 71 71 70 69 61 61 66 64 69 68 70 67 69 68 70 71 71 68 69 70 74 73 74 76 77 76 73 80 81 76 76 75 71 75 73 68 66 68 73 75 72 72
68 70 69 67 63 66 68 70 69 67 67 70 67 66 68 68 69 68 67 66 70 72 73 68 73 77 79 76 77 79 77 76 65 71 75 69 76 77 72 79 78 77 73 71
69 69 70 70 69 65 66 63 64 66 66 69 70 69 68 66 69 68 69 67 71 58 71 70 73 64 70 66 81 81 79 77 72 72 71 77 74 77 76 69 70 74 75 75
68 69 69 67 67 69 71 71 69 70 70 70 70 70 69 67 66 66 64 67 70 66 75 73 61 62 59 78 80 80 75 79 79 78 78 77 77 76 76 76 77 76 73 71
69 65 62 71 71 68 67 66 72 72 72 72 72 73 73 73 70 73 75 66 59 66 73 70 64 61 57 76 78 80 80 79 78 78 77 65 76 76 76 76 76 77 77 73
62 68 67 66 65 64 66 67 69 66 72 71 74 74 75 74 74 76 77 74 62 67 72 58 60 59 73 77 78 78 78 77 78 76 76 77 77 77 77 77 76 76 76 75
66 70 70 68 70 71 72 72 68 69 73 68 71 72 75 71 75 76 75 69 76 70 76 73 73 71 75 77 78 78 73 77 76 76 72 78 78 77 76 75 76 76 76 76
70 62 70 69 71 71 71 69 69 69 69 70 69 72 74 75 72 74 67 72 73 72 70 71 69 67 70 73 71 71 71 75 61 68 77 75 73 74 76 76 75 75 76 76

GFSNGP_sfc_temp_015.txt.gz
Temp
72 75 76 75 74 77 72 71 63 65 68 72 76 79 79 82 84 86 86 85 83 89 90 89 88 88 88 88 88 86 84 83 82 83 83 82 81 81 81 80 79 77 75 76
64 73 76 73 77 78 78 77 74 74 73 75 76 81 81 82 87 86 87 86 84 87 90 89 88 86 88 87 88 88 84 83 83 83 82 81 81 80 79 79 77 77 75 75
56 67 67 63 73 75 75 79 76 69 77 77 77 78 78 83 85 85 88 85 85 84 88 90 88 88 86 87 89 87 85 84 83 83 81 81 80 79 78 79 79 77 77 75
54 58 49 63 78 80 77 78 78 76 77 77 77 77 79 82 85 82 87 86 85 90 83 88 90 90 89 88 86 86 84 83 83 82 81 81 80 79 80 79 79 76 75 73
51 55 59 69 74 73 70 71 78 72 75 80 81 78 76 83 84 86 87 91 87 83 84 85 91 90 88 86 85 85 82 82 83 82 81 81 79 80 80 77 76 74 73 71
51 50 50 63 77 81 75 60 75 76 74 75 75 66 70 75 80 83 84 90 92 92 88 89 86 90 87 86 84 84 85 83 84 84 82 80 81 79 75 76 72 72 70 70
54 54 58 70 77 78 59 59 72 76 75 74 68 71 76 79 79 82 81 83 84 86 86 86 84 90 87 87 86 86 87 80 83 83 81 81 77 75 73 72 73 70 69 70
54 51 49 71 75 65 65 71 75 74 75 72 72 76 77 80 79 80 80 80 83 80 81 80 82 86 82 83 82 82 81 80 79 80 80 76 74 72 71 72 71 70 70 69
57 56 63 63 61 63 70 71 75 71 74 74 75 74 78 77 76 80 79 79 78 82 79 79 79 83 79 77 80 80 79 77 77 77 75 73 72 71 70 70 70 69 70 67
57 62 68 67 65 68 68 67 70 71 70 70 66 69 71 75 76 74 75 78 79 77 76 75 77 79 78 79 80 78 76 74 74 73 72 72 71 71 71 70 70 70 68 66
54 54 56 67 65 68 69 69 69 70 69 67 67 65 65 65 69 73 74 75 78 77 75 75 77 77 79 78 77 74 73 71 71 71 68 59 54 57 66 57 63 66 67 67
49 53 53 53 61 65 67 67 67 66 64 64 63 61 62 61 63 65 66 72 74 75 74 74 75 74 74 74 74 71 70 70 70 68 66 64 62 57 47 47 47 47 51 61
54 57 55 57 61 69 68 69 70 68 65 63 62 62 61 60 61 61 63 69 72 72 73 72 72 73 74 73 73 72 70 69 69 69 68 67 65 61 56 52 47 45 46 51
59 58 55 54 52 62 65 68 69 70 70 66 63 61 61 61 62 61 60 62 71 72 71 71 71 70 74 74 73 72 72 63 70 70 68 67 66 64 61 60 57 55 47 47
56 58 56 56 56 57 62 64 61 60 65 67 68 64 63 60 59 60 61 67 70 71 71 70 70 69 72 74 74 74 74 73 73 72 70 68 70 69 66 65 61 55 49 48
55 55 58 57 56 57 58 58 58 58 60 60 61 66 67 67 66 67 68 67 67 66 68 69 69 71 72 72 70 69 68 69 70 73 68 68 69 70 68 67 60 57 55 52
51 50 52 51 53 54 55 57 58 57 58 59 60 63 65 65 66 66 68 68 69 68 68 68 68 70 70 70 69 68 67 66 66 66 67 69 70 69 69 68 63 61 61 58
54 54 54 54 54 54 56 57 58 59 58 60 64 64 64 64 63 64 65 66 66 66 65 65 65 67 68 68 68 71 70 71 69 71 68 66 67 69 66 69 65 64 64 56
57 58 60 61 60 59 57 59 60 61 59 61 61 61 64 65 65 64 63 63 62 63 64 65 67 66 66 66 65 66 69 70 66 67 68 66 64 65 64 66 63 63 62 59
62 64 64 65 66 63 62 61 61 63 64 64 62 61 61 63 64 63 62 61 62 62 65 65 67 68 68 66 66 67 66 67 65 65 62 61 61 60 59 59 62 64 62 61
63 62 62 64 62 63 62 62 62 61 63 63 62 61 61 62 63 64 61 59 61 62 64 64 63 63 66 64 64 63 65 64 61 63 63 61 61 61 60 62 63 65 63 61
63 63 63 63 62 62 63 63 63 63 63 63 63 63 63 62 61 61 61 60 62 61 63 61 60 59 61 63 67 69 68 66 66 63 65 65 64 62 64 64 61 63 64 65
60 61 63 62 62 62 63 63 63 63 62 62 62 62 62 61 61 61 58 62 63 62 64 63 61 60 61 63 65 65 67 67 65 64 65 66 66 65 63 62 65 64 63 61
61 62 61 64 64 63 60 60 63 63 64 64 64 64 63 63 62 64 63 60 59 63 64 63 61 60 60 65 65 67 67 67 67 65 63 60 63 62 62 62 62 62 65 63
61 62 60 60 60 60 59 61 63 64 62 62 62 65 67 66 64 62 63 64 59 60 62 58 59 60 61 63 64 64 63 64 64 65 66 65 65 63 62 62 63 62 60 60
59 61 61 60 60 61 61 61 59 59 60 59 61 62 65 64 67 67 66 64 67 64 66 64 64 62 63 64 65 63 63 63 61 62 62 62 65 63 63 61 61 61 61 61
60 57 61 61 62 62 60 59 59 58 59 58 58 60 62 63 62 62 60 65 64 66 64 64 62 57 61 64 62 61 60 61 54 61 59 60 59 61 61 59 58 59 59 55

GFSNGP_sfc_temp_021.txt.gz
Temp
48 53 57 61 62 68 61 65 60 65 59 67 67 68 71 74 74 75 77 81 78 84 79 81 82 83 83 82 82 83 80 79 79 79 79 78 77 78 78 76 76 74 73 73
44 56 60 59 64 67 69 69 66 65 60 68 74 71 69 73 73 72 76 82 84 87 86 84 85 83 83 82 81 82 80 79 80 79 79 78 77 76 76 75 75 73 72 72
35 49 51 51 62 67 69 70 69 63 66 69 69 69 70 72 72 75 76 81 78 86 88 89 87 86 83 82 83 81 80 80 79 78 77 77 77 76 75 75 74 71 72 72
35 41 38 60 72 74 70 68 67 67 70 70 73 77 74 73 74 74 76 77 79 85 81 83 87 87 87 84 81 80 79 79 79 78 77 77 76 76 75 75 73 72 71 72
35 35 47 60 66 69 63 64 69 70 71 71 71 68 69 72 72 76 76 78 78 81 86 86 86 86 85 83 81 79 78 79 79 79 78 77 76 75 76 76 74 73 72 72
37 36 38 52 60 63 68 62 70 70 70 71 67 61 72 73 74 75 76 74 75 75 76 79 84 86 83 81 81 79 79 80 80 80 78 77 77 76 77 76 75 74 73 73
41 39 46 54 56 61 53 63 68 69 69 66 67 68 72 72 71 72 73 74 74 70 76 80 81 83 81 82 80 82 82 82 81 80 79 78 78 76 75 75 75 74 74 73
42 40 38 57 57 51 54 59 65 68 66 66 65 65 66 67 67 66 67 68 69 69 70 71 75 82 80 80 83 83 83 81 80 80 79 78 76 75 75 74 74 73 71 70
49 47 54 57 55 60 60 57 58 59 62 65 63 62 63 62 63 63 63 65 69 68 67 67 71 75 78 81 82 81 81 81 79 79 79 76 74 74 74 74 73 71 70 69
49 53 54 57 58 60 60 59 61 61 61 62 60 60 60 61 61 62 62 63 63 64 65 63 66 68 72 81 80 79 79 80 79 77 77 75 75 75 75 73 71 69 69 67
50 52 56 58 57 57 60 61 61 61 60 60 60 57 57 57 58 59 60 60 62 64 63 61 60 61 64 66 72 75 78 75 75 75 74 72 62 68 73 69 68 69 68 67
47 52 52 52 55 57 57 58 58 59 58 59 59 57 58 57 58 58 58 59 60 61 62 63 63 63 66 63 70 71 71 72 72 72 65 62 61 58 54 53 55 55 55 59
51 54 54 55 56 59 56 58 60 60 60 58 59 58 58 57 58 58 65 64 62 60 61 60 60 61 62 64 69 72 72 68 66 64 65 66 66 65 62 59 51 46 50 49
55 55 52 54 54 58 59 61 61 62 62 61 60 60 58 59 61 62 63 63 63 61 62 66 65 66 67 62 64 66 65 59 66 66 66 65 64 63 63 61 62 57 45 49
53 56 54 54 56 56 58 60 59 59 61 61 62 61 60 59 61 62 63 64 64 65 64 64 64 65 66 62 64 67 67 66 65 65 63 61 62 63 63 63 61 55 51 47
53 54 54 53 53 54 56 55 55 56 59 62 61 62 62 62 62 62 62 62 62 62 63 63 63 64 66 63 62 57 61 60 62 64 62 61 62 63 62 61 59 58 59 54
51 50 51 52 53 52 53 55 55 54 58 59 59 60 61 61 61 59 61 59 62 61 62 62 61 63 63 64 66 62 65 65 63 64 63 62 62 62 62 60 58 59 58 53
53 53 53 54 54 53 55 56 56 56 56 59 60 62 60 56 53 55 57 60 62 62 60 61 61 61 63 63 63 63 64 65 65 64 63 63 62 61 59 59 60 60 52 47
54 54 56 57 56 57 57 58 59 59 59 58 58 56 57 57 57 56 57 59 58 58 59 60 62 62 62 63 62 62 62 62 62 63 63 60 62 62 60 60 58 54 53 51
55 56 57 57 58 58 58 59 60 60 60 61 60 59 58 58 58 57 56 54 54 56 56 59 61 61 60 62 64 62 62 62 60 58 59 60 60 59 59 54 57 56 55 53
57 59 58 58 58 58 59 58 57 58 58 59 58 57 56 57 59 59 57 56 54 58 57 58 58 58 60 60 62 60 60 60 58 57 58 58 57 57 57 59 59 59 58 56
58 58 59 60 58 58 60 60 60 58 56 58 58 59 58 56 57 57 56 56 59 55 57 58 56 58 60 60 60 60 61 61 60 59 59 59 58 59 58 58 58 58 59 57
57 57 57 58 57 58 59 59 60 60 58 58 57 55 52 51 52 53 53 56 56 55 58 58 57 57 59 62 63 59 60 60 60 61 59 57 59 60 60 61 61 60 59 56
56 55 56 58 58 55 53 55 55 58 58 58 58 59 56 55 56 57 55 55 53 55 56 55 56 56 57 60 60 57 56 58 59 61 59 54 60 58 59 60 59 58 58 55
53 53 53 53 51 48 50 54 54 55 54 51 52 55 56 56 56 56 56 56 54 55 55 54 55 55 58 59 58 57 54 55 53 53 53 53 53 51 51 52 51 51 52 55
49 50 50 50 49 49 51 52 49 48 49 48 49 50 52 54 56 55 55 53 53 52 54 54 54 54 54 54 56 56 56 55 54 53 51 52 51 50 48 48 48 47 47 47
49 48 49 49 50 49 48 47 46 45 46 48 47 49 49 50 50 51 51 52 52 53 52 52 52 51 51 51 51 51 51 53 48 52 52 51 50 50 48 49 49 49 48 45

GFSNGP_sfc_temp_027.txt.gz
Temp
54 56 57 57 59 62 62 68 65 69 70 75 79 81 84 87 87 84 85 86 86 85 84 85 86 86 86 88 87 89 85 85 83 83 83 83 82 82 83 83 82 83 83 83
50 57 58 55 60 60 63 64 65 67 68 82 80 84 83 86 86 85 85 88 88 86 85 84 85 85 86 86 86 86 83 83 83 83 82 81 81 81 81 82 81 82 82 82
46 53 54 52 60 63 65 68 68 63 71 79 78 79 79 83 85 85 88 88 87 88 86 86 87 86 85 85 85 84 83 83 83 82 81 81 81 81 80 81 81 81 81 82
47 50 40 62 69 67 66 70 73 73 75 78 80 83 84 87 86 87 88 89 88 90 90 86 90 92 89 88 83 82 82 83 82 80 80 81 81 80 80 81 80 81 81 81
43 47 53 58 64 64 61 67 74 73 76 80 83 85 82 87 87 86 88 89 89 92 89 87 87 88 87 86 84 83 82 82 82 81 81 81 80 79 81 81 81 81 82 81
46 41 42 59 69 74 66 57 66 67 69 74 81 74 81 89 88 88 88 89 87 88 87 87 86 90 86 86 84 82 83 83 82 83 81 81 81 80 81 82 81 84 82 81
41 42 50 63 67 67 54 62 67 68 68 67 67 78 85 85 83 83 83 84 84 85 84 84 84 86 83 86 84 86 87 86 84 83 82 81 79 81 81 81 82 81 81 81
41 39 38 65 67 59 65 67 68 69 66 63 67 71 76 80 78 79 79 80 81 79 79 79 82 83 83 82 85 86 85 84 83 82 84 84 80 79 81 78 78 79 79 78
46 48 58 64 61 66 67 66 67 66 66 63 65 71 77 75 75 76 78 78 80 79 77 78 80 83 80 79 83 84 83 82 82 83 83 83 81 80 77 75 75 76 74 75
47 52 56 60 65 67 68 66 68 67 63 65 68 74 72 72 73 74 75 76 78 77 76 74 76 78 78 80 82 83 82 81 82 81 81 82 84 83 81 76 75 74 73 72
47 52 55 58 62 62 67 67 66 66 67 67 70 71 72 71 71 73 72 73 75 75 75 74 75 75 77 77 79 81 81 82 82 83 80 82 83 83 81 80 80 79 81 75
42 54 54 57 64 67 64 66 66 63 66 67 67 62 63 66 70 71 70 71 71 72 72 72 73 73 74 74 74 77 79 82 83 85 85 84 77 70 54 54 55 54 56 70
46 54 55 59 60 65 64 65 66 66 64 63 63 64 64 64 65 63 68 70 70 71 72 72 73 72 74 73 72 73 73 76 81 75 84 78 68 70 66 56 48 50 51 52
50 52 52 55 58 60 61 64 61 65 65 64 64 65 64 64 64 65 65 68 71 71 71 72 72 71 69 67 70 70 72 58 68 72 77 69 69 67 63 63 61 58 50 54
49 54 56 58 58 57 59 61 62 62 63 64 65 65 63 62 62 64 67 70 70 70 69 70 71 68 68 70 71 71 72 70 68 67 63 64 67 66 65 63 61 60 54 49
52 53 56 56 55 55 57 59 61 63 64 61 62 63 66 68 67 67 67 66 65 64 66 68 68 68 71 71 71 73 71 60 64 70 65 62 62 62 62 62 61 58 58 56
52 51 52 53 53 56 56 61 63 63 64 63 63 63 62 63 60 63 67 68 66 65 67 67 68 71 72 72 71 72 73 73 62 70 69 66 63 62 63 61 60 61 60 57
55 54 55 56 55 55 55 57 61 64 63 63 61 62 58 56 56 58 65 66 67 68 65 66 67 71 73 73 72 73 73 72 70 69 70 66 64 63 63 62 63 61 57 54
50 51 54 55 56 56 56 57 59 59 60 61 62 61 61 61 61 63 64 62 61 63 63 66 63 70 71 68 72 72 68 68 68 67 69 62 65 63 63 62 60 59 59 59
50 50 51 52 52 53 54 54 55 55 57 60 61 60 59 60 63 64 63 58 58 62 65 66 69 70 71 71 68 75 73 70 67 66 66 65 65 62 62 57 60 60 61 63
49 49 49 50 50 51 52 53 52 53 55 56 56 57 58 59 56 58 57 56 57 61 64 62 64 69 70 71 73 73 72 65 65 70 69 67 66 62 61 60 59 59 59 58
52 53 52 49 48 49 51 52 54 53 53 54 57 58 58 59 61 59 57 54 55 54 61 63 64 61 66 66 70 70 70 67 64 65 63 64 65 65 64 59 59 59 58 57
53 55 55 55 53 52 54 54 54 53 51 52 56 57 56 57 58 57 53 56 60 54 59 59 56 57 59 65 66 64 64 64 64 63 58 57 61 58 58 58 59 59 58 57
52 52 54 55 55 54 52 53 54 54 53 53 55 56 54 56 56 60 58 54 52 56 57 56 56 55 58 58 60 61 63 59 58 59 62 54 64 64 61 55 54 53 55 56
51 52 52 53 52 51 52 53 54 54 54 53 54 54 54 57 55 56 57 57 52 57 59 53 54 56 62 61 57 53 54 56 58 65 59 58 62 63 62 61 59 58 57 57
51 53 53 51 52 53 54 53 52 53 53 52 53 54 55 56 55 55 55 54 56 54 57 56 55 59 61 59 60 60 59 54 55 55 55 57 59 61 61 61 59 60 60 61
55 49 54 55 54 54 53 52 52 50 52 53 51 53 53 54 53 53 51 54 54 54 54 56 55 54 57 58 58 59 59 59 51 55 54 51 50 50 54 55 55 57 59 61

GFSNGP_sfc_temp_030.txt.gz
Temp
70 65 67 73 76 78 75 76 72 77 78 83 87 88 90 93 94 94 95 95 96 96 97 96 97 96 94 96 97 98 95 94 92 90 90 89 88 88 88 88 88 88 88 89
59 66 65 65 69 72 75 77 78 79 78 90 92 90 89 90 91 91 93 96 99 98 97 96 95 94 95 94 95 95 93 92 92 89 88 88 87 87 87 87 87 87 88 88
56 65 63 58 67 70 72 76 76 70 78 86 85 86 87 89 91 92 94 95 97 99 100 99 98 96 94 94 95 93 91 91 90 89 87 86 87 86 86 85 87 86 87 88
56 60 47 68 80 77 73 76 79 79 80 83 85 88 90 93 92 93 95 96 98 103 103 101 103 106 99 97 91 91 89 89 89 88 87 87 86 85 85 86 86 86 86 86
51 53 61 67 70 70 70 71 80 79 83 85 88 89 87 94 96 96 97 99 100 103 103 101 101 101 99 96 93 90 89 88 88 89 87 87 85 85 86 86 86 86 87 86
54 48 48 66 76 79 76 63 80 79 79 82 83 78 85 95 98 99 100 100 99 101 102 101 97 99 96 95 93 89 90 89 90 89 87 86 86 85 86 87 86 89 87 87
50 49 58 71 74 75 59 65 77 78 78 78 76 81 86 89 89 92 94 95 97 96 94 95 96 97 93 94 92 93 92 92 90 89 87 87 86 86 86 86 87 85 85 86
50 47 45 72 72 63 69 73 75 76 77 77 78 79 80 82 84 87 91 94 95 90 91 94 93 92 91 89 93 92 92 91 90 88 89 90 86 86 85 85 83 83 81 84
54 55 65 70 70 74 72 69 72 74 77 77 76 77 79 80 84 88 90 92 92 92 89 89 89 90 88 88 90 91 89 88 89 88 88 89 86 85 86 85 86 84 86 87
54 59 62 66 70 71 72 71 74 74 77 77 76 77 79 83 85 86 88 86 89 88 87 85 87 88 89 87 88 88 86 86 87 87 86 87 90 89 88 88 87 88 89 89
53 58 61 64 67 69 70 71 72 74 76 76 75 76 81 82 81 83 84 85 86 85 83 82 83 83 84 85 87 87 87 88 88 89 86 87 88 91 90 90 89 88 89 90
50 60 59 60 66 69 68 69 72 73 73 75 71 70 73 78 80 80 79 80 80 80 80 80 81 80 81 81 82 84 86 89 91 93 93 90 90 88 53 56 53 52 53 70
56 62 62 64 65 66 65 68 72 74 76 70 66 67 69 69 69 66 77 78 78 78 79 80 79 78 75 76 81 80 81 82 88 82 90 92 92 90 89 70 49 48 47 52
57 57 52 59 54 64 66 69 71 74 74 66 66 67 67 68 68 69 71 76 78 79 79 79 77 74 77 79 80 80 78 58 84 84 85 86 84 84 84 77 75 76 56 50
47 51 54 56 61 62 67 67 67 64 63 63 65 65 66 68 70 72 75 77 77 77 77 77 75 74 79 81 79 78 81 82 82 81 76 69 67 64 65 65 63 62 58 54
48 48 52 55 56 59 61 66 58 59 61 61 65 70 73 75 75 74 75 75 73 72 72 74 75 77 79 79 81 82 78 63 68 81 80 79 77 68 64 63 62 61 61 58
52 52 54 54 57 60 62 58 60 59 61 61 62 68 68 70 71 71 74 75 73 72 73 71 73 77 79 80 81 82 84 83 64 82 80 78 77 76 77 78 74 65 58 54
58 58 57 53 57 56 55 59 58 58 60 62 62 61 63 63 62 65 65 69 71 71 70 71 73 77 77 78 81 81 81 80 82 82 81 76 77 77 78 79 75 68 63 59
50 50 50 50 51 51 52 53 55 56 58 61 64 65 68 66 64 61 63 64 64 64 65 70 67 73 77 73 79 85 81 77 75 77 77 69 76 75 71 70 68 65 63 62
49 50 50 50 50 51 51 52 53 54 57 59 58 57 59 61 65 65 63 60 61 65 69 68 73 75 76 75 73 83 82 81 78 75 74 74 70 65 64 58 63 62 63 64
50 49 50 50 50 50 51 51 52 53 54 55 55 56 55 57 59 61 62 59 62 66 69 66 68 74 77 77 80 81 79 77 74 73 74 72 70 68 70 68 61 60 60 61
58 58 55 53 52 52 54 53 52 53 55 56 57 59 60 62 61 58 56 56 59 56 66 67 67 60 69 69 75 76 76 73 72 72 72 68 71 65 61 60 60 61 60 59
59 58 57 57 56 56 56 54 54 55 55 54 56 59 59 60 61 59 58 61 62 57 64 64 57 57 58 70 70 70 69 70 72 65 67 69 63 63 58 55 55 56 56 57
60 61 61 62 62 60 57 56 56 56 56 56 57 57 60 61 61 65 64 58 55 59 60 60 60 56 61 62 61 59 58 56 68 70 73 62 73 72 69 58 54 53 53 52
60 61 60 60 61 61 61 61 61 59 58 57 58 58 59 61 59 59 62 63 55 62 65 56 56 58 69 69 60 54 54 55 61 60 60 67 71 71 70 69 65 61 61 60
58 61 61 59 59 61 63 62 60 60 60 58 59 60 62 62 63 63 63 58 61 58 62 62 61 66 67 66 67 67 65 63 60 55 58 59 59 64 67 68 68 69 69 67
61 53 60 60 61 59 59 59 59 58 58 59 58 60 60 60 59 59 56 60 60 61 62 62 63 60 64 63 63 64 65 66 55 65 65 59 54 53 58 59 61 63 65 65

GFSNGP_sfc_temp_033.txt.gz
Temp
76 81 81 82 80 82 79 81 76 82 82 88 90 91 94 97 97 97 97 98 100 101 101 103 103 102 101 102 102 102 98 98 94 92 92 91 90 90 90 90 90 90 89 90
69 78 74 73 80 82 83 83 83 85 85 96 96 96 94 94 95 94 95 98 100 101 101 100 102 101 101 99 101 101 97 97 95 92 90 90 90 89 89 89 89 89 89 89
60 71 71 64 75 79 83 86 85 78 86 94 92 90 91 92 94 94 96 98 99 101 103 102 103 102 100 99 99 98 95 95 94 92 90 89 90 89 87 87 88 87 88 89
60 65 53 74 84 83 80 83 87 86 87 89 89 92 94 96 94 94 96 98 100 104 105 105 109 109 103 102 96 94 93 93 93 92 91 90 89 88 87 88 87 87 87 88
56 61 68 73 78 79 76 75 85 84 86 88 90 91 89 95 96 96 98 100 102 105 107 106 107 107 105 100 99 94 93 91 92 92 90 89 87 87 88 88 87 87 89 87
58 54 54 71 80 83 82 69 86 86 85 86 89 81 87 93 95 98 100 102 102 104 106 106 104 107 104 102 99 94 93 93 92 92 90 89 88 87 88 88 88 90 89 88
54 54 63 76 80 83 63 67 84 87 85 85 83 84 85 88 88 90 92 94 97 98 98 99 102 104 99 100 99 98 96 95 92 91 89 89 88 88 87 87 88 86 87 88
55 52 50 77 76 68 71 76 75 76 77 77 81 82 84 85 86 87 89 92 95 96 97 97 98 98 95 93 97 97 96 93 91 90 92 93 87 87 88 87 85 85 85 87
60 60 70 75 73 78 79 72 74 75 78 77 78 81 83 82 84 87 91 92 97 97 95 96 96 94 92 92 95 95 93 91 91 91 90 90 88 86 87 86 88 86 89 88
58 64 67 70 75 77 78 75 76 78 77 78 77 80 81 82 85 89 90 91 94 93 92 91 91 92 91 93 93 92 90 90 90 90 89 89 92 91 90 90 89 88 91 90
58 63 66 68 71 72 74 74 75 76 76 77 78 79 80 80 84 87 87 87 88 89 89 87 87 87 90 90 91 89 89 89 89 91 89 90 90 93 93 91 90 93 92 93
53 63 63 64 70 73 71 71 72 73 74 76 78 78 77 76 80 82 84 84 84 84 83 83 84 83 84 85 87 90 89 91 93 95 94 91 92 89 61 62 58 51 48 62
55 63 65 66 68 71 70 71 74 73 74 73 78 80 75 72 76 72 78 81 82 82 83 83 81 79 81 84 85 85 86 85 93 87 96 96 94 93 92 76 52 52 48 49
54 54 53 60 61 69 70 72 70 72 73 74 77 80 73 67 69 75 76 79 82 83 81 80 80 81 84 84 83 82 81 60 90 90 91 91 90 90 89 88 88 85 56 52
46 51 56 61 58 62 67 67 67 69 73 76 79 73 66 66 68 71 76 76 75 75 76 79 78 77 81 83 81 81 86 87 87 85 82 78 81 79 78 75 70 67 68 59
53 50 51 52 57 60 61 59 61 67 72 75 72 66 65 67 73 75 76 78 77 75 74 74 74 79 82 82 84 83 80 67 72 85 84 84 84 83 81 79 77 75 74 73
51 47 49 50 55 58 60 62 60 66 72 68 67 63 62 67 71 72 74 75 75 75 76 77 78 80 81 83 85 87 87 86 67 85 82 82 82 82 81 81 76 77 74 66
51 54 60 58 58 58 57 58 60 65 63 59 61 60 63 63 63 67 70 72 72 72 75 75 78 80 81 82 86 86 87 87 87 86 85 81 82 81 81 78 75 74 77 70
51 50 51 51 53 52 52 53 54 54 54 54 55 56 58 59 60 62 66 67 68 68 71 77 69 77 80 76 77 84 85 83 81 80 81 74 80 79 73 70 71 68 69 71
51 52 52 52 52 51 51 52 52 52 53 52 51 50 50 53 56 59 61 60 64 67 69 71 77 76 78 78 75 84 77 76 79 80 79 80 79 77 70 59 65 65 67 66
54 52 52 52 50 50 51 52 52 51 51 51 52 51 50 51 51 52 52 52 60 67 67 62 63 74 76 77 78 80 80 79 74 72 75 69 69 69 69 66 62 61 61 61
61 59 57 53 51 51 54 54 52 52 52 52 53 52 52 52 52 52 53 53 60 59 69 68 66 60 68 69 76 78 78 77 76 76 74 72 65 62 59 57 56 57 57 57
61 62 61 61 60 57 59 59 58 56 55 56 57 58 59 61 62 60 57 61 62 58 65 67 58 58 60 69 68 68 69 73 76 75 71 66 66 64 62 56 55 55 53 53
63 62 63 64 63 62 58 58 59 59 59 58 59 59 60 60 60 63 63 59 56 61 63 62 61 57 63 67 60 59 59 60 63 66 74 64 73 73 70 63 57 55 54 52
62 64 62 62 62 62 62 63 63 61 60 59 60 62 62 63 62 61 62 62 56 62 64 57 57 59 70 71 71 66 61 62 63 63 65 67 70 72 72 71 69 64 59 53
61 63 65 62 63 64 65 65 63 63 64 62 63 64 65 63 63 62 63 60 63 61 65 65 64 67 68 68 68 67 68 67 61 57 57 60 63 64 65 66 66 66 66 65
64 56 65 64 65 65 64 63 62 60 60 63 62 63 64 64 63 62 58 64 65 65 65 66 66 63 67 67 67 67 67 67 57 67 68 68 66 63 60 56 55 56 59 59

GFSNGP_sfc_temp_036.txt.gz
Temp
75 80 82 81 80 81 79 81 74 80 82 84 87 90 94 97 98 98 97 99 99 100 95 95 95 94 95 97 95 96 92 90 88 87 87 87 86 86 86 85 86 85 85 86
66 74 77 75 81 81 82 82 83 84 84 91 93 93 93 93 93 93 94 97 99 98 99 100 96 94 95 95 96 95 91 91 89 87 86 86 86 85 85 85 85 85 85 85
57 69 71 68 76 81 83 86 85 79 86 92 89 90 91 92 93 93 94 96 98 99 98 97 100 97 95 94 96 94 91 91 89 87 86 85 86 85 84 84 85 84 84 85
56 62 53 73 84 84 82 86 89 88 90 93 91 92 94 95 94 94 95 96 96 100 99 99 103 105 99 98 92 91 89 89 89 88 87 86 85 85 84 85 84 84 84 84
54 57 66 73 79 79 77 79 89 89 91 91 91 91 89 94 96 95 95 96 97 100 100 97 99 98 96 96 93 91 90 89 89 89 87 86 85 84 85 85 84 85 85 84
56 52 54 69 82 87 87 70 85 87 86 87 89 79 80 86 89 89 91 91 91 94 96 101 100 104 95 95 93 90 90 90 89 89 87 87 86 85 85 86 85 87 85 85
53 52 63 70 77 85 66 62 76 77 77 84 82 79 82 86 85 87 89 89 92 91 90 94 95 95 93 93 92 93 92 91 89 88 87 87 86 86 85 85 85 84 84 85
54 51 49 74 75 63 67 72 74 75 75 73 76 79 82 83 83 84 86 89 93 90 90 92 97 94 89 89 92 95 91 89 88 87 89 91 85 85 85 84 82 82 82 83
58 58 70 75 72 77 78 74 72 73 76 75 75 76 78 79 81 83 86 89 92 92 90 91 96 93 87 89 92 93 91 88 87 87 87 86 85 84 85 83 84 83 83 84
57 63 66 70 74 76 76 74 76 77 75 76 74 76 77 79 80 80 83 87 89 87 88 90 92 91 89 89 91 91 90 88 87 86 85 86 88 87 86 86 84 83 84 83
55 60 64 68 71 72 74 74 74 76 75 75 74 74 75 76 78 77 78 83 85 84 86 86 86 84 85 86 89 88 88 88 87 88 84 86 86 88 87 87 85 87 86 86
51 59 59 61 68 72 71 71 73 73 72 75 75 73 74 75 78 75 77 79 82 84 84 84 84 83 83 84 85 87 87 88 88 89 89 87 86 85 64 66 57 50 50 63
50 57 58 61 64 67 67 70 73 73 73 72 74 73 73 73 76 71 74 78 78 79 79 79 79 80 81 83 86 83 84 85 90 85 91 87 86 87 84 61 49 49 47 47
47 48 48 54 56 64 66 69 71 73 75 74 73 74 74 74 74 73 72 75 76 78 76 78 81 81 83 84 82 81 81 62 87 84 85 84 82 80 82 80 80 77 54 54
52 52 50 55 58 62 66 68 66 69 70 71 72 73 75 75 71 71 73 77 73 73 72 77 76 77 82 82 82 82 86 85 83 81 80 77 80 79 79 77 75 75 75 65
56 52 56 50 54 59 63 64 62 66 67 67 70 72 75 75 71 69 70 75 70 68 71 72 74 79 82 82 81 80 78 69 75 82 81 82 82 81 79 77 77 76 74 70
52 50 47 49 54 59 60 63 64 65 66 66 68 66 73 71 64 63 68 69 69 69 71 72 73 79 83 85 86 84 83 83 73 82 81 81 81 80 80 79 77 75 75 63
50 52 55 55 56 58 59 62 63 63 60 63 65 67 67 59 58 61 64 67 67 70 71 73 73 80 80 81 86 86 86 85 84 83 81 79 79 78 77 75 73 72 74 65
50 49 50 50 51 51 52 53 52 52 51 52 54 54 54 56 56 58 61 61 61 60 62 65 68 75 75 72 79 84 82 82 81 79 78 73 75 72 70 68 68 70 71 71
50 50 50 50 50 49 49 50 51 51 51 51 50 49 48 48 51 53 55 53 56 60 63 63 68 71 73 73 72 75 76 75 75 71 68 67 67 67 64 57 61 63 62 64
52 50 49 49 48 48 49 49 50 49 50 50 49 48 48 48 49 49 48 48 54 56 59 60 62 66 69 75 78 78 75 75 70 69 67 66 63 60 58 57 56 56 57 58
59 57 54 52 50 48 48 49 48 49 50 50 49 50 48 47 48 47 48 48 50 53 53 55 59 59 63 66 69 71 75 73 72 70 69 67 63 59 57 57 56 56 55 56
60 59 59 57 53 52 53 50 49 49 48 50 50 49 48 48 47 46 45 50 51 52 51 52 53 56 57 58 62 63 63 62 65 70 69 68 64 62 58 59 59 57 54 52
59 59 59 59 61 57 53 54 56 56 56 56 56 56 57 54 54 60 59 57 55 58 59 57 57 56 59 60 59 61 63 61 60 62 63 59 68 67 62 59 57 57 55 53
60 62 61 62 60 59 59 59 59 58 58 57 58 58 59 59 58 60 61 61 56 60 61 57 57 59 66 67 68 64 61 60 60 60 59 58 62 64 63 64 64 61 59 54
61 63 63 62 62 63 62 61 59 58 59 58 59 60 61 61 61 61 61 59 61 59 64 62 62 66 66 66 66 66 65 65 64 62 59 58 57 55 54 56 57 57 58 59
63 57 64 63 64 63 63 61 60 58 59 60 58 61 62 62 61 61 58 62 63 63 64 64 64 63 65 65 65 65 65 65 57 65 66 65 64 62 61 59 57 55 53 52

GFSNGP_sfc_temp_039.txt.gz
Temp
60 66 69 73 74 75 70 69 63 66 65 70 71 75 77 81 83 84 83 86 89 92 91 91 90 89 90 89 89 89 84 83 82 83 83 83 82 82 81 82 82 83 82 82
53 66 70 68 72 77 75 75 72 71 69 75 78 78 79 79 80 79 80 83 84 86 91 91 91 89 90 89 89 90 87 84 85 83 83 82 82 82 81 81 82 82 81 83
45 60 62 56 66 72 76 78 75 66 71 76 74 77 78 78 80 80 82 83 83 84 81 80 86 91 90 90 91 89 88 86 85 84 82 82 83 82 81 81 82 81 82 81
43 52 42 60 73 75 76 76 81 79 79 77 77 76 76 77 79 80 81 81 82 82 83 80 81 90 92 91 88 88 87 86 86 84 82 83 83 82 83 83 82 82 81 82
43 48 54 65 69 70 66 60 68 70 79 81 78 76 73 78 79 76 76 77 77 79 79 78 82 84 89 89 89 85 86 85 85 84 83 83 82 83 83 84 83 83 83 82
47 45 45 57 64 71 73 52 68 68 70 77 75 63 64 74 77 77 77 78 79 81 80 80 80 81 83 88 89 85 86 85 84 85 84 83 83 84 84 84 84 84 83 83
47 45 48 58 68 69 54 51 65 67 67 66 62 64 68 74 74 75 77 78 79 79 78 78 80 81 79 80 83 88 87 80 81 83 84 84 84 84 84 83 83 83 82 83
44 45 40 64 65 55 60 64 65 65 65 64 66 68 69 70 71 73 74 75 80 78 77 79 79 80 77 78 81 81 79 80 81 80 83 81 80 81 82 82 81 81 81 81
46 46 57 60 61 67 68 63 63 62 65 65 65 65 66 66 68 71 71 73 77 77 77 77 77 80 77 77 79 81 79 79 79 79 81 80 79 78 80 81 81 80 80 79
45 52 55 61 65 66 66 64 65 65 65 65 63 65 65 65 67 68 70 71 75 76 75 75 75 75 75 76 77 78 78 77 76 78 76 77 78 81 81 80 79 79 77 77
46 51 51 56 55 58 59 61 64 67 67 65 64 63 63 63 63 67 68 70 72 72 75 74 75 75 75 75 76 76 77 78 77 77 76 76 79 76 80 81 79 79 78 79
37 47 46 47 53 54 54 56 61 62 64 66 65 63 63 62 63 66 67 68 69 71 74 74 74 72 74 74 75 75 75 77 76 77 75 76 76 73 52 54 54 52 50 66
41 47 48 49 51 53 52 56 61 62 63 62 64 63 62 61 61 64 66 67 67 69 73 75 75 75 73 74 74 74 72 75 76 74 76 78 77 78 67 56 47 47 49 48
49 47 44 47 45 53 57 59 62 64 64 64 63 63 63 62 62 63 65 66 68 69 72 75 75 75 74 75 74 74 73 63 71 72 71 73 72 71 71 66 66 63 50 51
50 51 48 51 52 52 55 56 56 59 61 62 63 61 61 60 61 64 66 67 69 69 69 71 73 74 76 74 72 72 74 69 69 67 69 69 68 67 69 67 65 65 61 53
52 52 51 50 52 52 51 54 55 57 58 59 59 59 60 60 60 64 64 66 67 66 68 70 69 71 73 73 72 70 69 67 68 69 67 68 68 67 66 65 64 62 59 58
44 45 48 50 50 51 52 54 57 57 58 58 57 57 58 59 59 62 63 67 65 61 61 63 65 71 73 71 72 71 70 70 70 69 68 68 67 67 66 66 63 62 59 56
47 47 48 47 47 49 53 57 56 55 52 55 56 55 55 55 57 56 57 60 61 60 61 62 67 69 71 73 75 76 71 70 70 70 68 67 66 66 65 64 63 62 60 59
48 47 48 47 47 48 50 50 50 50 51 51 51 50 51 51 51 51 52 54 56 56 56 59 63 66 69 70 74 74 71 70 68 67 66 62 62 61 61 62 62 61 60 61
49 49 49 48 48 47 46 49 50 49 50 50 50 48 47 48 49 50 50 47 48 52 59 58 59 62 64 66 69 68 68 66 64 62 61 61 59 58 57 53 57 57 58 58
50 49 48 47 46 47 47 47 48 46 47 48 47 46 46 47 48 48 47 46 48 51 54 56 56 57 60 61 63 65 68 66 64 61 59 57 57 57 56 56 55 54 54 54
54 51 50 48 47 46 47 47 47 47 47 46 47 47 45 45 46 47 47 46 47 50 50 52 53 56 57 60 59 60 61 66 65 62 59 58 57 56 56 55 53 53 51 50
56 54 52 51 49 47 48 48 48 47 46 47 45 45 45 45 45 44 43 48 48 49 48 50 53 54 54 54 55 55 56 58 59 60 59 57 56 56 54 52 52 51 50 49
53 54 54 54 54 51 48 49 51 50 50 50 48 48 46 44 45 47 47 49 51 50 49 51 52 53 53 52 52 52 52 52 53 54 58 54 58 56 54 53 51 50 49 48
54 55 54 54 53 52 52 53 54 53 53 52 53 54 54 52 48 50 50 51 52 52 53 54 55 56 59 57 54 52 52 52 51 51 52 53 53 54 53 52 51 52 51 49
53 56 55 54 53 54 53 53 52 53 52 52 52 53 54 54 55 55 55 54 56 54 55 57 57 59 59 60 60 59 58 57 56 56 54 54 54 52 52 52 50 49 49 48
55 52 55 55 57 57 54 52 51 50 51 52 52 54 54 55 54 54 54 55 55 56 55 57 58 57 58 58 58 57 57 57 52 57 57 55 53 51 50 49 48 49 49 48

GFSNGP_sfc_temp_042.txt.gz
Temp
41 48 53 55 63 67 64 68 60 64 62 68 69 73 71 74 75 78 85 87 86 86 86 85 85 86 84 84 83 82 80 79 78 79 80 79 78 79 80 79 78 80 78 78
39 54 57 59 66 66 69 70 64 63 64 71 72 73 71 72 74 74 82 87 87 87 87 85 85 85 85 84 83 83 80 79 80 79 79 79 79 77 78 78 79 78 78 78
34 50 58 52 58 65 69 71 70 60 66 69 65 68 67 70 76 74 75 82 87 87 88 88 87 87 85 85 85 83 81 81 80 80 78 78 79 79 77 78 78 78 79 79
35 44 42 56 64 64 60 60 61 62 67 68 69 69 70 71 71 74 76 77 76 78 80 79 82 88 88 86 85 83 82 81 81 80 79 79 79 78 79 79 78 78 79 79
33 41 51 55 56 57 54 54 61 61 71 71 72 71 68 71 72 70 71 72 74 76 76 76 81 88 88 87 85 84 83 82 81 81 80 79 78 79 80 80 80 80 80 79
37 38 38 46 57 67 64 45 61 62 61 66 69 57 58 67 71 71 72 72 74 76 76 77 74 78 86 86 85 84 84 84 83 82 82 80 80 80 81 81 81 81 81 81
41 40 43 51 57 69 45 47 60 62 61 60 58 58 62 67 69 71 71 72 74 74 72 73 75 75 76 81 85 87 86 86 83 83 82 83 82 82 82 81 81 81 80 82
37 38 33 55 53 46 51 60 61 59 60 59 60 63 64 66 65 69 69 71 73 74 73 73 73 77 74 75 78 78 78 78 81 82 83 83 82 81 82 81 80 79 80 80
37 38 50 56 51 55 56 56 55 58 60 60 61 61 62 62 64 66 68 70 72 71 72 74 74 73 71 71 74 76 75 76 76 76 77 78 79 79 80 80 80 79 79 78
37 47 47 52 56 56 54 53 55 57 60 61 59 60 60 62 63 64 66 67 69 69 69 69 71 72 71 72 73 73 73 75 73 73 74 75 79 79 80 78 78 79 77 77
37 42 45 52 54 52 54 54 55 57 59 60 60 59 59 59 60 63 65 65 66 66 67 69 70 70 71 72 72 71 72 72 74 73 72 73 69 68 77 79 78 78 77 77
35 43 43 43 49 52 51 51 53 54 56 59 60 60 60 59 59 59 62 63 63 64 65 67 69 70 71 71 70 70 70 72 73 73 73 74 67 61 51 49 49 52 56 66
43 49 48 48 49 51 50 51 53 54 56 56 62 63 62 57 57 58 60 62 62 63 65 67 68 70 70 71 71 70 68 69 71 71 74 74 74 67 62 58 48 46 48 50
49 49 46 46 44 52 54 56 57 58 60 59 59 59 61 56 56 57 61 61 64 65 66 67 69 69 71 74 70 69 70 62 67 70 71 72 72 68 65 65 62 59 52 50
48 50 47 48 49 49 51 53 52 53 56 59 58 57 56 55 55 56 60 63 63 64 65 66 67 68 70 71 69 68 69 70 69 67 66 65 67 68 68 67 64 62 58 53
48 49 48 46 47 50 50 49 50 50 55 58 58 57 56 55 55 55 59 61 60 55 57 58 62 65 68 69 68 67 70 65 68 69 67 67 66 65 65 65 62 60 60 59
43 42 44 44 46 49 52 49 49 50 53 53 52 53 54 55 54 53 54 58 58 59 58 59 60 62 66 68 68 67 68 68 65 68 66 66 65 62 63 62 61 58 57 53
47 47 46 46 45 47 48 49 49 50 50 50 50 50 51 50 50 48 50 56 57 56 56 56 59 63 65 68 70 69 69 66 65 63 62 62 61 61 61 60 60 59 58 56
48 47 47 46 46 46 46 46 47 49 49 49 48 49 49 50 49 49 49 49 50 50 51 56 58 60 60 66 69 69 67 64 62 61 60 57 57 57 57 57 57 56 56 58
48 48 48 47 47 46 45 46 46 46 47 47 48 47 46 47 49 49 49 46 46 48 54 53 53 55 56 60 65 65 63 63 61 59 57 56 56 55 55 51 55 55 55 55
47 47 46 46 45 46 46 46 46 44 45 46 45 44 45 46 47 47 46 45 46 48 53 54 53 52 55 57 59 62 60 59 59 57 57 56 55 55 54 53 51 51 50 50
47 47 47 46 45 44 46 46 46 44 44 44 44 44 44 44 45 46 46 44 46 49 50 51 52 54 53 56 56 59 60 59 58 57 57 56 55 53 52 52 50 50 49 48
47 47 47 47 46 45 47 46 46 45 44 44 44 44 43 43 44 43 42 46 47 47 49 51 52 53 53 52 53 54 55 56 55 56 55 53 52 50 49 48 49 49 48 47
47 47 46 49 48 47 46 47 47 47 47 47 47 47 45 44 44 46 47 47 47 48 48 49 51 52 52 51 51 51 50 50 50 52 54 51 53 51 49 48 47 46 45 44
48 46 46 46 46 46 47 48 49 48 48 48 49 50 52 50 45 47 48 49 49 47 48 49 50 51 50 49 50 50 49 49 48 48 49 49 50 50 50 50 50 49 47 46
46 45 45 46 44 45 46 47 46 47 47 47 49 51 51 52 52 51 52 50 51 53 52 49 48 48 47 47 48 49 49 50 49 48 48 48 48 49 50 50 49 48 46 46
46 46 45 45 45 45 46 45 46 44 45 46 46 49 50 51 51 51 51 52 51 53 53 55 55 54 54 53 53 52 51 50 48 51 51 51 50 50 49 48 47 46 45 43

GFSNGP_sfc_temp_045.txt.gz
Temp
36 40 42 42 42 46 47 58 57 60 58 66 65 67 66 68 71 75 83 84 85 85 84 84 84 84 82 81 80 81 79 78 77 77 78 77 77 77 77 77 77 77 75 76
34 42 44 41 49 52 54 60 60 59 60 63 62 63 65 64 68 74 81 84 85 86 85 84 84 83 82 81 80 80 78 77 78 77 77 76 76 76 76 76 76 76 77 76
27 41 44 44 50 54 58 53 55 57 58 63 61 63 62 63 64 70 81 84 85 86 85 85 85 85 82 81 82 79 78 78 78 77 76 76 77 75 75 75 76 76 76 77
28 35 38 50 55 57 55 55 56 55 60 63 63 64 65 66 64 65 68 78 85 87 86 86 86 86 84 82 80 78 78 77 78 77 76 76 76 75 75 76 75 76 76 76
31 31 48 50 50 48 46 49 57 55 58 64 67 67 64 66 68 66 66 68 71 78 80 79 84 85 83 81 80 79 78 77 78 78 77 76 76 76 77 76 76 76 77 76
33 32 36 44 51 57 59 41 55 57 57 58 63 54 55 64 67 67 69 70 70 72 75 78 79 84 82 80 80 78 79 79 79 79 78 77 77 77 78 78 78 78 77 77
32 32 39 49 51 58 40 40 52 53 54 57 53 54 62 64 64 67 68 69 72 71 69 70 73 84 83 82 81 84 82 81 79 80 79 79 78 78 78 78 78 77 77 78
35 35 34 51 51 43 45 53 53 51 52 53 58 62 62 61 62 65 66 68 70 70 70 70 70 73 70 72 73 77 78 79 79 79 80 81 78 78 78 77 76 76 76 77
35 37 48 51 47 51 54 51 51 50 53 57 60 60 59 58 60 63 64 66 68 68 69 70 71 71 70 69 72 73 74 76 77 78 80 81 79 78 77 77 77 76 76 76
36 43 43 48 52 52 51 50 54 55 55 57 57 60 61 57 58 60 62 63 66 66 66 67 68 70 69 70 71 71 71 71 72 72 74 80 81 80 79 78 77 77 76 75
39 44 45 50 51 52 51 51 53 55 56 56 58 59 56 56 56 58 59 62 63 63 64 65 67 67 69 69 70 70 70 70 71 71 69 71 66 66 75 78 76 78 78 77
35 44 42 44 50 52 50 48 50 51 52 55 56 59 59 55 55 56 58 59 62 63 63 64 66 67 68 69 70 68 68 68 68 70 70 70 64 60 49 47 46 49 53 67
42 46 47 50 51 52 49 50 50 52 53 53 56 59 60 54 54 56 59 60 60 61 63 64 66 67 68 69 69 68 67 68 67 65 71 70 66 65 59 55 48 45 45 48
48 48 45 49 47 50 52 54 54 52 56 56 57 60 60 56 55 55 56 57 61 62 63 64 66 66 67 67 67 66 66 60 66 67 70 72 69 64 62 63 60 58 49 47
47 48 47 49 50 50 50 52 51 51 52 54 56 59 59 55 55 54 56 59 60 60 59 59 61 64 65 66 67 66 66 66 65 64 64 66 68 65 65 64 62 60 59 54
47 47 47 45 46 49 49 49 49 50 52 53 53 57 58 59 57 55 55 55 56 53 53 54 56 59 61 63 65 66 64 62 62 64 64 66 66 65 64 62 60 60 60 59
43 41 43 43 44 45 46 49 50 51 50 52 53 54 55 56 53 54 54 54 53 53 51 51 52 56 59 62 63 65 64 63 62 63 62 63 64 63 62 61 60 59 57 53
44 45 44 44 43 44 44 45 46 48 48 50 50 51 51 50 50 49 47 51 52 51 51 52 53 56 58 60 64 64 63 61 61 60 60 61 61 62 62 61 60 59 58 55
45 44 44 45 45 45 44 44 44 46 46 48 48 48 48 49 50 49 49 48 48 49 51 53 56 55 55 58 64 64 63 61 60 58 58 56 58 59 58 57 57 57 58 57
45 45 45 44 46 45 44 44 44 44 44 45 46 45 45 46 46 48 48 46 46 47 52 54 51 51 54 57 61 60 60 60 59 57 56 57 56 54 53 50 53 53 53 52
43 44 44 43 43 45 45 45 44 43 44 44 43 42 43 44 46 46 45 45 46 49 52 54 53 52 53 56 59 58 57 57 56 56 55 55 54 53 52 51 50 50 50 50
45 43 43 44 43 44 45 45 45 44 44 43 43 43 43 42 44 45 46 44 47 50 51 51 52 54 54 56 58 58 57 57 56 55 54 54 53 51 50 50 48 48 47 47
44 45 44 43 43 43 46 45 45 45 44 44 43 43 43 43 43 42 42 47 48 49 49 49 51 52 53 51 51 53 52 51 50 49 49 48 48 47 47 47 47 47 46 43
43 43 44 45 44 44 43 45 45 45 45 44 45 44 44 42 44 46 46 48 48 48 48 48 49 50 50 50 50 49 49 48 48 48 48 46 46 48 48 47 46 45 43 41
44 43 43 43 42 41 41 44 45 45 46 45 47 48 47 47 45 48 48 48 49 48 47 48 49 48 47 47 48 47 46 46 46 46 45 44 44 44 45 45 46 45 45 44
42 41 40 41 41 40 41 41 42 44 44 44 46 47 48 50 49 49 50 50 50 48 47 46 46 46 46 46 46 46 46 46 46 45 44 44 44 44 43 43 43 44 45 45
41 43 42 41 41 41 41 41 41 40 42 43 43 45 45 47 48 48 49 49 48 50 49 48 46 46 45 45 45 44 44 43 43 45 46 45 45 45 45 45 45 45 44 44

GFSNGP_sfc_temp_048.txt.gz
Temp
35 37 40 40 40 42 40 43 40 54 55 60 64 66 65 65 65 67 72 75 77 78 80 81 81 78 78 79 79 80 77 77 76 76 76 76 76 76 76 75 75 76 75 76
31 40 41 40 45 46 47 47 48 51 54 62 62 62 61 61 62 62 66 72 78 79 80 81 81 81 78 78 78 79 77 77 77 76 76 75 75 74 75 75 75 75 75 76
26 37 39 39 46 50 50 51 50 50 53 57 59 59 58 59 61 62 63 70 77 80 82 83 83 82 79 78 79 77 76 76 76 75 75 75 75 74 74 74 75 75 75 75
26 33 30 43 54 57 51 50 49 52 54 60 60 61 62 62 60 64 65 65 77 83 83 83 85 85 81 80 77 76 76 75 76 75 75 75 75 74 74 75 74 75 75 75
29 31 40 49 48 46 47 46 50 48 51 57 61 64 61 64 63 65 67 67 70 79 79 79 82 81 79 78 77 76 75 75 76 76 75 75 74 74 75 75 75 75 76 75
32 30 33 41 48 53 54 41 51 49 49 52 60 55 57 63 66 65 68 69 68 75 75 77 76 80 78 77 76 75 76 76 77 76 76 75 75 75 76 76 76 77 76 76
30 31 36 44 45 53 43 41 50 50 51 54 54 57 61 63 64 66 66 68 70 69 72 75 78 79 76 76 76 78 78 78 77 77 76 76 76 76 76 76 76 76 76 77
31 31 33 45 48 42 44 49 49 49 51 53 57 60 61 61 60 62 63 66 68 70 69 70 73 78 75 74 75 76 76 76 76 76 78 79 76 76 76 76 75 75 75 76
35 34 42 44 45 48 49 47 49 50 53 55 56 58 60 58 58 60 63 64 67 67 69 70 71 74 73 72 74 75 75 75 75 76 77 78 76 75 76 76 76 75 75 76
35 39 42 47 51 51 51 48 52 54 55 56 55 58 59 60 58 58 61 63 65 65 66 67 68 70 70 72 73 73 73 73 73 74 75 77 78 78 77 76 76 76 76 76
35 41 45 49 49 50 51 52 51 54 55 55 55 56 58 58 58 57 59 62 63 63 64 66 67 69 71 72 73 72 72 73 73 74 73 74 72 72 77 79 75 77 78 78
35 43 42 44 49 50 49 49 51 51 52 55 56 55 58 58 59 56 57 60 62 63 64 66 67 68 69 70 71 71 71 71 70 73 71 73 66 62 49 48 48 49 53 67
41 45 46 48 50 51 48 50 52 52 52 52 55 56 57 58 58 57 57 59 60 61 63 64 66 67 67 68 69 69 69 70 71 67 73 70 68 67 64 56 46 44 44 50
47 46 44 46 45 50 51 51 52 52 54 53 54 56 57 58 59 58 59 57 60 61 60 61 63 66 64 66 67 67 68 58 69 69 71 72 69 68 67 66 66 62 48 47
46 47 46 47 48 47 50 51 50 50 51 52 53 55 56 56 57 58 59 59 59 60 58 58 59 60 60 62 65 67 68 69 68 67 68 70 68 66 68 66 64 61 59 54
47 46 46 45 45 46 46 46 47 48 50 51 51 52 55 58 58 58 57 55 55 55 55 55 56 57 58 60 61 66 68 61 63 67 67 68 67 66 64 63 63 62 62 60
42 40 42 43 43 44 44 44 44 45 47 51 51 51 53 53 54 52 52 52 52 53 53 52 52 55 58 60 61 66 68 67 62 66 66 66 65 63 63 63 62 59 57 54
43 44 45 44 43 43 43 44 44 44 44 47 49 49 48 48 48 49 50 52 52 52 53 53 54 56 57 58 60 65 67 66 66 65 65 65 64 65 63 61 60 58 57 53
44 43 43 43 43 44 44 43 44 44 44 44 45 45 46 46 46 48 49 48 47 47 50 52 56 55 54 56 60 65 66 65 63 62 63 59 62 62 61 60 59 58 57 55
45 45 44 44 44 43 42 43 45 44 44 44 44 43 43 44 46 46 47 47 46 48 51 54 55 54 54 56 60 65 64 63 62 60 60 60 59 58 56 52 56 55 54 53
45 45 44 43 42 43 43 43 42 43 43 44 43 42 42 44 45 46 44 44 47 49 50 51 52 54 55 57 60 60 60 60 59 58 58 56 55 54 53 53 52 51 51 50
45 44 44 44 43 42 44 44 43 43 44 44 44 44 43 43 44 44 45 44 47 50 49 48 50 54 54 56 58 59 58 57 56 55 53 53 51 51 50 49 48 48 48 47
44 45 44 44 43 43 43 44 45 44 43 43 44 44 43 43 43 42 41 45 47 48 48 48 50 51 51 50 51 51 50 49 48 47 46 46 45 44 44 45 45 44 44 44
43 44 44 45 44 43 42 44 44 45 45 45 46 46 46 44 46 46 46 48 48 48 47 48 48 49 49 48 48 48 47 47 46 45 45 44 44 43 42 42 41 41 42 42
44 44 43 43 43 42 40 42 44 44 44 45 45 46 49 49 45 49 48 48 48 47 46 48 48 48 46 46 46 46 45 45 44 44 44 43 43 43 42 42 42 41 40 40
42 42 41 42 42 41 42 43 43 43 43 44 46 46 47 48 49 50 51 50 50 48 47 47 46 46 45 44 44 44 45 45 44 44 44 43 43 43 42 42 44 42 42 43
42 42 42 42 42 42 43 42 43 42 42 43 43 45 46 48 48 49 50 50 50 50 49 48 47 46 45 45 43 43 43 43 42 44 44 44 44 43 43 44 46 47 47 45

GFSNGP_sfc_temp_051.txt.gz
Temp
45 46 45 45 47 51 49 56 55 64 65 73 77 80 82 83 79 79 80 83 84 85 84 84 85 85 85 88 86 87 84 85 83 83 83 83 82 82 83 83 83 83 83 83
40 47 46 43 49 52 53 54 54 57 59 72 73 74 74 72 72 74 76 78 80 84 85 84 85 84 84 85 85 85 82 83 83 82 81 81 81 81 81 81 82 83 83 83
36 46 44 42 51 54 56 57 59 56 66 66 68 68 67 68 69 69 72 74 76 79 83 86 86 85 84 84 85 83 82 83 82 81 80 80 81 81 81 81 81 81 82 83
36 39 31 53 60 62 55 53 56 57 59 61 70 69 69 68 66 67 69 71 74 79 82 87 90 91 87 87 83 82 81 81 82 81 81 81 80 80 80 81 81 81 81 82
32 33 42 51 51 50 53 50 55 54 57 61 67 70 70 67 66 65 67 70 74 80 84 88 89 89 85 85 83 82 81 81 81 82 81 81 80 80 81 80 80 81 82 82
33 29 32 40 49 54 55 48 54 54 55 60 70 66 63 65 65 65 68 70 76 81 90 89 88 90 84 83 82 81 82 82 82 82 81 81 81 80 81 81 81 84 82 83
34 30 36 40 46 57 44 46 52 53 54 59 60 63 64 64 64 67 69 70 79 84 86 86 87 87 83 83 82 84 85 84 82 82 81 82 81 82 81 81 83 81 81 83
35 30 30 43 46 47 49 56 52 52 54 56 59 61 62 62 63 64 67 71 75 78 80 85 86 84 82 80 84 84 84 83 82 82 84 84 81 81 81 81 80 80 80 81
36 36 43 45 44 51 56 54 53 51 54 56 57 58 61 62 63 64 65 69 75 77 77 79 83 84 81 82 82 82 82 82 82 82 83 84 81 80 81 81 83 81 83 83
36 41 43 45 48 53 54 54 55 54 54 56 55 58 58 62 62 63 65 67 74 76 74 74 77 79 80 81 83 81 80 81 81 81 81 83 84 84 84 84 83 84 84 84
37 42 46 47 47 50 51 55 55 55 54 55 55 56 57 60 62 63 62 65 70 71 72 73 76 76 78 79 82 82 81 81 81 83 80 82 84 84 85 86 81 85 86 87
35 41 42 43 47 50 51 52 54 53 52 54 54 54 57 59 64 65 66 66 69 70 71 73 74 74 74 75 76 79 80 81 82 84 73 81 84 75 49 50 49 50 53 71
40 44 45 46 48 49 49 52 54 54 54 53 54 55 56 58 63 63 67 67 68 68 69 70 73 71 71 71 75 73 72 74 78 74 81 80 81 81 79 61 46 44 44 51
46 45 43 45 43 48 49 51 55 54 54 55 54 56 58 58 61 65 64 66 68 70 68 68 69 68 68 71 72 74 76 59 80 82 83 77 76 77 81 79 78 72 51 50
47 46 47 49 48 47 48 48 48 47 49 53 56 54 55 57 59 61 62 63 66 67 65 64 65 63 65 68 70 73 77 79 80 80 79 76 72 72 76 80 80 68 63 54
49 48 46 46 46 46 45 44 43 44 46 49 51 53 55 57 56 58 57 59 58 59 61 60 61 61 63 65 67 73 77 65 67 80 74 73 70 69 74 78 75 74 73 71
45 43 43 43 43 44 44 46 45 44 45 46 47 50 51 51 53 56 54 56 58 59 61 60 57 60 62 64 65 70 74 79 64 79 77 74 70 68 71 73 70 69 69 64
49 49 48 47 46 44 43 44 45 45 44 46 47 48 49 48 48 49 50 53 54 56 57 57 58 59 62 63 65 67 71 76 79 79 79 72 71 70 67 65 61 60 58 55
50 49 49 49 49 48 46 44 44 45 47 46 45 45 46 47 47 48 50 49 49 49 50 54 55 59 61 63 62 67 72 76 77 77 77 65 70 70 67 62 60 59 59 60
51 50 50 50 51 50 49 49 50 46 45 46 46 45 44 45 46 46 48 46 47 48 51 52 52 55 59 62 61 67 69 72 74 74 68 69 68 67 66 57 59 58 56 56
52 52 51 50 51 51 51 51 51 49 48 45 44 43 43 44 46 46 44 43 47 49 50 51 52 52 55 58 60 66 65 64 67 64 63 63 60 60 58 58 56 55 54 53
55 54 53 53 52 52 53 53 53 51 51 49 48 46 45 44 44 45 47 45 47 49 49 49 50 52 53 54 53 58 59 59 58 58 57 56 56 54 53 52 51 52 52 52
56 55 55 54 54 53 55 55 54 54 52 52 51 51 51 51 50 48 44 47 47 48 48 48 49 50 49 49 49 49 49 48 47 46 46 45 45 45 45 45 44 46 44 48
57 56 54 56 56 55 53 54 55 55 55 55 55 54 53 54 55 55 54 51 48 48 47 48 48 49 48 46 45 45 44 44 43 43 43 42 42 41 41 41 41 42 43 42
56 56 56 56 56 56 54 55 56 56 55 56 56 58 58 58 56 58 57 55 49 49 47 48 48 47 46 46 46 45 44 44 44 44 43 42 42 41 41 41 41 41 40 40
55 58 57 54 55 57 57 57 56 56 56 56 58 58 60 60 60 59 58 55 55 51 49 46 46 45 45 45 45 44 44 44 44 43 43 43 42 42 42 41 42 42 42 43
56 49 56 56 57 56 57 55 56 55 54 56 56 58 58 60 59 58 54 58 58 56 54 52 48 46 45 45 44 44 44 44 42 43 43 43 43 43 42 42 43 43 42 43

GFSNGP_sfc_temp_054.txt.gz
Temp
55 56 57 55 55 57 56 62 60 69 69 78 83 85 88 91 92 88 90 92 94 95 95 94 94 94 92 94 95 96 94 92 91 89 90 89 88 88 88 88 88 88 88 89
48 55 56 54 58 58 58 60 62 65 65 84 84 83 83 87 85 85 87 88 91 93 94 94 93 93 92 92 94 94 92 92 91 88 88 88 87 87 87 87 87 87 88 88
44 54 53 47 56 58 61 64 64 60 70 81 78 80 79 80 81 81 82 84 86 88 91 94 95 94 92 92 94 92 90 90 90 88 86 86 87 87 86 86 87 86 87 88
44 49 37 57 68 69 64 65 70 70 73 79 78 81 78 78 76 76 79 80 82 87 89 91 96 100 96 94 90 90 89 88 88 87 86 87 86 86 85 87 86 86 86 87
41 44 51 55 56 56 58 63 68 67 71 72 76 79 78 76 76 76 76 78 80 84 86 87 92 95 96 93 91 89 88 87 88 88 86 86 85 85 86 86 86 86 87 86
43 34 34 41 46 53 59 46 61 63 65 69 75 70 79 72 73 74 75 76 77 82 86 89 89 95 95 93 90 88 88 88 88 88 87 86 86 85 87 87 87 90 88 88
39 36 45 47 44 47 39 48 57 60 62 67 71 69 69 68 67 68 70 74 81 86 87 89 92 96 94 92 90 90 90 90 88 88 87 87 86 86 86 86 88 86 87 88
38 34 32 47 42 38 44 56 55 56 59 60 65 66 64 64 63 64 66 73 85 87 91 94 94 94 90 88 90 89 89 89 88 87 89 90 86 85 85 85 84 85 84 87
42 43 46 46 43 47 50 51 53 54 56 56 59 59 61 62 62 62 65 68 78 83 86 90 92 92 87 87 89 88 88 87 86 86 87 89 85 84 86 85 88 86 88 88
38 47 43 45 48 48 50 51 55 56 54 56 55 58 60 60 62 63 64 64 67 73 74 76 82 87 88 88 88 87 85 85 86 85 85 87 90 89 89 90 88 91 90 91
37 41 42 45 47 47 50 54 55 56 54 54 54 55 56 57 59 63 63 64 65 64 70 71 74 76 79 81 87 86 85 87 87 89 86 87 89 89 91 92 83 92 94 95
35 40 41 43 47 49 50 51 55 54 53 56 55 54 56 57 60 64 64 64 63 64 66 68 71 76 78 81 81 83 85 88 90 92 89 90 89 85 50 50 49 49 51 69
39 43 45 46 47 49 49 52 53 52 54 55 55 56 57 58 60 63 66 66 67 67 65 67 68 69 74 77 81 82 83 84 87 84 88 86 84 83 80 63 48 47 47 50
46 45 43 45 43 47 49 52 53 51 52 56 55 58 58 59 61 64 63 67 70 69 67 67 67 68 72 75 77 79 78 60 88 88 78 77 74 75 71 72 83 80 53 53
48 46 47 49 49 48 51 51 50 47 47 50 52 54 58 60 58 58 61 66 67 68 67 67 67 66 70 73 75 79 83 85 88 83 79 70 77 75 81 80 84 88 79 58
52 50 49 47 46 47 48 49 47 47 47 48 49 51 53 57 61 60 60 62 65 64 66 65 65 66 68 70 73 79 82 67 72 85 81 75 74 73 76 78 83 85 83 78
51 47 47 47 47 45 45 46 47 47 48 48 48 51 53 52 54 56 59 60 61 62 62 63 63 65 69 71 72 77 80 83 69 90 85 78 73 70 72 76 81 83 82 68
56 55 54 52 49 48 47 46 45 45 45 47 49 49 47 47 48 49 52 56 59 59 59 58 60 61 68 70 70 74 79 82 85 87 83 81 76 73 71 75 74 69 65 66
57 56 57 55 55 54 53 51 47 46 46 47 47 46 47 47 47 48 51 49 49 50 52 58 56 62 66 67 65 73 78 81 83 87 85 70 79 77 74 73 76 75 76 77
57 58 58 57 57 57 56 56 54 48 47 47 47 46 45 46 48 48 50 49 48 49 52 54 57 61 63 66 62 72 78 79 78 80 75 78 79 75 72 64 69 70 69 69
60 59 58 58 58 59 59 59 57 55 55 51 48 46 46 47 47 47 47 47 49 52 51 52 53 54 61 61 64 71 75 73 67 67 68 67 68 69 69 67 66 64 64 65
62 61 60 60 60 59 60 61 60 59 57 55 54 55 53 53 53 51 49 46 49 50 51 50 50 51 51 52 52 53 54 56 57 54 52 52 54 54 55 57 58 58 58 58
64 62 61 61 60 60 62 62 61 60 58 58 57 57 57 57 57 54 47 48 48 48 51 49 49 49 49 48 47 47 46 46 45 45 44 44 43 42 42 42 43 45 50 52
64 63 62 63 62 61 58 60 61 61 60 61 61 61 60 56 56 56 59 49 47 47 47 49 48 48 48 45 45 44 44 44 44 44 43 42 42 42 41 40 40 40 43 43
63 63 63 62 62 61 60 61 62 61 61 61 62 63 63 64 58 56 58 56 48 47 47 47 48 47 46 45 45 44 43 43 43 43 43 43 42 41 40 40 40 40 40 40
62 63 63 61 62 63 64 64 62 62 63 62 63 65 64 63 61 58 58 56 57 51 47 46 45 46 46 45 44 43 43 43 43 43 43 43 42 42 42 41 41 40 40 41
63 47 64 63 65 64 63 61 61 61 61 61 60 63 63 62 61 59 55 58 59 58 57 52 50 49 52 54 51 49 47 45 43 43 44 43 42 42 43 42 42 42 42 42

GFSNGP_sfc_temp_057.txt.gz
Temp
61 63 63 61 63 66 64 66 61 70 73 80 86 88 91 93 95 95 97 99 101 102 100 99 98 97 96 98 98 99 95 95 92 91 91 91 90 90 90 90 89 89 89 90
53 60 61 57 62 63 64 65 65 67 67 82 84 86 89 91 91 91 92 95 97 99 100 99 98 97 96 96 98 97 94 94 93 90 89 89 88 88 88 89 89 88 89 89
47 58 58 52 60 63 65 68 68 62 71 80 80 80 85 89 90 89 90 92 93 95 97 100 101 99 98 95 97 96 93 93 92 90 88 88 89 88 87 87 88 87 88 89
42 49 39 60 71 69 66 69 72 72 74 77 79 79 81 86 83 84 86 87 89 92 95 97 102 104 100 99 93 93 92 93 91 90 88 88 88 87 87 88 87 87 88 88
39 42 52 59 61 55 45 56 70 73 75 79 82 84 81 86 83 82 84 85 86 90 91 91 95 99 100 99 95 93 93 91 91 91 89 88 87 86 88 88 88 88 89 88
42 38 35 55 57 58 58 52 72 71 75 77 77 71 76 76 77 78 80 83 84 86 88 90 90 94 97 98 97 91 92 92 92 91 90 88 88 87 88 88 88 91 90 90
40 39 49 56 57 60 41 46 50 65 69 73 71 71 72 73 72 74 75 77 79 84 87 88 91 93 91 95 96 96 95 94 92 91 89 89 88 88 88 88 89 87 89 90
41 37 35 55 57 46 46 45 47 57 62 64 68 69 68 69 65 67 70 70 74 81 90 93 94 93 91 89 95 95 93 92 90 89 91 92 87 87 87 87 86 87 86 89
48 46 53 52 50 55 51 45 46 54 59 60 62 64 62 61 62 65 64 64 68 74 87 91 93 95 90 89 94 93 91 89 89 89 90 90 87 86 87 87 88 87 89 88
43 49 45 46 50 50 48 46 50 55 58 58 57 62 59 62 60 63 62 61 64 66 71 77 80 82 90 92 93 90 88 88 89 88 87 90 91 90 90 90 88 91 90 91
37 41 42 46 46 47 48 50 53 55 56 56 56 58 57 57 56 62 61 61 62 62 63 66 69 71 75 78 89 89 88 89 88 89 87 88 90 91 92 93 88 93 95 96
35 40 40 42 46 47 46 50 51 51 53 55 56 55 57 55 57 61 60 61 60 61 61 62 64 65 67 71 77 82 82 86 90 91 90 91 91 85 52 57 53 54 54 69
40 43 44 46 47 47 47 50 50 50 50 54 55 56 57 56 59 59 61 60 61 61 62 62 65 64 65 68 70 80 81 84 92 88 92 92 91 89 85 65 50 50 50 54
46 44 42 45 43 46 48 49 50 49 50 52 52 57 58 58 58 58 58 61 64 63 61 61 61 61 64 66 67 72 81 66 85 88 88 88 87 87 89 87 87 87 55 58
54 49 47 49 48 47 48 48 48 46 48 49 52 53 55 56 56 57 60 63 65 64 62 62 62 62 65 66 65 70 71 76 75 81 85 83 81 81 87 83 83 80 73 61
58 55 54 50 47 46 46 46 45 45 46 48 49 52 52 55 55 55 58 61 61 59 61 61 62 64 67 69 67 69 72 67 74 84 83 82 84 82 86 82 80 66 70 81
54 51 52 53 51 49 47 46 46 46 47 47 48 50 51 50 52 52 53 57 59 60 61 61 60 61 64 69 67 69 70 76 76 82 75 81 80 73 75 77 79 82 83 68
58 58 57 57 56 54 52 49 46 47 46 48 49 48 48 48 47 49 50 54 55 54 55 58 59 60 66 68 65 69 75 79 82 81 84 85 79 78 76 77 85 80 76 68
60 58 58 57 57 56 57 54 49 48 49 50 50 50 49 49 49 49 51 49 49 51 53 58 57 63 63 65 63 67 74 78 85 85 79 71 84 81 77 79 81 81 79 77
59 59 60 59 59 58 57 58 57 55 52 54 55 54 53 54 53 51 49 47 48 49 54 54 56 59 60 61 59 67 68 73 77 80 79 77 70 74 71 62 65 67 69 77
61 59 58 61 60 62 60 59 58 55 56 55 54 52 52 52 54 51 46 45 48 52 52 52 53 53 55 55 59 62 68 74 66 63 65 72 73 66 65 65 62 61 62 61
65 63 59 60 62 61 63 63 62 60 57 56 56 56 55 54 54 52 48 45 49 50 50 50 50 50 50 50 50 50 50 52 52 51 49 50 51 52 51 51 54 55 54 57
65 64 63 61 61 63 64 64 64 63 61 60 59 56 56 57 55 55 45 47 49 49 50 48 49 48 47 46 45 45 45 45 44 45 44 44 43 43 42 44 45 45 46 46
60 64 64 65 64 63 61 63 64 63 63 64 64 64 60 59 60 59 53 49 47 48 48 50 49 49 48 46 44 43 43 43 43 44 43 42 42 42 42 42 41 42 44 44
64 64 61 63 63 64 64 64 66 65 65 64 65 65 64 64 61 61 60 53 48 47 46 48 50 51 52 50 46 45 45 43 43 43 43 43 42 41 41 41 42 42 43 42
61 63 62 64 65 66 67 66 63 65 64 64 65 66 65 64 65 63 62 59 59 53 57 57 56 55 56 56 53 52 49 46 45 44 43 43 43 43 43 43 43 41 42 45
65 52 66 62 63 65 66 64 64 63 63 64 62 65 63 65 64 61 57 63 61 61 61 60 62 58 60 59 59 60 58 54 48 50 48 44 43 43 44 43 43 43 43 45

GFSNGP_sfc_temp_060.txt.gz
Temp
58 61 63 63 63 66 65 67 63 69 71 78 77 75 77 85 87 94 94 93 96 95 91 93 92 91 92 94 93 94 90 88 86 85 85 85 84 83 84 84 85 85 84 85
52 59 61 59 63 64 65 66 68 71 68 80 80 78 79 80 77 78 92 95 95 94 93 88 92 92 92 92 93 93 89 88 87 85 84 84 83 84 83 83 84 84 84 84
42 55 55 51 59 62 64 67 67 62 70 77 75 77 80 81 78 71 84 91 87 90 92 77 73 79 92 92 93 91 89 88 86 85 84 83 84 83 83 82 84 83 83 84
41 46 33 54 67 69 65 67 71 70 72 75 76 78 82 84 78 69 76 84 85 89 89 87 72 73 96 95 90 90 88 88 87 86 84 84 83 83 83 84 83 83 83 83
37 39 47 54 62 58 56 61 70 61 68 72 78 80 78 73 72 67 66 74 84 87 88 86 88 89 91 95 91 90 89 87 87 87 85 84 83 83 84 84 83 83 84 83
42 36 35 53 57 63 63 51 60 58 56 58 67 64 62 70 74 70 66 75 78 81 82 85 86 90 89 91 92 88 89 89 89 87 86 84 83 83 84 84 84 86 85 85
41 37 46 53 59 63 45 50 56 58 56 54 57 58 67 72 69 69 69 69 73 74 77 80 86 89 85 87 88 92 91 91 89 88 86 86 84 84 84 84 84 83 84 85
41 37 34 58 57 49 51 57 58 55 57 53 57 63 67 67 66 64 66 65 67 68 73 80 83 86 84 83 87 89 90 89 88 87 90 90 84 84 84 83 82 82 82 84
43 46 51 53 52 56 56 55 56 55 55 54 53 61 63 64 64 63 63 62 64 64 67 69 73 77 81 85 86 87 89 86 87 87 87 87 85 83 84 83 84 83 84 83
41 50 44 51 54 54 53 52 54 55 53 51 53 61 61 63 62 59 62 61 62 63 62 63 66 71 75 76 84 86 86 85 86 86 85 86 88 86 85 85 84 85 84 85
38 42 43 48 47 47 49 51 52 51 53 54 58 60 60 61 59 57 60 60 62 61 59 60 63 67 70 72 75 85 87 87 86 87 84 85 86 86 86 87 85 85 87 87
35 40 39 40 46 47 45 46 47 50 51 55 58 57 58 57 56 58 58 59 60 60 59 60 62 63 66 69 68 74 86 87 87 88 87 86 85 78 54 60 55 58 59 80
39 42 43 45 46 47 45 47 49 49 50 52 56 56 56 56 56 57 58 58 58 60 59 59 59 60 62 66 67 69 73 83 87 83 87 84 84 82 78 64 49 48 50 55
49 46 42 45 42 46 47 47 49 49 50 51 52 53 52 54 57 56 56 57 58 60 59 59 59 58 59 62 63 65 70 65 78 83 85 83 84 83 84 80 78 75 52 55
53 51 49 48 47 46 47 47 46 46 47 48 52 51 51 51 51 52 54 56 58 58 57 57 56 55 58 60 62 64 64 66 70 72 71 70 80 83 83 84 84 83 71 60
57 57 54 50 48 46 45 45 44 44 46 47 47 50 50 51 50 50 51 53 53 52 53 54 54 55 57 61 61 60 62 62 64 69 72 70 74 71 73 76 79 77 78 76
55 52 53 53 51 47 45 45 45 45 46 46 46 48 49 49 49 49 50 53 54 53 53 54 54 56 58 60 60 60 60 63 64 67 70 71 71 73 72 78 75 71 74 65
57 57 56 56 55 53 49 47 46 45 45 47 48 48 47 47 47 48 47 49 50 51 52 54 55 57 61 62 58 59 61 64 68 72 71 72 73 74 75 73 78 73 69 65
60 57 58 59 58 56 55 52 51 50 48 49 49 47 47 48 47 47 49 47 47 46 49 53 54 57 58 59 59 62 68 70 72 67 70 66 68 65 63 64 65 68 70 72
61 61 60 59 61 60 57 58 57 56 56 52 51 50 49 49 49 48 48 45 46 46 49 51 51 52 53 56 58 63 67 63 65 66 64 68 68 65 60 56 59 59 61 64
61 62 61 61 60 62 63 60 59 57 58 57 55 52 49 51 50 47 45 43 46 49 50 49 48 48 49 51 53 55 55 55 51 50 52 58 56 58 63 64 59 58 58 60
64 62 61 63 62 62 63 64 62 59 59 58 58 57 53 50 50 48 46 44 47 49 49 48 47 48 47 48 46 47 47 46 46 46 45 44 46 46 46 48 50 51 55 55
64 64 63 63 63 63 64 64 64 62 61 60 57 57 54 54 55 51 44 46 49 49 51 50 49 49 48 46 45 44 44 43 43 42 42 42 42 41 41 41 43 43 44 46
61 61 62 65 65 63 61 62 63 63 63 62 59 60 59 55 52 53 51 48 47 49 51 52 53 52 49 47 45 43 43 42 43 43 42 41 41 41 41 40 40 40 41 43
53 59 60 63 60 62 64 64 65 62 63 61 58 62 61 62 56 55 56 51 48 52 54 52 52 53 55 54 49 47 46 44 43 43 43 43 43 42 40 40 41 40 40 41
64 54 54 62 64 66 66 66 63 63 64 61 61 62 64 61 62 59 58 57 56 54 60 60 58 58 57 57 55 54 52 50 48 46 45 43 43 42 42 42 42 41 40 40
60 47 63 62 66 64 65 64 63 62 62 63 58 61 63 61 62 61 58 61 60 62 62 64 64 61 62 60 58 56 55 54 49 51 50 47 46 44 43 43 43 43 43 43

GFSNGP_sfc_temp_063.txt.gz
Temp
48 53 54 54 55 58 54 52 44 53 58 60 64 68 71 75 75 73 72 75 75 78 77 71 78 77 86 89 89 88 83 82 81 81 82 81 80 79 80 79 82 78 79 77
43 53 53 51 55 56 59 59 58 58 58 67 70 70 71 74 74 70 66 66 70 75 74 78 77 76 82 89 89 89 86 83 83 82 82 81 80 80 78 79 80 82 80 79
33 47 48 40 51 54 57 59 57 51 58 64 59 67 69 65 66 65 65 65 67 73 69 71 71 75 73 78 87 88 87 84 83 82 81 80 81 80 78 79 80 79 81 81
32 37 28 45 57 59 57 59 61 60 55 55 55 62 63 66 64 62 63 64 65 67 69 71 69 71 70 70 72 75 84 84 83 82 81 81 81 80 80 80 80 81 80 80
30 31 41 48 53 52 48 48 54 52 53 54 57 62 60 65 65 62 62 64 64 66 66 68 74 70 72 73 72 72 80 83 83 83 81 81 80 81 81 81 80 81 82 80
34 28 29 43 56 60 57 40 54 53 52 51 54 47 51 61 64 63 64 66 63 64 68 68 72 73 72 71 72 76 85 85 84 84 83 81 81 82 83 83 83 82 82 82
34 32 39 51 57 59 39 38 51 53 51 51 45 48 53 62 61 64 63 63 64 64 64 67 69 69 72 72 79 75 82 84 84 84 84 83 83 83 83 82 82 82 81 82
35 31 29 48 51 41 44 48 50 51 51 50 51 52 55 59 60 60 61 62 64 61 62 66 66 65 66 69 71 77 81 78 81 84 85 84 82 82 82 82 81 80 80 80
36 35 42 47 46 49 48 46 47 46 49 50 50 51 52 56 57 59 60 61 62 60 62 64 64 64 64 66 68 70 75 79 78 83 84 86 81 81 80 81 80 80 80 79
37 44 41 43 48 48 48 47 49 49 50 49 49 52 53 57 56 58 59 59 61 58 60 59 62 64 64 65 66 66 69 78 81 83 83 85 84 83 82 81 80 80 80 80
37 42 41 45 44 46 46 48 48 50 49 49 50 52 53 54 54 57 55 59 59 58 59 60 60 60 63 63 64 64 67 76 80 84 80 84 85 83 83 84 82 82 82 82
33 41 39 39 44 47 45 45 46 46 48 50 51 50 53 53 53 55 57 57 57 58 58 58 60 59 60 60 60 62 63 71 80 84 82 84 82 69 52 57 58 60 63 77
40 44 43 44 46 47 44 46 47 47 48 47 50 52 54 53 53 56 57 55 56 57 57 57 58 57 58 58 59 60 61 64 68 77 82 81 80 80 72 61 49 47 49 60
47 46 43 45 42 46 45 46 47 48 48 48 48 51 52 52 52 53 51 53 56 56 54 54 54 55 56 57 58 60 59 58 63 68 74 77 78 79 77 72 70 66 53 53
47 49 47 47 47 46 46 46 45 44 45 46 48 49 50 49 48 49 49 51 53 52 52 52 53 52 54 55 57 58 59 60 61 64 70 70 74 76 76 73 73 69 61 57
52 52 49 49 46 46 46 44 43 43 44 46 46 47 48 49 49 49 49 49 49 47 49 50 50 51 53 55 57 56 57 59 59 62 68 69 70 71 71 73 73 69 68 65
49 47 48 48 47 46 44 45 44 44 45 46 45 47 48 48 48 47 47 48 49 47 48 48 49 52 53 55 54 54 55 58 60 66 66 68 68 68 69 69 69 68 68 65
52 52 52 53 50 46 46 46 46 47 46 47 47 47 46 46 45 45 46 47 47 47 47 47 49 51 51 52 53 54 56 59 62 65 68 68 67 68 68 68 68 66 66 62
56 53 54 55 55 53 49 48 48 48 48 48 48 46 46 46 45 45 46 45 44 43 44 47 50 49 49 51 55 57 55 56 58 59 64 61 61 62 62 62 63 64 66 66
55 57 57 55 56 55 51 53 52 51 49 49 48 47 46 45 45 45 45 43 44 44 46 47 46 45 48 49 52 51 51 49 50 50 53 54 60 59 58 56 58 59 61 60
57 57 56 53 53 56 53 53 53 52 52 51 49 46 46 46 46 44 43 42 44 46 46 48 46 45 46 47 47 47 46 46 45 44 45 46 47 48 49 49 49 51 54 56
53 52 56 56 55 54 55 55 53 53 54 52 50 48 46 46 46 46 45 43 45 49 47 45 45 48 46 46 44 44 44 43 43 43 42 42 42 42 43 44 45 44 44 44
51 49 52 53 54 55 56 55 56 56 52 53 50 50 49 48 48 44 43 46 46 48 49 47 50 49 48 43 44 43 43 43 42 41 41 41 41 40 40 40 41 43 43 43
54 54 55 57 58 56 54 53 55 56 51 52 53 53 50 48 46 47 47 48 48 48 49 49 51 51 49 44 43 43 42 42 42 43 42 41 40 41 41 40 40 40 41 41
54 55 54 53 55 53 55 55 53 54 53 52 53 55 52 51 49 49 49 48 49 48 49 52 53 53 51 49 46 45 44 44 43 43 42 42 41 41 40 40 39 39 40 40
51 51 50 54 54 56 56 55 53 53 53 52 51 53 54 53 51 51 51 52 53 52 51 49 50 50 50 50 49 48 47 46 45 44 43 42 42 42 42 42 41 41 41 41
46 47 48 52 57 56 55 53 55 52 52 52 50 53 52 53 53 53 53 53 53 56 55 54 52 52 51 50 49 49 47 45 45 45 44 42 43 43 42 42 42 42 42 42

GFSNGP_sfc_temp_066.txt.gz
Temp
40 47 49 49 49 51 46 43 39 47 49 54 56 61 63 67 66 65 64 66 66 68 72 72 73 73 75 80 83 81 80 79 78 79 79 79 79 79 78 74 77 77 76 77
37 48 48 45 50 51 52 52 49 51 48 52 57 61 60 61 62 61 62 64 66 67 68 69 75 73 72 72 77 82 80 79 80 79 79 78 77 78 77 77 77 76 75 77
27 42 43 37 44 48 49 50 48 42 45 52 52 57 57 57 59 59 60 63 63 63 64 65 68 69 70 71 71 82 80 80 80 79 78 78 78 77 77 77 78 78 77 76
28 34 25 41 51 53 49 49 50 49 50 51 52 55 57 59 57 58 59 60 60 62 63 66 67 70 70 72 72 72 74 80 80 80 78 78 78 77 77 78 77 78 78 79
28 28 36 44 50 49 45 41 50 47 49 51 53 56 53 56 60 59 59 61 61 63 63 64 67 68 70 71 69 69 72 74 79 81 79 79 78 78 78 78 77 78 79 78
31 26 25 38 46 55 52 35 49 49 48 47 49 42 46 53 58 60 61 62 60 63 64 65 66 65 68 69 68 67 71 72 76 81 81 79 80 79 80 80 79 79 79 80
30 28 35 43 47 52 35 35 45 47 45 45 41 44 50 54 55 60 61 62 62 60 62 64 64 62 64 66 67 68 70 73 76 81 82 82 81 81 81 80 80 79 79 80
33 28 27 45 46 38 42 43 44 44 44 43 46 48 50 52 53 55 59 61 60 57 58 62 63 60 61 62 63 66 66 67 70 76 82 84 82 81 81 80 79 79 78 78
33 36 43 45 43 47 44 41 42 42 46 44 47 46 48 49 51 53 55 58 60 57 57 59 63 63 61 61 62 63 64 65 67 73 78 78 82 81 80 80 80 78 78 78
33 40 40 42 44 44 44 44 48 48 48 48 45 46 48 49 51 52 53 53 58 57 58 58 60 61 62 63 62 60 61 63 65 69 78 80 81 82 81 80 79 80 78 78
33 37 39 42 44 43 44 46 48 48 48 46 48 47 48 48 50 51 52 53 55 55 55 57 58 59 60 61 60 59 60 61 64 69 74 81 83 82 82 83 81 80 81 80
29 37 37 40 43 44 43 43 46 46 46 48 49 48 48 48 52 51 52 53 53 57 55 54 54 57 57 55 56 56 58 60 62 63 67 77 82 71 53 56 59 58 61 74
38 41 41 42 44 46 44 45 46 46 47 46 48 49 49 49 51 52 53 55 51 54 53 51 52 53 55 54 54 55 56 58 59 60 65 73 79 78 73 60 49 51 52 56
43 42 40 42 41 47 46 46 47 47 47 47 47 49 50 50 51 51 50 51 54 51 51 49 49 50 52 53 53 53 57 55 58 59 61 67 74 80 77 75 71 69 51 55
44 44 43 43 44 44 46 44 44 44 44 46 48 47 48 48 48 48 49 51 51 49 47 48 47 47 50 51 53 52 54 56 57 58 59 61 67 72 74 75 74 73 62 54
47 46 45 43 44 44 44 44 43 44 45 45 46 46 47 48 48 47 48 48 47 45 46 46 47 48 50 51 51 52 54 55 56 57 59 62 66 70 72 71 70 68 68 69
42 42 43 44 43 43 42 43 43 44 46 45 45 46 46 46 46 46 46 47 47 47 46 46 46 50 48 49 49 51 52 54 57 60 62 64 67 69 71 72 71 70 67 64
49 48 48 47 46 44 44 44 44 45 46 47 47 46 46 44 44 44 45 45 46 46 46 46 48 49 47 47 51 51 51 51 53 52 59 62 62 66 69 71 68 66 64 62
53 50 50 51 50 48 46 47 44 46 47 47 46 44 45 44 44 44 45 43 43 42 44 46 50 47 46 49 49 48 48 48 49 48 50 54 59 60 60 66 66 65 65 64
52 53 52 51 51 50 48 48 47 47 47 46 46 45 43 43 44 44 44 43 43 44 46 47 46 45 46 47 49 45 45 45 46 46 45 47 48 48 52 53 60 61 62 61
52 52 51 50 49 51 49 49 49 49 49 47 45 44 43 43 44 44 43 41 44 47 47 48 46 45 45 45 45 44 44 43 42 43 42 43 43 43 44 46 48 49 50 52
49 49 48 50 49 49 49 49 48 49 49 48 47 46 44 43 45 44 44 42 44 48 46 45 45 48 45 46 43 43 43 42 41 41 40 40 40 40 40 40 41 42 44 45
48 49 48 51 47 50 49 48 48 49 48 47 46 45 44 43 44 43 41 45 45 46 46 46 49 48 47 42 42 41 42 42 41 40 40 40 40 40 39 39 40 40 40 41
45 45 46 50 47 49 47 47 47 47 48 48 47 47 45 43 44 46 46 47 48 48 47 48 49 48 46 43 42 41 41 40 41 41 41 40 40 40 40 40 40 40 41 41
47 46 45 45 46 46 47 46 46 44 45 45 47 48 48 47 45 48 48 48 49 49 48 51 53 51 46 44 44 42 41 41 41 41 41 41 41 40 40 40 40 40 40 40
45 45 46 46 46 46 47 45 43 43 43 42 43 47 47 47 47 47 48 50 51 50 49 49 49 48 47 47 46 46 45 43 42 42 42 42 42 42 41 41 40 40 40 40
43 44 44 46 47 48 47 47 48 45 44 43 43 44 46 48 48 48 48 49 49 52 50 50 49 48 48 47 46 46 45 44 43 44 43 43 43 42 42 42 42 42 42 41

GFSNGP_sfc_temp_069.txt.gz
Temp
38 46 45 44 45 47 41 41 37 43 42 47 51 55 55 58 60 62 61 62 62 62 64 66 68 71 73 73 75 76 76 77 76 77 78 77 77 77 74 71 74 74 74 73
36 45 45 42 46 48 48 48 46 47 43 49 53 56 55 55 57 58 59 60 61 62 64 65 66 67 68 71 72 77 77 76 77 77 76 76 76 76 76 76 72 71 73 75
27 39 41 35 42 44 45 46 45 41 42 49 49 52 51 53 55 56 57 58 59 60 62 63 64 67 67 69 70 72 77 77 77 75 75 76 76 75 75 76 76 75 74 73
27 31 25 39 47 50 46 47 47 46 47 49 50 52 52 53 51 55 57 57 58 60 60 62 65 67 67 69 69 71 72 77 78 77 74 75 76 75 75 76 76 75 76 76
27 26 34 42 45 44 40 39 47 44 47 48 50 52 50 53 54 54 56 58 58 60 61 63 64 64 66 70 69 68 70 70 74 78 76 76 75 76 76 76 75 75 76 76
28 25 25 37 44 49 46 35 46 46 44 44 46 40 47 50 53 53 55 59 59 60 62 62 62 62 64 65 65 65 67 69 71 72 76 76 76 77 77 75 77 77 76 77
27 25 33 41 44 47 33 33 42 44 42 41 38 42 46 50 51 53 54 57 61 60 60 62 62 61 61 62 61 63 66 67 67 69 70 72 78 79 78 78 78 76 76 77
32 27 25 44 43 37 39 39 41 42 42 41 42 44 47 49 48 50 51 54 60 58 59 60 61 60 59 59 61 63 64 65 66 67 70 75 77 80 79 78 76 76 76 76
33 32 40 42 40 43 42 39 39 40 42 44 47 47 47 46 47 49 51 52 56 57 58 60 61 60 57 59 60 60 61 62 64 65 67 71 73 77 78 78 78 75 75 76
32 36 37 41 43 42 41 41 43 43 44 47 47 47 45 49 51 48 51 51 53 55 55 57 58 58 58 60 59 57 58 60 62 64 64 69 72 73 73 73 73 73 73 73
30 35 37 40 42 42 42 44 45 48 47 47 48 45 45 45 46 47 49 51 52 53 56 57 55 56 57 58 57 55 56 59 60 61 62 63 67 73 74 77 76 75 78 75
28 36 36 37 41 43 42 43 44 45 45 47 48 46 48 46 47 47 48 51 52 55 55 54 51 51 53 52 52 53 54 57 57 58 60 61 65 68 57 58 56 57 57 70
38 39 39 41 43 44 43 46 46 46 46 45 47 47 47 47 49 51 50 51 54 55 54 53 49 49 50 50 51 51 52 54 55 55 59 60 61 64 69 65 52 51 49 53
41 41 39 41 40 44 45 48 47 47 47 46 46 48 48 48 49 49 50 52 54 53 51 50 47 47 48 49 49 50 53 52 52 55 57 57 59 61 65 71 73 73 56 54
43 43 43 40 42 43 44 46 44 44 45 45 47 46 46 46 47 47 48 49 50 49 45 45 45 45 46 48 48 50 50 52 52 54 55 56 58 59 60 66 73 74 68 56
44 44 43 41 42 42 42 42 41 43 46 45 45 46 46 47 47 47 47 47 45 45 46 45 46 48 49 47 46 48 49 53 54 55 56 57 59 60 62 65 70 72 72 71
41 40 41 41 42 42 42 42 41 44 45 45 44 44 46 46 46 45 45 46 46 46 46 45 46 49 49 47 47 47 50 51 54 54 54 54 56 62 64 66 68 71 71 68
48 47 46 45 44 44 44 43 42 42 42 45 45 44 44 44 43 43 44 45 45 45 46 46 47 49 47 48 47 48 47 49 50 51 51 50 51 57 61 65 68 69 67 59
52 51 49 49 48 46 44 44 43 43 43 44 44 43 42 44 43 44 44 44 43 42 44 46 50 47 46 47 51 46 46 47 47 48 48 47 48 49 51 53 65 69 66 64
52 51 50 50 50 48 46 46 46 44 44 44 44 42 41 44 44 43 44 42 43 44 45 46 46 45 45 46 48 45 45 45 45 44 44 44 45 44 46 46 50 55 61 61
49 50 49 50 48 49 49 47 46 45 46 45 44 41 40 45 45 44 42 41 44 46 46 47 46 44 45 45 44 44 43 43 42 42 42 42 42 43 42 45 45 47 51 51
47 47 48 49 47 48 48 47 46 46 45 44 44 42 41 41 43 43 44 43 44 48 47 45 45 48 45 45 42 42 42 42 41 41 40 40 40 40 41 41 41 42 44 44
46 46 47 45 45 44 46 45 45 46 45 44 43 43 41 42 42 41 41 46 45 47 46 46 48 48 47 42 42 41 41 41 40 40 40 40 40 39 39 39 40 40 40 41
46 46 46 47 45 44 44 45 44 45 45 45 44 44 42 41 44 45 47 48 49 48 47 47 47 49 46 42 41 41 41 40 40 40 40 40 40 40 39 40 39 40 39 39
47 47 47 46 45 44 43 42 42 42 43 43 43 45 45 44 43 47 47 48 49 48 46 51 51 49 44 43 42 41 41 41 41 41 40 40 40 40 40 40 39 39 39 40
43 44 45 45 43 42 42 41 41 41 41 42 42 43 45 45 46 46 47 48 48 49 48 47 47 46 45 44 44 43 42 42 41 41 41 40 40 40 40 40 40 40 40 40
42 42 41 42 43 46 44 41 42 41 42 42 41 42 43 45 45 48 48 49 47 48 49 47 47 47 46 46 45 44 43 42 41 42 42 42 41 41 41 41 41 40 40 40

GFSNGP_sfc_temp_072.txt.gz
Temp
39 43 44 43 43 45 40 40 37 41 43 44 50 52 52 55 58 59 59 60 61 61 63 64 65 67 69 72 73 73 75 76 75 75 75 75 74 74 74 74 75 75 75 76
35 43 43 41 45 46 46 46 43 45 42 48 51 52 51 52 53 54 56 59 60 61 62 63 64 66 68 69 70 75 75 75 76 75 74 74 74 73 73 73 73 73 74 75
28 36 38 34 39 43 43 44 43 39 41 48 47 50 49 49 51 52 53 56 58 59 60 61 63 65 65 67 70 70 74 73 73 75 74 74 74 73 73 73 73 73 73 74
27 30 27 37 45 49 45 46 46 45 46 47 47 50 52 51 49 50 51 53 55 58 59 61 63 64 64 68 70 70 71 72 74 74 74 74 74 73 73 74 73 72 73 73
26 25 32 41 43 43 41 41 46 44 45 46 48 50 50 51 51 50 51 52 54 58 60 61 62 63 63 66 66 67 68 68 72 75 74 74 73 73 74 74 74 74 75 73
27 26 26 36 43 47 44 33 44 45 42 42 44 41 47 48 50 51 52 53 54 56 60 61 63 61 61 63 64 63 65 66 67 69 72 74 73 73 73 74 75 76 76 75
27 24 32 40 44 46 33 34 42 44 43 42 39 42 46 49 49 51 51 52 54 55 57 60 61 61 59 60 61 62 64 65 67 67 68 71 73 74 72 73 73 75 75 76
28 25 25 44 43 38 39 40 42 42 42 42 43 44 46 48 48 49 49 51 54 53 54 58 60 60 59 58 61 61 62 63 65 66 67 68 69 70 75 75 73 73 74 75
31 30 39 42 41 43 42 40 40 40 42 42 42 43 46 47 48 49 49 51 53 52 53 57 59 59 58 59 59 59 59 60 62 65 66 67 67 69 72 74 76 74 75 75
32 35 37 41 42 42 43 41 43 42 42 43 42 45 48 48 48 47 49 49 51 51 51 53 58 60 58 59 59 57 56 58 60 62 62 64 67 66 69 73 72 74 75 75
30 35 36 40 42 43 43 44 44 45 47 47 47 46 47 48 48 47 47 49 50 49 50 53 58 57 56 57 56 54 55 56 58 60 60 61 63 65 67 71 73 74 76 76
30 37 37 38 42 43 42 43 44 46 45 47 47 46 47 46 48 48 47 49 49 50 51 53 57 56 54 54 53 52 53 55 56 56 57 59 61 63 57 55 53 52 54 68
38 39 40 42 44 44 43 44 48 47 47 45 47 47 46 45 47 48 49 50 50 51 52 54 54 54 53 51 50 50 50 52 54 53 55 57 59 60 60 63 54 51 49 51
41 41 40 41 41 45 44 47 49 48 48 47 47 47 47 46 47 48 47 48 49 50 51 49 49 49 50 49 49 49 49 50 51 53 55 56 57 58 60 61 62 66 59 53
42 43 43 43 43 43 44 44 44 43 46 47 47 46 47 45 45 46 48 48 48 48 48 47 47 47 50 50 49 48 48 50 51 52 53 54 56 57 59 60 62 65 68 59
44 43 42 41 42 43 43 43 41 42 44 46 45 44 45 45 46 47 47 47 44 44 45 46 46 48 49 49 48 47 47 49 51 52 53 54 55 57 58 60 61 63 66 70
43 40 41 41 42 43 44 44 42 43 44 44 46 46 46 44 45 45 45 46 45 45 46 45 46 49 49 49 48 47 48 49 50 50 51 53 53 54 56 60 62 64 66 68
49 49 48 47 46 45 44 45 43 43 42 45 45 46 45 42 42 43 44 45 45 45 45 45 46 48 49 48 48 47 48 48 48 49 51 51 51 52 53 55 57 59 65 67
50 49 49 48 47 46 45 46 45 44 44 44 44 45 44 44 44 43 44 44 43 42 43 45 50 47 46 47 50 49 46 46 47 47 48 48 48 49 49 49 50 51 58 65
51 51 51 51 50 48 47 46 46 45 46 45 44 43 43 43 45 44 44 43 43 44 46 46 45 45 45 46 48 45 45 45 45 44 45 45 45 45 45 44 46 48 55 55
50 49 49 49 48 49 48 48 47 46 46 46 44 42 42 43 44 43 42 41 45 47 47 48 45 44 44 45 44 43 43 42 42 42 42 42 42 43 43 42 42 45 45 46
46 46 48 49 47 47 49 48 47 46 46 45 45 44 42 42 43 43 45 43 45 49 47 45 45 46 44 45 42 42 41 41 41 41 40 40 40 40 40 41 40 41 41 42
47 47 47 47 47 47 48 47 46 46 46 45 44 44 43 44 44 42 43 47 47 47 47 46 48 47 46 41 41 41 41 41 40 40 40 40 40 40 39 39 40 40 39 40
48 47 48 49 48 46 45 48 48 46 47 46 46 46 45 45 46 47 48 48 49 48 47 48 47 47 46 42 40 39 40 40 40 40 40 40 40 40 40 39 39 39 39 40
48 47 47 48 48 45 45 45 45 45 45 45 46 47 47 47 46 48 48 47 49 49 48 50 50 47 44 43 42 40 39 40 40 41 40 40 40 40 40 39 39 39 39 39
43 43 44 45 46 45 44 45 44 45 44 44 45 46 48 48 48 47 48 48 50 49 49 48 48 47 45 45 44 43 42 41 40 40 40 40 40 40 40 40 40 40 39 39
43 43 43 44 45 45 44 45 44 45 45 45 46 46 47 47 47 49 49 49 50 50 50 50 50 49 48 47 46 46 45 44 41 42 41 40 40 40 40 40 40 39 39 39

GFSNGP_sfc_temp_075.txt.gz
Temp
52 53 53 52 53 54 54 54 54 55 55 54 56 58 60 62 63 62 60 61 62 61 62 64 66 68 73 77 78 81 83 84 83 82 80 78 80 83 83 82 83 83 83 84
45 50 51 50 53 53 54 54 54 55 53 58 58 61 60 60 61 61 61 61 63 63 63 63 64 65 67 69 73 74 76 81 83 83 82 81 81 81 81 81 81 82 82 83
42 47 49 47 52 53 54 55 57 53 57 58 56 57 57 58 60 59 60 61 61 62 63 63 63 64 64 65 70 74 75 77 80 81 80 80 81 81 80 80 81 80 81 82
44 45 37 50 56 54 54 54 55 55 56 55 55 58 59 59 58 58 59 60 61 63 65 66 67 65 64 65 67 72 76 76 78 79 79 81 80 80 79 81 80 80 80 81
41 43 44 49 52 52 52 52 54 53 53 54 57 60 58 58 59 59 60 61 62 64 65 66 68 69 66 64 65 65 68 71 73 75 79 80 79 79 80 80 80 80 81 80
41 39 38 48 51 54 55 47 50 52 50 52 56 56 58 58 59 59 60 61 61 63 65 66 67 69 68 68 68 67 64 65 69 73 73 77 79 79 80 80 81 83 82 82
42 40 46 50 52 54 43 45 51 52 51 51 51 54 56 58 58 60 60 60 60 62 62 63 65 67 65 67 67 67 68 66 65 69 69 70 75 78 79 79 79 80 80 81
40 38 36 52 51 46 49 51 52 52 51 51 52 53 54 56 57 57 58 58 60 60 61 63 64 65 65 64 67 66 66 66 66 66 68 70 69 69 72 74 74 76 77 80
44 45 49 52 52 53 52 50 50 50 51 51 51 52 53 53 55 57 57 58 59 59 59 61 62 63 62 65 67 65 62 61 65 65 66 67 66 69 74 76 78 78 79 78
43 49 49 52 53 53 52 52 52 52 52 53 51 52 53 54 55 56 57 57 58 58 57 58 61 61 63 65 66 64 62 60 62 64 64 67 67 68 67 70 78 79 77 80
44 47 47 50 51 53 52 52 52 53 52 52 52 52 51 51 53 54 54 56 57 56 57 57 59 60 63 65 65 63 63 63 63 64 65 66 68 68 71 72 67 73 73 76
44 52 51 51 52 53 51 51 52 52 52 52 51 51 51 50 49 48 50 52 53 54 54 55 58 60 62 65 62 61 61 63 64 63 61 65 62 67 59 54 52 51 49 55
53 53 54 54 54 54 52 53 54 54 54 52 53 53 53 49 50 50 50 49 49 49 52 53 51 53 58 59 55 56 59 60 62 60 63 63 64 61 60 64 52 51 48 49
52 51 49 51 51 53 54 55 54 56 55 54 53 53 53 52 53 50 48 49 50 50 49 51 50 49 53 53 54 54 56 51 54 60 62 63 63 63 64 65 65 63 62 57
51 54 56 56 55 53 54 54 53 53 54 54 55 53 53 51 51 51 52 49 49 49 48 48 49 51 51 54 55 54 55 53 52 54 56 56 57 57 58 60 61 63 67 64
51 52 52 52 54 54 53 53 52 54 54 54 53 54 53 51 49 51 49 48 45 44 46 46 46 49 52 51 52 52 53 52 51 52 53 53 54 54 55 58 59 60 62 66
47 45 48 50 53 54 54 56 55 55 55 54 54 54 52 51 52 51 47 47 46 46 47 48 47 52 52 51 50 51 52 53 52 52 51 51 52 53 54 55 55 58 63 68
53 54 55 56 56 56 56 56 55 55 54 56 55 54 52 50 49 47 46 47 48 47 48 47 51 50 49 52 52 50 51 50 50 50 51 51 52 53 53 53 54 55 58 64
55 54 55 55 57 57 57 57 57 57 56 55 54 53 52 52 50 48 48 47 47 48 51 50 51 48 46 48 49 49 48 48 48 49 50 49 50 50 50 51 51 52 53 55
56 57 57 55 57 55 56 58 58 57 57 55 54 53 51 52 51 50 51 47 50 50 53 51 50 47 45 46 48 46 45 45 45 46 46 46 47 47 47 45 46 47 49 52
56 57 56 55 56 57 56 58 58 57 57 56 53 53 53 53 53 52 50 49 49 50 54 52 49 46 44 45 42 43 43 43 43 43 42 43 44 44 44 45 44 44 45 45
56 56 55 55 55 55 56 55 56 57 56 56 55 55 53 53 53 53 53 51 55 51 51 52 49 49 46 44 41 39 40 42 42 42 41 41 41 42 41 42 42 42 41 42
52 53 54 55 52 53 55 56 55 55 56 56 55 55 55 57 57 54 53 57 57 54 51 53 50 49 48 42 40 38 38 39 39 40 41 41 41 40 40 40 40 40 40 40
51 52 49 49 49 51 52 52 52 53 55 56 58 58 57 58 58 59 59 55 51 52 54 52 50 48 47 44 42 40 37 36 36 37 40 40 40 40 40 40 39 40 40 39
47 49 52 49 47 47 47 47 48 49 53 54 56 57 56 58 57 59 60 60 52 53 57 51 49 48 47 46 44 42 40 39 38 36 36 38 39 39 39 40 40 39 39 39
50 48 47 49 45 49 48 47 46 46 52 55 57 59 60 59 59 60 60 55 60 55 60 58 57 54 52 47 46 44 43 41 39 38 36 36 38 39 38 38 38 39 39 39
51 48 50 49 49 48 51 49 48 46 53 57 55 58 60 61 60 58 55 61 60 60 60 59 59 55 55 54 49 47 46 44 41 41 40 38 38 38 38 38 37 35 37 38

GFSNGP_sfc_temp_078.txt.gz
Temp
64 64 65 64 63 64 66 66 66 67 65 65 67 67 69 71 71 69 68 67 67 66 65 64 65 67 70 72 77 86 88 91 90 89 87 87 83 87 89 88 88 88 88 89
58 61 62 60 63 62 63 64 66 68 62 70 69 70 69 69 69 68 68 69 70 71 71 69 68 67 65 66 69 77 81 84 87 88 88 86 85 79 86 87 87 87 87 88
55 57 59 56 64 64 65 67 68 64 67 68 66 66 67 68 68 66 67 68 69 71 72 73 72 71 68 66 69 70 75 82 82 83 84 84 86 85 84 84 86 85 86 87
59 55 47 58 65 66 65 65 67 66 66 67 66 67 68 68 66 66 67 68 69 72 72 73 76 72 71 70 69 68 67 68 69 77 80 81 81 82 84 85 85 85 85 86
53 54 55 57 59 61 61 59 64 65 64 65 66 68 66 67 67 67 68 70 70 72 73 73 74 75 74 73 75 69 67 66 67 68 71 76 80 79 82 81 83 85 86 85
53 48 46 59 61 64 66 56 63 64 62 63 66 64 63 66 67 68 69 70 69 70 73 73 72 75 73 75 74 74 73 68 68 69 66 68 75 75 78 82 83 86 86 87
53 48 56 60 61 65 51 53 61 63 62 63 63 65 64 66 66 68 68 68 68 69 69 71 72 72 70 72 73 74 75 74 72 69 67 68 67 72 75 77 80 82 84 85
52 47 43 62 59 55 58 61 62 61 61 61 61 63 63 65 65 65 66 67 68 67 67 69 70 70 68 67 71 73 73 72 72 72 71 70 70 69 69 74 74 77 77 79
54 56 58 62 61 62 62 59 60 61 61 60 60 61 62 62 63 64 65 65 67 67 66 67 68 68 66 67 68 70 71 70 71 72 73 74 72 71 69 70 75 76 74 74
52 60 58 59 61 62 61 62 61 61 60 61 59 60 60 61 62 62 63 62 64 64 64 63 66 66 66 67 68 68 68 69 71 71 71 73 76 78 79 76 74 78 83 74
54 59 57 60 61 61 60 60 60 61 61 60 59 59 59 59 60 60 59 59 58 59 57 55 57 60 65 66 68 68 69 70 70 73 74 72 73 76 75 75 73 70 70 74
52 61 59 60 62 62 59 59 60 59 59 60 60 58 56 56 54 53 54 57 58 56 57 58 59 60 62 61 58 61 66 70 72 72 72 74 73 74 63 55 51 50 49 54
60 62 63 63 63 63 61 61 61 60 60 59 61 59 58 57 55 55 55 56 54 53 54 55 55 56 60 61 59 55 57 63 66 66 71 70 71 72 71 72 57 52 50 48
62 60 57 60 60 63 62 61 59 61 62 61 61 60 60 59 56 55 54 54 55 54 54 52 52 54 54 57 59 57 56 54 61 65 68 70 70 71 72 71 71 71 63 57
54 59 63 65 63 61 62 62 59 60 61 61 62 60 60 58 57 54 54 56 55 54 52 54 55 55 55 55 54 55 58 60 62 65 67 65 66 67 68 68 67 69 71 65
53 52 53 61 61 60 60 60 59 61 62 62 61 61 60 59 59 57 55 55 52 52 54 54 53 53 54 55 53 53 53 54 55 59 62 65 66 65 65 63 62 67 69 70
46 45 50 54 58 59 59 61 62 63 62 62 61 62 60 59 59 58 54 55 53 55 56 56 56 57 56 56 52 50 51 54 54 58 60 62 61 57 57 60 59 60 63 68
54 58 58 57 56 57 61 62 63 63 62 63 63 62 60 58 57 57 57 57 57 57 58 58 58 56 56 56 54 51 50 50 50 51 53 54 56 57 56 56 56 57 62 66
62 61 62 62 63 63 63 64 64 64 64 63 62 61 61 60 59 57 57 54 55 54 58 58 56 56 55 55 51 50 48 47 48 48 49 50 52 55 56 56 56 58 59 59
61 63 63 63 63 62 61 62 62 64 65 64 63 61 59 60 59 58 58 56 58 59 59 57 57 56 56 51 48 47 44 43 44 45 46 47 48 49 51 49 51 52 54 54
62 62 62 61 61 62 60 62 63 61 64 64 62 60 60 60 60 59 57 58 60 61 60 55 56 57 57 50 45 41 40 40 41 42 43 43 44 45 46 47 48 48 48 48
62 61 61 62 62 61 63 63 62 63 61 63 62 62 60 60 60 60 61 59 63 55 60 59 58 53 54 50 45 42 40 39 38 39 40 41 42 42 43 43 43 45 45 45
59 57 59 59 59 59 61 61 60 61 60 61 60 60 60 64 64 62 60 63 65 57 63 61 52 50 49 53 45 43 42 40 39 37 37 38 40 41 41 41 41 41 42 42
58 58 57 57 57 53 49 50 50 58 60 60 61 61 63 63 64 66 65 59 54 56 63 61 56 49 50 54 46 43 42 41 39 38 38 37 37 37 38 40 40 41 41 40
58 58 56 54 49 48 48 49 48 50 56 57 59 63 63 66 65 64 65 64 53 56 63 51 50 49 55 53 50 44 43 42 41 39 37 37 36 35 34 35 37 39 40 40
58 54 52 54 55 49 49 48 46 47 49 51 58 64 66 68 67 66 63 59 65 58 64 62 59 59 58 56 54 47 45 44 43 41 38 38 37 37 34 33 34 34 36 38
59 51 56 54 52 55 51 46 47 48 51 54 56 65 68 68 66 61 57 62 63 63 62 62 64 61 62 59 56 53 50 48 43 44 41 40 38 35 37 36 34 33 33 34

GFSNGP_sfc_temp_081.txt.gz
Temp
70 73 76 74 73 73 72 76 70 68 68 71 73 74 74 75 73 72 71 71 68 66 64 64 65 64 66 71 75 78 82 83 90 90 90 90 89 89 91 90 90 89 89 90
66 69 70 68 70 71 73 73 75 71 65 76 75 75 74 73 73 71 72 73 74 74 74 72 69 68 67 67 70 73 73 77 76 82 79 89 88 88 87 87 90 90 88 89
61 67 67 62 69 71 72 74 76 69 71 74 72 72 72 72 72 71 72 72 73 75 75 77 76 75 71 70 72 70 70 70 71 74 76 78 83 85 86 84 87 87 88 89
61 63 51 67 73 76 73 74 76 73 73 74 74 74 74 75 72 71 72 73 74 76 76 77 80 78 74 74 73 71 69 69 69 70 73 76 76 79 81 84 82 84 87 87
56 57 63 63 66 69 70 67 74 72 73 73 74 74 69 72 73 72 73 74 75 77 77 76 77 78 77 78 76 78 74 70 69 69 69 72 74 72 76 80 79 80 82 84
60 53 50 64 70 73 76 61 72 73 71 71 73 66 67 71 73 72 73 74 73 75 77 77 75 78 76 77 77 76 76 76 76 72 70 70 70 72 73 76 79 81 83 81
58 55 61 67 68 71 54 59 71 73 71 70 70 68 67 71 71 72 72 72 73 74 73 73 75 75 72 73 73 74 76 77 76 76 74 72 70 72 71 73 76 78 80 81
58 54 50 69 66 60 63 69 70 69 68 67 68 69 69 70 70 70 70 71 72 72 72 73 73 72 70 69 72 72 73 74 74 75 76 78 73 73 74 73 72 74 75 77
60 59 64 68 67 69 70 66 67 68 68 67 67 67 67 68 68 68 68 68 70 70 70 71 71 70 68 68 70 70 70 70 72 74 75 75 74 75 78 79 72 71 77 75
59 65 63 65 68 68 68 68 68 69 68 67 66 66 66 67 67 67 67 65 65 65 64 64 64 66 66 67 68 67 68 69 72 73 73 75 79 79 80 81 80 80 76 71
60 64 64 66 67 67 66 67 67 68 67 66 66 66 65 64 64 64 63 63 62 61 61 60 61 61 63 66 66 65 66 68 71 75 75 76 77 78 78 78 74 75 75 76
57 65 64 64 68 69 65 64 66 65 64 65 64 63 62 63 62 62 62 62 62 60 60 60 59 60 62 64 62 60 63 66 69 70 73 75 76 76 65 58 57 53 50 59
64 66 67 68 68 69 66 66 66 66 66 64 65 64 63 62 61 59 61 61 59 59 59 58 59 57 58 60 59 57 57 60 65 65 69 71 72 73 72 74 52 51 50 49
68 66 62 66 64 68 68 67 63 67 67 66 66 66 65 64 62 61 59 60 60 58 56 56 56 56 57 59 59 59 59 54 60 65 67 68 70 72 73 73 73 75 61 55
63 66 67 65 67 67 68 67 64 64 66 66 67 63 63 62 59 58 61 60 60 57 56 55 55 56 60 59 58 58 60 60 59 60 59 60 64 68 70 70 70 72 75 67
63 62 63 59 59 64 65 65 64 64 66 67 66 63 61 64 61 59 62 59 56 56 57 56 57 61 59 59 57 59 60 57 56 56 57 56 60 63 66 69 70 71 71 73
56 54 55 54 54 58 63 66 66 66 66 67 66 65 60 59 58 63 61 62 60 57 58 60 60 61 61 62 59 60 58 57 54 56 56 55 54 56 59 62 65 68 68 70
59 58 57 55 54 57 60 63 64 65 64 66 67 66 62 58 59 63 61 62 60 58 59 61 60 60 60 61 59 59 57 55 53 53 52 50 52 53 52 53 55 59 63 66
62 59 58 58 59 60 63 64 64 64 64 64 64 64 64 64 62 63 63 61 59 59 59 62 57 58 59 59 56 59 56 53 49 48 47 47 49 50 50 51 52 53 55 60
62 63 63 63 64 62 61 63 67 64 65 64 62 64 63 63 63 63 62 59 61 61 63 62 62 61 62 59 53 56 50 46 43 43 43 44 45 46 47 46 48 50 52 53
63 63 63 63 62 61 64 62 64 61 65 61 59 61 63 63 65 64 61 61 59 61 64 59 62 63 63 58 57 54 48 45 42 41 39 39 41 43 44 45 45 46 47 49
63 63 61 59 57 57 58 61 62 61 64 60 57 61 62 62 62 64 64 63 66 55 65 62 61 54 58 52 58 54 48 46 43 41 39 38 38 39 40 42 43 44 44 45
65 64 63 62 61 59 61 62 62 58 60 61 60 57 59 61 62 64 62 64 65 59 66 66 53 52 52 57 56 54 49 49 44 40 39 38 37 37 37 38 40 41 42 42
63 63 63 63 63 58 56 58 57 58 58 55 57 59 57 56 64 69 70 59 55 59 65 65 59 52 50 60 53 50 46 47 47 41 40 38 38 38 37 36 36 38 41 41
62 63 61 57 56 56 56 57 57 56 52 50 52 57 61 64 63 62 68 69 54 59 66 55 53 52 59 59 56 53 50 45 45 45 40 39 38 37 37 37 37 36 36 37
61 62 60 57 54 54 53 53 48 48 50 49 50 53 54 63 67 68 67 63 67 61 67 63 63 61 63 62 63 58 55 52 45 49 43 40 39 38 37 37 37 36 36 36
61 54 59 56 58 54 55 51 49 47 48 48 50 52 54 63 65 66 59 65 65 64 66 68 68 64 66 65 62 61 58 55 48 52 49 44 41 39 38 38 36 35 35 36

GFSNGP_sfc_temp_084.txt.gz
Temp
66 75 77 75 75 76 73 74 58 63 64 66 68 69 70 71 71 70 70 70 70 69 68 66 65 64 66 68 70 72 74 74 72 74 84 87 85 84 85 86 86 85 85 85
67 73 73 73 76 76 76 76 70 71 64 74 72 74 73 72 71 70 71 72 73 73 73 70 68 64 65 66 66 68 70 70 72 75 75 77 81 84 84 84 85 85 84 84
61 69 68 63 70 71 74 77 69 60 64 73 71 71 71 71 71 70 71 72 72 73 74 74 73 72 68 69 68 66 68 70 70 72 72 72 75 78 79 80 81 83 84 84
60 64 51 69 77 77 75 76 77 72 71 73 73 73 74 74 72 71 72 72 73 75 75 75 77 76 73 73 70 69 68 70 70 69 70 72 73 72 73 75 78 78 81 82
54 57 64 66 70 72 71 70 77 72 73 73 73 72 69 74 73 72 72 73 74 76 75 74 75 76 75 74 75 74 73 72 70 69 68 68 70 69 70 71 72 76 79 80
58 51 48 61 72 77 79 63 77 76 74 73 72 63 64 72 73 73 74 73 73 75 76 74 74 75 74 74 73 71 72 73 74 74 73 72 70 70 71 71 71 73 76 78
57 53 57 69 71 74 58 62 76 77 75 73 67 68 70 73 72 73 73 73 73 74 72 72 73 73 70 70 69 70 72 72 73 74 73 74 74 73 72 72 72 74 75 77
58 54 49 70 68 61 64 72 74 75 74 69 69 70 70 71 70 71 71 72 73 71 71 72 71 70 67 66 68 69 70 70 70 71 74 75 72 72 72 73 73 73 73 75
60 55 65 68 65 69 71 67 69 69 71 71 69 69 70 69 69 69 69 68 70 69 68 68 66 66 63 64 67 66 66 66 69 70 71 72 71 70 72 73 76 75 76 76
61 63 65 67 69 70 71 69 70 72 70 70 68 69 68 68 68 68 66 64 65 65 64 63 63 63 63 64 65 64 63 64 66 66 69 71 73 75 75 75 75 75 74 73
61 65 66 67 68 69 68 70 70 70 70 69 68 67 67 65 65 64 64 63 63 61 61 61 61 61 63 63 62 60 60 62 65 68 67 68 72 73 74 73 72 72 72 72
57 65 63 66 69 70 67 66 69 67 66 67 67 66 65 63 63 63 62 62 61 61 61 60 60 60 60 60 60 59 58 60 61 63 65 67 68 69 65 57 55 52 51 59
63 66 68 69 70 71 68 68 69 68 68 65 66 65 64 62 61 57 61 61 60 59 60 59 59 58 58 59 59 57 57 58 60 60 62 64 65 66 65 68 60 56 52 50
67 66 63 67 66 70 69 69 66 69 69 68 67 66 65 63 59 61 60 60 61 60 58 58 58 58 59 60 58 58 59 56 61 62 61 61 62 62 63 63 64 68 64 52
64 66 64 63 64 66 69 69 65 65 66 66 67 65 66 63 60 61 62 61 61 59 57 57 57 58 60 61 59 58 59 60 59 59 60 58 59 59 61 62 63 65 68 64
64 64 62 61 62 63 60 64 64 64 66 66 66 65 64 65 62 62 62 61 58 58 57 57 57 60 62 61 60 60 60 58 57 58 57 57 58 57 57 57 58 60 62 64
59 56 56 58 58 62 60 60 61 66 66 66 66 66 64 63 62 61 61 63 61 59 59 58 59 61 59 61 59 59 59 59 57 58 56 55 53 53 53 52 55 56 57 60
63 61 62 61 58 61 59 59 61 64 63 67 68 64 63 61 59 61 59 63 61 59 59 60 61 61 60 61 58 59 58 56 54 52 52 51 51 50 50 50 51 51 54 57
64 63 63 62 63 61 59 60 60 61 62 64 64 65 62 62 61 62 61 61 59 58 58 61 58 59 60 56 57 60 57 54 52 50 48 47 48 49 48 47 47 48 50 51
66 64 64 63 63 63 62 63 64 64 63 65 65 64 63 63 61 59 59 59 61 60 63 62 60 62 61 60 55 60 57 54 50 49 45 43 43 43 43 43 44 45 46 47
63 63 63 58 59 59 59 64 58 61 61 61 60 59 62 63 62 61 56 60 61 63 63 60 63 63 64 59 59 61 57 54 51 48 45 42 41 40 40 41 41 42 43 45
62 61 59 60 62 61 59 53 55 57 57 53 57 59 61 59 60 61 61 63 64 57 63 61 62 60 62 55 61 59 56 52 51 49 44 41 40 39 38 38 38 38 39 41
61 60 60 59 59 60 61 61 61 55 54 54 54 58 58 57 52 51 58 64 67 59 64 66 60 55 55 58 59 60 57 53 51 47 45 43 40 39 37 37 37 37 37 38
62 61 61 63 62 61 57 58 59 60 60 59 58 59 55 54 52 52 57 58 59 57 64 64 59 54 53 59 59 58 54 50 50 48 44 42 41 39 38 37 36 36 37 37
62 60 61 59 57 57 56 56 57 53 54 56 56 57 57 52 51 52 53 58 55 58 64 59 55 53 59 61 59 56 54 52 50 49 45 43 41 39 38 37 37 36 35 36
62 62 61 58 58 56 54 53 53 53 54 51 50 53 52 52 52 52 59 56 63 61 64 63 63 59 62 60 63 62 61 55 52 50 47 46 43 41 39 37 37 36 35 36
63 57 61 58 60 59 56 54 55 51 49 48 48 50 52 53 54 56 54 55 64 64 66 65 65 63 65 65 64 62 59 57 51 55 54 49 46 44 42 40 38 35 35 36

GFSNGP_sfc_temp_087.txt.gz
Temp
60 62 64 64 67 70 60 58 53 55 54 58 60 61 62 64 65 65 64 63 62 61 62 63 64 65 66 66 68 68 68 68 68 71 72 74 75 76 76 77 79 79 78 78
55 63 66 65 70 72 68 66 61 61 55 64 66 66 66 67 67 66 67 66 66 65 63 62 62 62 65 64 65 68 67 67 68 70 70 70 72 73 75 76 76 77 77 78
45 62 63 56 65 66 65 68 62 52 56 66 64 65 65 64 65 64 66 65 65 66 65 64 64 64 63 64 65 65 65 65 67 68 68 69 70 69 68 69 73 74 75 76
46 54 44 57 67 70 68 69 65 62 62 63 66 65 66 66 63 63 64 64 64 64 63 65 66 66 65 66 66 66 65 66 67 67 67 68 68 68 69 69 69 71 73 74
43 43 56 59 62 62 61 58 66 64 68 67 66 65 61 66 65 63 62 63 63 65 64 63 65 66 66 66 66 67 67 67 68 68 67 66 66 66 67 68 70 70 71 72
44 39 40 51 64 69 66 51 68 66 64 65 65 52 53 63 65 64 64 63 63 64 64 63 63 64 63 63 63 63 65 66 67 68 68 65 66 66 67 67 69 71 71 72
46 44 52 61 65 67 50 50 62 66 65 64 55 58 60 63 62 63 62 63 64 62 61 60 61 61 59 59 58 61 63 64 66 66 66 66 66 65 66 66 66 67 70 70
47 43 39 60 62 53 54 58 63 64 63 60 61 62 62 62 61 62 61 62 62 59 58 59 59 58 55 55 58 59 59 59 60 64 66 68 64 64 64 63 64 65 67 68
47 46 54 59 57 61 62 59 61 59 61 63 61 60 61 59 59 59 58 58 59 57 56 56 56 55 53 54 56 56 55 56 57 59 61 64 62 63 62 63 62 64 65 65
50 55 57 60 63 64 64 62 64 63 62 63 59 60 59 58 57 56 56 55 56 55 53 52 53 54 53 54 54 53 52 53 55 56 57 59 61 65 64 64 62 62 62 61
51 54 57 60 61 62 63 64 65 64 64 62 60 59 57 55 53 54 54 54 54 53 52 51 52 52 52 52 52 51 51 52 52 55 55 56 60 58 61 62 57 59 63 61
43 53 52 54 59 62 61 60 62 61 60 61 60 56 56 53 53 53 53 53 52 52 51 51 52 50 50 51 51 48 48 50 51 52 52 54 56 57 56 54 53 52 50 50
51 57 58 60 63 64 61 61 63 61 60 58 60 57 56 53 52 53 53 52 51 51 51 50 51 50 51 51 50 49 47 49 50 51 53 52 53 53 52 55 53 52 51 50
59 58 55 58 55 61 63 63 63 63 61 59 59 58 57 54 52 52 51 52 53 51 50 50 50 49 51 51 50 49 48 53 49 49 50 50 50 51 51 52 52 54 55 53
58 58 58 57 58 57 62 61 59 58 59 59 58 56 56 53 51 52 53 54 53 51 50 50 50 50 52 52 50 49 49 49 48 48 48 49 48 48 50 50 50 51 53 53
58 58 57 57 55 58 58 59 59 57 58 58 57 56 57 57 57 53 53 52 49 47 48 49 49 50 52 51 50 49 49 55 53 47 47 47 47 46 47 47 47 48 48 50
51 52 52 52 54 55 57 58 57 60 59 58 57 59 59 54 53 52 52 52 52 50 50 50 50 52 52 51 49 47 47 47 52 45 44 44 44 44 44 44 44 45 46 49
57 56 55 55 55 55 55 57 57 59 58 60 61 59 58 52 53 52 52 53 51 50 51 51 52 52 52 51 49 48 46 45 44 43 42 42 41 42 42 42 43 43 44 46
60 58 58 59 58 56 55 56 58 58 59 58 58 57 57 57 55 52 53 52 50 48 50 52 59 55 50 51 52 48 47 46 44 42 41 43 40 40 41 42 42 41 41 42
61 62 60 59 59 58 56 56 58 57 57 57 56 57 55 57 55 53 53 53 53 55 53 55 54 50 50 51 55 48 47 46 44 42 41 39 39 39 41 41 41 41 41 41
58 58 57 57 56 57 57 55 55 55 56 55 52 52 53 54 54 55 50 52 53 55 55 58 53 53 51 53 52 48 47 45 43 43 44 38 37 37 39 40 39 40 39 39
56 55 56 57 55 55 56 55 54 54 54 53 50 52 51 51 54 52 56 55 56 56 57 55 55 56 53 59 49 48 47 46 44 42 40 39 38 36 37 39 38 38 38 37
55 57 56 55 53 53 55 53 53 53 53 51 51 51 51 51 50 50 50 55 55 55 57 53 56 58 57 48 48 48 48 45 44 42 40 39 37 36 38 38 37 37 36 36
55 54 56 55 54 52 50 50 52 52 51 52 53 52 51 50 52 52 52 53 53 51 55 56 55 56 53 47 47 47 46 46 44 43 41 41 37 38 39 38 37 37 36 35
55 55 53 52 51 50 49 50 50 50 50 50 50 51 52 52 51 51 50 51 51 50 51 53 54 53 50 48 48 47 47 45 44 43 41 39 40 39 39 39 38 37 36 36
54 53 52 53 52 51 49 48 48 47 49 49 49 49 49 50 50 50 50 51 51 50 51 57 54 51 50 51 52 50 49 46 45 43 41 41 39 38 37 37 38 37 36 36
53 54 53 53 54 52 51 50 50 47 47 47 47 49 49 49 50 49 50 51 52 51 54 57 56 54 54 54 54 50 49 47 47 46 44 43 42 41 40 39 39 37 36 36

GFSNGP_sfc_temp_090.txt.gz
Temp
51 57 60 59 58 62 54 53 50 52 52 55 59 58 61 63 63 62 61 61 61 62 62 64 65 65 66 68 68 69 68 68 68 70 70 71 72 73 75 74 74 75 75 75
48 58 59 59 64 65 63 62 55 55 53 60 60 61 62 64 64 62 61 62 62 62 62 62 63 64 64 65 66 67 67 67 67 69 69 70 69 69 70 71 73 73 74 74
42 51 53 49 55 60 65 62 57 51 54 59 59 61 62 64 64 63 63 62 62 62 61 62 61 62 62 64 66 64 65 65 66 67 68 68 68 69 68 68 69 70 71 73
42 49 40 52 64 65 64 64 61 58 59 61 62 64 63 62 63 64 63 61 60 60 62 62 63 66 64 63 63 65 65 65 65 66 65 66 66 66 67 68 68 68 70 70
38 38 47 55 61 58 54 52 62 61 63 61 62 61 57 62 62 59 59 59 60 61 61 63 62 62 62 61 61 62 63 63 64 66 65 66 65 66 66 67 67 68 69 69
43 39 37 49 61 65 61 45 59 62 60 60 61 50 53 61 62 60 60 60 60 59 60 59 57 60 59 58 58 58 59 60 63 64 64 64 64 65 66 66 66 68 68 70
43 39 49 58 61 65 45 45 56 61 61 61 54 54 59 61 62 62 60 59 58 57 55 54 55 57 54 54 53 55 57 58 59 60 62 64 63 64 64 64 63 64 66 67
42 40 36 59 60 52 52 52 56 56 56 56 60 59 59 60 57 58 57 57 57 54 53 53 54 54 51 51 52 54 54 54 55 56 59 62 62 63 63 63 62 65 67 66
43 43 51 54 54 58 58 54 53 54 57 61 59 59 58 55 55 55 56 54 55 53 51 51 51 51 48 49 51 52 51 51 52 53 56 57 59 61 62 62 62 62 62 62
46 50 53 56 58 60 62 59 60 60 60 58 55 57 55 54 53 53 53 52 52 50 48 48 49 49 48 49 50 49 48 49 50 50 51 52 57 59 59 57 56 57 59 58
44 50 54 56 58 58 60 61 61 60 60 58 57 53 53 51 51 51 50 51 51 48 48 47 47 47 48 49 48 47 47 48 47 49 47 49 51 52 55 53 52 53 55 53
39 48 48 51 57 60 59 59 59 58 56 57 56 52 53 50 49 49 49 49 48 47 47 46 46 47 48 48 47 45 45 46 46 46 46 48 48 49 52 50 49 46 45 47
47 51 52 54 59 60 59 59 59 57 56 54 53 53 52 50 48 52 49 48 47 47 47 47 46 47 47 48 48 46 44 44 45 46 46 45 45 45 46 50 51 48 47 47
53 53 52 54 52 56 59 61 60 59 57 56 54 54 53 51 50 49 48 49 49 48 47 47 47 47 48 48 47 46 44 50 44 44 44 44 44 44 45 45 45 46 48 47
52 52 51 52 54 55 56 57 56 55 55 54 55 53 52 50 48 49 49 50 49 48 47 47 47 47 48 48 47 45 45 44 43 43 43 45 43 43 44 43 43 44 46 46
51 52 52 50 51 54 57 56 53 53 53 53 54 52 53 53 51 50 49 49 47 45 46 47 46 48 48 48 46 45 45 51 47 41 41 41 41 41 41 41 41 42 43 43
45 45 45 46 49 49 51 53 57 57 56 56 53 54 53 51 51 50 49 50 49 48 47 46 47 48 49 48 47 44 43 44 48 41 40 39 39 38 38 39 39 39 40 43
53 52 51 50 50 50 51 53 53 55 57 59 58 55 53 54 53 52 50 49 46 46 48 48 48 48 49 48 47 44 43 43 42 41 40 39 38 38 37 37 38 39 41 43
56 55 54 55 54 52 51 51 53 56 56 57 56 54 55 56 55 54 53 49 47 47 49 48 55 54 47 49 49 44 43 42 41 40 40 42 38 37 36 36 37 41 42 42
55 56 56 55 56 53 52 52 52 52 55 56 54 51 52 53 55 53 52 50 51 53 54 51 53 49 48 48 58 44 43 43 41 40 39 38 37 36 35 37 37 38 41 41
53 54 54 53 52 53 52 52 51 50 51 52 51 50 52 52 52 53 50 51 51 54 52 55 53 51 50 49 54 44 43 41 40 40 40 38 37 36 35 35 36 39 39 39
49 50 51 51 50 49 49 49 49 51 52 50 50 51 50 49 50 51 53 55 54 54 55 54 53 54 51 57 46 44 43 42 41 39 39 38 36 35 34 34 35 39 38 38
49 49 49 48 47 46 47 47 47 48 47 47 47 48 48 49 49 48 48 51 53 53 55 54 54 55 56 53 47 45 44 43 41 39 39 38 37 35 34 34 35 38 37 37
46 47 47 47 46 45 44 45 45 46 46 46 46 46 46 45 47 49 51 52 51 51 53 55 54 55 55 47 45 44 43 43 41 41 40 41 37 35 35 35 34 36 37 37
47 46 46 45 44 43 43 44 43 43 43 44 45 45 48 47 48 49 51 52 51 52 51 52 52 51 52 49 46 43 43 43 43 42 41 39 37 37 37 35 35 35 36 38
45 45 45 44 43 43 43 42 41 41 46 46 47 46 49 49 50 50 50 50 51 50 51 50 51 50 51 49 49 47 45 43 43 43 41 41 40 39 37 36 35 34 37 38
46 46 44 43 43 44 44 43 42 42 42 43 42 45 48 49 49 49 50 50 50 49 50 50 50 53 53 52 49 47 46 44 44 44 43 42 41 40 39 38 37 37 38 38

GFSNGP_sfc_temp_093.txt.gz
Temp
46 51 53 53 55 57 53 51 50 49 52 56 56 59 61 61 62 61 61 62 62 62 64 65 66 67 68 69 69 69 68 68 68 69 70 70 69 69 70 72 73 72 72 73
47 54 53 53 56 57 59 55 53 54 54 60 59 62 61 60 61 60 60 61 62 62 63 64 64 65 66 66 67 68 67 67 68 68 68 68 68 68 68 69 70 71 71 71
39 48 49 46 52 53 57 56 56 49 53 56 57 60 61 61 59 60 61 60 61 62 62 62 63 65 64 64 65 65 65 66 66 67 66 66 67 67 67 67 68 68 70 70
38 43 40 49 56 58 59 59 57 53 55 58 60 63 63 64 62 61 62 61 60 60 62 63 64 64 64 64 63 63 63 65 65 65 65 65 65 65 66 66 66 67 68 68
37 37 48 54 55 53 49 53 58 56 57 59 59 61 58 65 65 62 61 61 59 60 61 62 62 61 60 60 60 61 60 61 62 63 63 64 64 64 65 65 64 65 67 68
41 36 34 48 58 62 56 48 62 60 57 57 59 48 51 60 63 62 61 61 59 60 61 58 55 58 58 56 56 56 57 58 59 60 61 60 62 62 64 63 63 64 66 68
42 39 45 56 58 61 44 45 59 57 57 57 50 52 56 58 59 59 57 56 57 56 53 52 53 55 52 52 51 53 56 56 56 57 59 60 61 62 63 63 62 64 66 66
38 38 38 57 59 53 51 48 56 55 53 52 54 57 56 56 55 56 54 54 55 52 50 50 51 52 48 48 50 52 52 52 52 53 56 58 57 58 61 61 61 61 62 65
41 41 52 54 50 55 55 50 51 53 54 56 57 57 56 55 56 56 54 53 53 50 49 48 48 49 47 47 49 50 49 49 50 51 52 52 52 53 55 55 56 57 58 57
44 49 51 54 57 57 56 53 56 56 58 58 56 56 54 53 52 52 52 51 50 49 47 45 47 47 47 48 48 48 47 46 47 47 47 48 51 52 51 50 51 53 53 53
41 47 52 55 56 57 57 57 57 57 58 57 55 53 53 51 52 52 50 48 48 47 46 44 45 45 46 46 47 45 45 46 45 45 44 45 47 47 49 48 48 47 47 49
40 47 45 48 54 57 57 57 57 58 56 55 55 51 51 48 48 49 48 47 46 45 45 44 45 45 45 46 45 44 43 44 44 43 43 44 44 44 48 48 47 45 44 45
46 48 50 51 55 56 55 56 57 57 55 53 52 52 50 48 47 50 47 46 46 45 45 45 45 45 46 46 45 43 42 42 42 43 42 41 41 41 40 43 48 46 44 45
50 51 49 53 51 54 56 57 57 56 54 54 52 50 50 48 48 48 47 47 47 46 45 45 45 45 46 46 44 43 42 47 40 40 40 39 40 39 40 39 39 41 44 44
51 51 49 51 54 55 55 55 53 52 52 51 53 52 51 49 47 48 47 47 47 45 45 44 45 45 45 46 44 42 41 40 39 39 39 40 38 38 38 38 37 38 40 42
49 50 50 48 48 50 53 52 51 51 51 52 52 51 52 53 51 49 48 47 45 44 44 44 44 46 46 45 43 42 43 48 43 39 38 38 37 37 36 36 36 36 37 37
44 44 44 44 47 47 47 50 51 53 55 55 53 53 50 49 48 47 47 48 48 46 45 44 46 46 46 45 44 42 42 43 46 39 38 38 37 36 36 35 35 35 35 39
51 50 50 48 48 48 49 50 51 52 55 57 57 53 53 48 49 48 49 48 45 44 45 46 46 46 46 46 44 43 41 41 40 40 39 39 37 36 35 35 35 35 36 38
53 52 52 52 52 50 49 49 50 50 52 52 54 54 54 54 53 53 53 48 49 45 48 46 53 52 45 47 46 42 41 41 40 39 39 41 38 37 35 35 34 35 35 37
53 53 53 52 53 51 50 50 50 49 50 50 50 53 51 53 55 53 52 50 53 53 56 50 52 51 48 47 56 42 42 41 40 39 38 37 37 36 36 37 35 35 35 36
51 52 52 52 50 49 49 49 49 48 49 48 48 48 50 51 51 50 46 48 53 55 55 55 51 51 50 49 55 45 43 41 39 39 38 38 37 36 35 35 34 34 34 36
47 48 49 49 47 47 46 46 47 47 47 48 50 50 48 48 49 50 50 50 52 55 54 53 53 53 51 56 50 45 44 42 41 39 37 37 36 35 35 34 34 34 34 36
47 47 47 46 45 44 45 45 45 45 45 44 44 45 45 46 46 46 47 51 52 53 51 52 54 55 55 53 46 46 45 43 40 39 39 38 38 36 36 35 34 34 33 34
45 44 44 45 44 43 42 43 42 43 43 44 44 44 43 43 44 46 48 50 52 52 51 52 53 54 55 53 48 44 44 44 41 40 39 42 39 37 36 35 34 34 33 34
44 44 44 43 42 41 41 41 41 41 42 43 43 44 46 49 47 49 47 48 50 50 51 53 53 53 51 48 46 44 43 43 43 41 40 39 39 38 37 36 36 36 34 34
43 44 44 43 42 41 41 40 40 40 41 42 43 43 45 46 49 50 50 50 51 50 51 51 51 51 50 49 47 46 46 45 45 44 41 40 40 39 38 37 36 36 36 35
44 44 42 41 41 42 41 41 41 41 42 41 41 43 43 45 45 48 49 49 50 49 50 50 50 49 49 49 49 49 48 45 44 44 42 42 41 41 40 39 38 36 35 37

GFSNGP_sfc_temp_096.txt.gz
Temp
46 50 50 50 52 53 48 49 50 51 50 54 59 60 61 62 62 61 62 63 64 65 65 66 67 68 69 69 69 69 68 68 68 69 69 70 69 69 70 71 72 73 74 74
46 51 51 51 54 54 54 53 51 50 49 56 63 62 60 62 62 61 62 62 63 64 64 65 66 67 67 66 68 69 68 68 68 68 68 67 69 69 69 69 70 70 72 72
40 47 49 44 50 50 51 56 53 49 53 57 57 58 58 58 61 61 61 62 62 62 63 63 64 65 64 65 66 66 66 66 67 66 66 66 67 67 67 67 68 69 70 70
38 42 37 48 54 57 53 55 54 53 55 59 60 60 62 62 59 60 60 60 60 61 61 59 60 61 63 64 62 62 61 63 64 66 65 65 65 65 65 65 66 67 68 69
36 35 43 51 53 52 47 51 56 57 59 58 60 61 59 63 61 59 59 59 59 59 59 58 59 60 60 59 61 61 60 58 61 63 62 63 64 64 64 63 63 63 66 69
38 36 35 47 56 59 56 45 60 57 56 58 61 51 53 60 61 60 60 59 58 59 59 58 59 61 58 57 57 56 57 58 58 59 60 60 62 63 63 62 63 64 66 66
38 37 42 53 54 58 44 45 57 59 57 58 51 52 54 61 59 59 58 58 59 58 55 55 55 57 55 55 54 56 58 57 56 57 58 58 59 60 61 62 62 62 61 59
36 34 37 55 57 52 51 50 54 55 55 53 53 55 54 54 54 54 53 54 55 53 51 52 53 54 51 50 52 53 54 54 54 54 57 58 56 56 56 58 58 58 58 60
40 40 50 54 53 54 55 52 52 53 54 56 55 54 56 55 55 52 52 52 53 51 49 49 51 52 50 49 51 51 51 50 51 52 53 54 54 53 54 54 55 55 56 56
43 47 50 54 56 55 55 55 55 55 56 58 54 55 55 54 53 52 51 50 50 50 48 48 49 50 49 50 50 50 49 49 49 50 50 51 53 53 52 52 51 52 52 52
43 48 52 55 54 55 54 55 56 57 57 57 56 53 53 52 51 52 51 51 50 49 48 47 49 48 49 49 49 48 48 48 48 48 49 49 50 50 51 49 50 49 48 50
41 46 47 49 54 56 56 55 55 55 54 56 56 53 53 51 52 52 51 49 49 48 47 46 47 47 48 48 48 47 47 47 47 47 47 47 48 48 47 47 45 44 43 46
46 48 49 52 54 56 56 56 56 56 55 54 54 55 54 51 50 51 49 48 48 48 47 47 47 47 47 48 48 47 45 46 47 46 46 45 45 46 45 47 46 44 43 43
50 50 50 52 51 55 56 57 56 56 56 55 54 53 52 51 50 50 49 50 49 48 47 47 47 47 48 48 47 46 46 46 45 45 45 44 44 44 45 44 43 43 44 43
50 51 50 51 53 54 55 55 55 54 53 52 53 52 52 50 49 50 50 49 49 48 47 47 47 47 47 48 46 45 45 44 44 44 44 44 44 44 44 43 43 42 43 43
49 50 51 49 48 50 52 54 54 53 52 52 51 51 53 54 52 50 49 48 47 47 47 47 47 48 48 47 46 45 46 47 45 44 44 44 44 44 43 43 42 42 42 42
46 45 46 46 47 48 48 50 51 52 55 54 53 54 52 50 49 48 48 49 50 48 48 48 48 48 48 47 47 47 47 49 46 44 44 44 44 43 43 43 42 42 42 43
50 50 51 50 49 49 50 51 51 51 51 53 53 53 52 49 51 51 50 49 47 47 48 49 49 49 48 48 48 47 47 47 45 45 44 44 44 43 43 43 43 42 42 43
51 51 51 52 51 50 50 50 51 51 51 52 53 51 53 53 53 52 52 48 48 49 50 48 53 53 49 49 49 47 47 46 45 45 45 45 45 44 43 43 43 43 43 43
53 53 52 52 52 51 50 51 51 50 50 50 51 50 50 52 54 53 49 48 51 54 55 51 53 53 50 50 56 48 47 46 46 45 44 45 44 44 44 41 43 43 43 43
52 52 51 51 50 50 50 50 50 49 48 49 48 48 49 50 51 52 48 47 51 54 55 55 52 53 51 51 56 49 48 47 46 45 44 45 44 44 44 44 43 43 43 42
48 48 49 49 48 47 47 47 47 47 47 47 48 49 49 49 50 50 51 50 52 53 52 50 50 53 53 56 54 50 49 48 47 46 44 43 43 43 43 43 42 43 43 43
48 48 47 47 47 46 46 45 45 46 46 46 46 46 45 46 47 47 48 53 53 52 51 50 52 53 54 54 52 52 49 48 47 46 45 45 44 44 43 43 43 42 42 41
46 46 46 46 45 45 44 44 44 44 44 45 45 45 45 45 46 47 48 49 50 51 52 52 52 52 52 50 50 49 49 49 47 46 46 43 44 43 43 43 43 43 42 40
46 46 46 45 45 44 43 43 44 44 44 45 45 46 47 49 47 49 50 50 49 50 51 52 53 52 52 50 50 47 47 48 48 46 45 45 45 43 43 43 43 44 42 42
45 45 46 45 45 43 43 43 44 44 44 45 45 45 46 47 47 49 50 50 51 50 51 51 52 52 52 51 50 48 47 46 46 47 45 45 45 45 43 43 43 43 43 43
46 45 44 44 45 44 44 43 44 45 44 45 45 46 46 47 48 47 48 49 49 50 50 51 50 50 50 50 49 48 47 46 45 47 47 48 47 46 46 45 44 42 42 42

GFSNGP_sfc_temp_102.txt.gz
Temp
71 71 71 71 71 72 71 74 70 75 76 81 81 77 76 73 71 72 74 75 77 76 77 78 77 78 77 70 70 71 76 74 77 80 82 84 85 86 86 87 87 86 88 88
65 68 69 67 70 71 73 74 75 76 77 84 84 80 75 72 71 69 71 74 77 77 77 77 77 77 76 75 73 74 70 69 70 70 74 78 79 82 83 84 85 85 85 86
60 68 67 62 70 70 71 73 74 72 78 80 76 75 73 72 71 70 70 72 76 77 77 78 79 77 77 75 73 74 70 70 69 70 71 71 74 78 80 81 83 82 84 82
61 63 51 68 72 72 69 72 74 75 75 77 76 72 73 74 72 69 67 65 64 64 65 65 69 72 72 72 73 72 71 71 73 71 69 68 69 70 73 77 80 82 78 78
55 58 63 65 67 66 64 68 72 72 72 72 69 68 64 70 71 69 66 63 62 63 62 61 60 63 64 64 65 66 66 68 70 68 67 66 66 69 71 74 78 76 77 74
60 52 48 59 69 74 72 60 71 72 67 65 65 59 64 70 72 66 64 61 59 59 59 59 58 60 59 61 62 62 65 65 68 70 72 73 74 71 70 73 68 70 72 69
56 56 61 67 70 73 57 58 70 66 66 65 63 63 71 71 66 63 60 59 59 58 56 57 60 60 59 58 59 63 67 71 70 69 70 72 72 73 68 64 63 66 65 58
60 55 50 67 70 62 64 70 72 67 62 59 62 67 67 61 58 57 55 56 57 57 56 57 59 60 58 59 63 65 69 70 70 72 74 73 70 70 67 66 65 65 65 67
59 56 65 68 66 69 70 67 70 68 62 63 64 67 63 57 57 56 56 56 57 58 59 58 60 61 58 61 67 68 69 68 69 70 70 70 70 66 66 70 71 71 72 71
60 63 65 67 71 71 70 70 71 70 65 65 66 63 62 59 56 55 56 56 60 59 57 57 60 60 62 64 67 68 67 67 68 68 68 71 74 74 74 74 74 72 71 71
59 63 66 68 68 69 69 70 68 70 68 59 63 59 57 55 57 59 58 61 61 60 59 58 60 61 64 64 68 68 68 68 68 70 69 66 63 64 65 57 56 71 70 70
56 65 65 64 67 70 69 68 69 67 62 57 56 53 53 54 55 56 58 62 61 62 61 60 61 61 62 64 67 69 68 71 72 71 70 68 64 59 45 45 44 42 42 52
64 68 68 68 69 70 68 69 69 69 67 62 60 56 55 53 53 56 57 55 58 62 63 62 62 62 63 65 66 66 68 67 72 68 71 68 67 65 59 50 44 43 42 42
69 68 65 68 67 70 70 69 66 70 70 69 65 65 61 61 58 59 58 61 61 61 62 64 64 65 65 66 65 64 67 52 68 70 70 69 68 68 68 64 63 58 45 48
67 70 71 70 70 70 72 72 70 69 70 70 69 65 65 62 63 63 62 61 62 62 60 59 60 60 62 63 62 61 63 63 66 68 68 67 68 68 70 68 67 65 61 49
68 68 69 67 67 68 69 69 70 69 69 70 70 68 67 66 67 67 65 63 59 59 61 59 58 60 61 62 61 62 61 59 61 67 65 66 67 67 67 66 66 65 66 66
65 63 65 66 66 67 67 69 70 70 70 69 68 70 69 68 67 68 66 66 65 64 64 63 63 64 61 61 61 62 63 61 60 66 66 67 67 66 67 67 66 66 64 55
70 70 70 69 68 67 67 67 68 68 67 68 69 69 67 67 66 67 67 68 68 67 68 66 65 66 65 65 66 67 66 64 63 64 66 65 66 66 66 66 66 65 64 56
70 68 69 69 69 68 68 68 69 68 68 69 69 68 68 68 68 68 68 67 65 63 66 68 63 64 65 65 65 68 68 67 66 65 65 60 63 65 66 66 65 66 67 65
69 70 70 70 69 69 68 68 68 68 69 68 67 66 66 67 68 67 67 65 67 70 71 71 66 65 67 66 60 69 68 67 66 66 64 65 65 64 65 56 64 65 64 64
69 69 68 68 67 68 68 68 67 66 67 67 65 64 64 65 66 66 64 65 69 69 67 64 64 67 67 62 60 64 64 67 66 65 64 63 65 65 65 65 64 64 64 64
71 70 69 68 67 66 66 67 66 64 64 64 63 63 63 63 64 65 67 65 69 55 65 68 68 64 63 61 65 58 58 61 67 67 65 64 64 64 64 64 64 65 65 64
71 69 68 67 66 66 66 65 65 64 63 63 63 63 63 63 64 62 61 66 67 60 60 59 59 57 56 59 59 56 59 59 61 65 66 66 66 65 65 65 65 65 65 65
69 68 67 67 67 65 62 62 65 64 63 62 62 62 64 66 66 66 61 57 54 55 61 60 58 54 53 59 59 58 56 55 51 54 60 55 67 67 67 66 65 66 65 62
67 67 65 64 63 64 63 62 62 61 61 62 61 63 64 65 64 63 65 65 54 57 59 56 54 53 59 57 54 52 52 54 51 53 52 54 61 64 64 65 67 66 67 67
64 66 66 65 67 67 66 64 64 64 65 63 65 66 68 68 67 67 69 61 65 59 64 60 53 54 56 57 54 53 52 53 54 52 53 52 55 58 58 58 59 60 63 65
66 59 65 65 67 67 67 65 65 63 63 66 65 67 68 69 69 63 59 69 69 69 67 65 64 57 55 52 54 54 56 54 50 52 51 51 52 54 55 55 56 56 56 61

GFSNGP_sfc_temp_105.txt.gz
Temp
72 73 76 74 76 78 75 77 73 78 79 85 85 84 82 82 81 82 79 81 82 76 80 81 81 79 82 78 78 73 74 76 76 82 87 87 87 87 90 90 89 88 88 87
65 74 74 72 75 75 77 78 78 80 80 90 88 87 83 77 74 74 74 77 81 80 80 79 81 82 80 81 80 76 74 76 76 79 81 81 83 85 84 86 88 88 87 87
61 72 72 65 73 76 77 80 80 74 82 84 84 83 82 77 72 72 75 76 77 78 79 81 82 82 80 78 79 78 73 73 74 75 75 73 74 79 79 81 83 83 83 83
63 66 53 72 80 79 72 78 77 79 79 81 84 83 82 82 74 72 71 73 72 72 73 74 78 79 80 78 79 76 77 76 75 71 71 73 72 70 72 74 79 78 79 78
59 62 57 67 72 73 70 67 70 76 81 81 80 78 70 75 76 72 69 67 65 67 67 66 69 73 76 75 75 76 75 76 76 76 72 68 68 70 72 72 73 72 74 76
62 54 53 56 65 79 78 65 74 69 73 73 74 70 75 72 71 71 66 64 62 61 61 60 60 64 64 63 66 65 67 70 71 73 68 68 68 67 71 70 68 69 70 71
61 56 60 65 71 74 60 61 75 72 70 67 69 68 74 73 68 65 61 60 60 58 57 59 60 60 58 59 59 62 65 68 69 70 69 70 72 73 70 69 68 68 69 66
63 50 43 72 73 63 67 75 76 73 70 65 64 66 63 62 60 59 58 57 58 57 56 57 59 58 57 57 60 62 64 67 68 69 70 71 71 67 66 66 66 66 66 69
52 54 69 73 71 74 76 73 75 73 70 68 65 60 61 57 56 56 55 55 58 58 56 58 59 60 56 58 62 62 63 66 68 72 73 73 71 69 67 66 67 68 72 73
65 67 69 71 75 75 76 76 76 75 69 64 57 56 55 55 55 55 56 55 56 57 57 57 59 59 60 62 63 63 63 65 69 70 72 74 76 74 74 76 76 76 75 74
61 66 70 71 72 74 74 73 74 73 70 60 57 54 54 54 55 56 57 59 60 58 56 56 61 61 62 61 64 64 65 67 68 70 73 66 61 56 68 56 53 63 75 75
60 67 68 68 72 75 73 72 69 67 65 63 57 54 54 53 54 54 56 59 59 59 61 61 60 60 61 65 62 64 64 66 67 74 73 72 68 61 45 45 44 43 43 54
70 73 73 73 74 75 73 74 74 70 68 61 60 59 58 54 55 55 55 55 58 60 61 60 61 61 62 64 64 63 63 63 68 67 75 72 70 68 63 51 45 43 42 43
75 74 69 73 72 75 74 74 72 75 72 70 70 68 65 64 61 60 56 56 57 59 60 61 62 62 64 64 64 64 63 56 68 71 74 74 73 72 71 67 66 63 46 50
73 76 77 76 74 74 76 75 73 73 73 71 72 67 68 64 63 60 63 61 61 62 63 63 62 63 66 67 65 65 67 72 70 73 73 69 73 73 73 72 72 68 61 50
73 74 74 73 72 73 74 74 74 73 74 73 72 70 70 69 67 67 67 64 63 62 65 64 63 64 64 63 63 65 65 60 62 69 69 68 71 69 70 71 70 70 69 70
70 67 69 70 70 71 72 74 75 76 74 73 72 72 72 72 71 70 69 68 65 66 68 67 66 67 65 64 63 64 65 64 60 65 66 68 69 67 68 69 66 67 69 60
75 74 74 74 71 71 71 72 73 73 73 74 73 72 72 71 69 69 70 70 67 65 67 68 69 69 65 65 65 66 66 65 62 63 65 64 66 67 67 66 66 65 67 61
75 73 73 73 73 73 72 72 73 72 72 72 71 70 71 72 71 70 71 69 67 65 68 69 65 66 68 67 66 70 70 67 65 65 64 62 63 66 66 67 67 67 67 65
73 74 74 73 73 73 72 73 73 72 72 72 71 70 69 70 71 70 69 67 68 69 70 68 68 70 70 69 64 71 71 70 67 67 66 67 66 65 66 59 65 67 66 66
73 73 72 72 72 72 72 73 72 71 71 71 68 67 67 68 69 69 66 68 69 67 70 65 68 67 71 68 67 70 69 70 69 66 67 66 66 67 68 68 67 66 67 67
74 74 73 73 72 72 72 72 72 71 69 67 67 67 66 66 67 68 69 68 70 59 66 66 69 64 66 63 66 67 69 67 68 65 64 64 67 67 67 68 67 67 67 68
75 74 74 73 72 72 72 71 70 69 67 66 65 65 66 68 69 67 67 67 70 60 67 69 61 57 58 64 64 66 65 64 66 55 57 63 64 66 67 67 67 68 68 67
74 74 73 74 73 69 66 68 70 68 67 66 67 67 67 69 69 70 68 60 55 56 64 63 59 54 53 59 62 63 61 61 62 54 53 49 62 61 63 63 66 68 67 64
74 73 72 70 67 66 66 68 67 67 65 66 65 66 68 70 69 70 71 66 54 60 65 53 54 54 61 63 61 57 57 58 56 55 55 61 60 56 58 63 65 65 64 65
70 68 68 68 67 68 70 69 68 68 68 67 68 70 70 70 70 69 68 64 69 62 71 66 65 65 63 60 60 59 59 59 54 54 54 57 53 54 56 57 58 59 59 62
64 59 64 63 67 68 71 69 69 68 66 69 68 69 70 70 70 67 63 67 70 69 68 67 69 63 66 63 61 59 59 55 50 54 54 52 52 52 54 53 53 52 54 56

GFSNGP_sfc_temp_108.txt.gz
Temp
69 73 74 72 73 76 75 77 72 76 76 78 81 83 86 86 86 83 82 83 83 83 83 77 74 73 72 72 77 79 78 77 74 77 82 80 82 84 84 84 83 83 85 83
67 73 74 72 74 75 78 79 78 79 77 85 77 77 83 83 80 80 79 81 78 81 80 79 77 77 76 77 78 79 76 76 77 76 76 75 77 81 82 81 83 84 82 83
61 70 70 63 73 73 77 80 80 74 74 83 76 71 65 76 77 77 78 78 77 81 79 78 79 80 78 81 81 78 76 76 77 78 77 74 75 78 75 77 79 80 80 78
61 65 52 70 75 74 76 79 77 76 74 70 71 67 58 71 74 71 72 69 70 74 75 78 78 77 77 79 77 77 76 77 76 74 74 73 73 76 75 72 72 72 72 72
58 59 65 68 66 68 65 70 74 72 71 72 70 67 65 68 70 68 64 63 63 63 64 67 68 74 76 76 76 75 76 75 76 75 73 71 69 71 71 70 70 68 68 67
61 56 50 61 68 75 76 63 75 74 71 69 67 57 60 71 69 64 62 61 61 61 61 60 62 66 65 65 69 69 74 73 74 74 73 72 71 68 71 70 67 65 63 63
61 56 58 63 68 75 56 58 70 74 71 69 64 60 61 63 60 60 59 58 59 59 58 59 60 61 60 61 60 63 65 68 70 72 72 70 69 71 69 68 67 65 63 61
55 46 46 66 68 59 67 68 68 68 72 69 67 64 61 60 58 58 57 57 59 57 56 58 60 59 58 58 60 62 63 64 65 68 70 68 66 64 67 66 65 64 63 66
52 54 57 65 61 72 77 74 71 71 67 62 57 57 57 55 55 55 55 56 57 58 57 57 58 59 57 58 61 61 61 62 64 67 68 69 66 66 65 65 64 64 66 68
58 57 54 71 75 76 77 73 73 69 63 60 54 55 54 54 54 54 54 55 57 57 56 55 58 58 59 61 61 61 60 62 62 62 62 61 64 67 66 61 64 67 70 70
65 62 64 71 73 75 73 75 70 67 64 61 57 54 54 54 54 55 56 57 58 56 55 56 59 59 59 60 62 61 61 63 62 63 63 55 54 55 58 50 49 58 57 59
59 70 67 68 73 76 71 69 70 67 64 64 62 57 55 53 54 54 55 58 57 58 57 57 57 57 59 63 62 60 60 62 61 62 62 63 62 56 46 46 44 43 44 54
63 71 66 72 75 77 74 72 72 68 67 63 63 61 58 55 55 55 56 56 57 58 59 58 59 58 61 60 61 60 62 61 63 62 65 62 63 61 60 50 45 44 43 44
76 75 70 74 70 76 76 75 71 71 70 67 66 66 64 61 59 58 55 56 57 57 57 60 61 60 60 61 61 61 60 58 60 63 69 65 64 63 64 62 60 57 48 49
74 76 76 76 76 76 76 75 74 67 68 68 70 68 67 63 63 63 63 62 60 59 59 60 61 59 61 61 60 60 60 61 63 69 63 60 62 63 68 66 67 60 56 49
75 75 76 74 73 74 75 75 74 71 71 67 68 70 70 69 68 67 67 66 62 61 63 62 62 64 64 64 63 65 64 61 61 63 63 62 65 63 67 64 65 63 61 63
71 69 70 71 72 73 73 75 76 75 72 71 68 66 67 67 68 67 66 66 66 65 65 63 64 65 63 61 63 65 62 63 61 62 65 63 65 62 65 63 63 65 61 53
76 75 74 74 72 72 72 73 74 74 73 73 72 71 72 68 63 65 67 67 65 66 67 68 67 66 63 63 64 66 65 65 63 61 63 63 63 61 65 62 65 66 62 56
76 75 75 75 75 74 73 72 73 73 72 72 71 70 71 68 69 67 68 65 66 63 65 68 66 66 66 65 65 66 65 67 66 63 63 61 62 62 62 61 62 64 65 61
75 75 75 74 75 74 72 73 74 73 72 70 69 70 69 70 71 67 67 63 65 64 69 66 64 65 67 68 64 68 69 68 66 65 63 65 65 64 64 59 63 64 63 61
74 74 73 73 72 73 73 73 73 71 72 70 68 67 67 68 69 68 67 66 65 67 69 65 67 69 65 64 65 67 68 68 64 65 66 65 65 65 65 65 65 64 65 63
75 73 73 73 72 72 73 73 72 72 71 68 68 68 67 66 67 67 68 67 63 57 67 67 69 59 65 63 64 65 68 66 66 66 65 65 65 63 62 65 65 65 65 64
75 74 74 73 73 73 74 72 70 70 68 67 66 66 65 67 68 67 62 64 68 59 67 66 57 56 56 65 65 66 64 63 65 64 63 66 65 61 59 63 64 64 62 64
75 75 74 75 75 72 68 68 69 69 68 68 68 68 67 67 67 70 65 58 55 58 63 62 59 55 53 61 63 62 61 62 61 63 61 53 58 58 60 63 64 65 64 62
75 75 74 70 67 67 67 67 66 68 66 66 66 67 68 70 66 65 68 66 55 59 64 54 56 55 63 62 61 60 59 58 59 59 59 61 59 57 55 57 59 57 58 59
74 75 72 70 70 70 69 67 65 68 67 65 66 67 69 69 69 68 68 64 68 62 62 62 66 66 65 64 62 59 58 59 58 58 56 58 57 58 54 53 57 53 56 59
73 64 69 70 70 66 68 65 66 67 66 68 67 70 70 70 67 67 63 69 70 70 70 69 66 63 67 66 64 63 61 59 52 58 57 54 53 56 57 57 56 53 52 54

GFSNGP_sfc_temp_111.txt.gz
Temp
61 66 69 66 67 69 62 61 53 60 63 58 63 65 69 68 75 77 75 75 73 70 69 67 66 67 68 69 69 72 71 72 73 75 74 76 77 77 80 76 77 76 75 75
57 68 68 67 69 70 70 70 67 64 59 65 67 65 64 63 67 71 72 73 74 73 70 68 67 68 69 68 70 73 70 70 72 72 74 73 73 73 73 73 73 75 75 73
47 62 64 55 65 68 67 68 62 54 58 63 60 61 62 61 64 64 65 65 69 71 71 71 69 68 70 71 72 70 69 70 70 73 73 73 73 73 73 72 72 71 70 65
49 54 42 59 68 70 65 67 67 63 62 62 59 59 62 64 63 62 61 61 63 64 65 66 72 72 73 73 72 71 70 72 72 70 70 69 70 70 71 71 71 69 68 66
46 47 56 61 64 63 61 57 67 64 64 64 63 63 60 63 61 60 60 60 61 61 62 63 65 68 71 70 70 70 70 70 70 69 68 68 67 68 69 69 67 65 65 64
50 44 44 53 64 66 67 48 64 66 62 61 62 53 58 60 60 59 57 57 58 59 60 60 62 64 65 66 67 69 70 70 70 69 68 67 66 66 67 65 63 62 61 64
45 41 49 57 64 67 48 46 61 64 62 59 55 56 57 59 57 58 57 57 58 58 57 59 60 61 60 62 62 63 66 69 69 69 69 67 66 66 66 65 63 62 61 60
46 42 40 59 62 53 53 57 61 61 60 57 57 57 56 56 55 55 55 56 57 55 55 57 59 60 59 59 61 63 63 64 65 67 68 66 65 66 63 65 62 61 61 61
49 46 53 57 55 58 58 61 60 57 57 55 54 54 54 53 53 53 54 55 56 56 56 56 57 59 57 58 60 61 61 61 63 61 64 66 64 64 64 64 64 63 64 63
49 53 55 56 59 59 66 61 62 60 57 55 53 54 53 52 52 53 54 54 55 55 55 55 57 58 59 59 60 60 59 60 59 54 54 57 60 58 58 57 60 62 63 63
51 53 57 59 65 67 65 64 62 61 58 56 55 53 53 52 53 54 54 55 56 55 55 55 57 58 58 60 61 59 59 60 59 55 51 51 48 48 52 47 48 54 57 56
49 54 56 60 67 68 65 62 62 60 58 58 55 53 55 53 54 55 54 55 55 55 55 55 56 56 58 60 60 58 58 60 58 59 57 53 50 46 46 46 45 44 44 50
58 62 61 65 69 69 65 65 64 61 59 57 56 54 53 52 52 55 55 55 54 55 56 56 56 57 58 58 59 59 58 55 58 57 59 57 57 55 51 47 46 44 43 44
66 64 61 66 63 68 68 68 65 64 62 60 58 57 56 53 52 52 53 55 54 56 56 56 57 56 58 58 58 58 57 57 58 59 59 58 59 58 57 54 53 52 47 48
68 68 67 68 69 68 68 67 64 61 61 60 62 59 58 55 53 53 54 55 55 54 53 55 55 55 58 58 55 54 57 57 57 55 57 58 58 56 56 57 55 53 51 49
67 68 69 67 68 67 67 69 64 62 64 62 62 60 60 60 58 57 57 57 54 53 55 54 54 55 56 58 58 56 54 59 59 57 57 57 54 57 57 56 51 52 49 50
62 61 63 62 64 65 65 67 66 66 66 64 64 62 61 60 59 58 58 59 59 57 57 57 56 58 58 57 56 56 56 53 58 52 53 54 52 52 54 54 53 50 49 54
66 66 66 65 63 64 65 65 65 63 62 65 66 62 61 59 58 59 61 61 58 57 58 59 58 59 58 57 56 55 54 54 53 53 53 53 53 52 53 53 53 50 48 49
70 67 67 68 66 64 63 64 64 62 63 63 62 61 61 60 59 62 62 59 57 55 57 59 61 61 57 58 59 56 55 55 54 53 53 54 53 53 53 54 55 54 52 52
69 69 69 68 68 66 63 65 64 62 63 63 62 61 59 60 58 59 59 57 55 59 62 60 59 57 58 61 63 56 59 56 54 53 52 52 52 52 53 52 53 53 53 52
67 67 66 65 65 66 65 64 64 63 63 62 60 58 57 58 59 58 55 53 54 55 59 61 59 56 56 58 60 58 57 56 58 55 56 55 54 52 52 53 54 53 53 51
65 65 64 65 63 63 64 64 64 63 61 62 62 59 58 56 57 56 55 54 52 56 59 56 56 57 57 60 55 55 55 55 57 57 55 56 56 52 54 55 54 56 56 54
65 64 64 63 62 62 65 65 63 63 59 59 59 58 56 55 55 57 52 55 55 54 54 53 55 56 56 51 53 53 54 54 53 52 56 57 57 55 52 53 54 56 55 53
64 63 64 64 64 62 59 60 62 61 60 59 59 59 57 55 54 55 55 55 54 56 54 54 53 55 53 50 51 51 52 52 51 51 52 49 51 52 53 51 54 55 56 53
65 65 64 64 61 61 60 59 60 58 58 59 58 60 59 58 55 59 58 56 54 55 54 56 57 55 52 52 51 50 50 51 51 51 51 50 50 49 49 50 50 50 50 51
64 67 67 66 65 64 63 61 60 60 60 57 57 58 59 59 58 59 59 57 56 55 55 54 53 51 53 53 52 51 51 51 50 50 49 50 50 50 49 48 48 48 50 53
67 61 64 62 65 64 64 61 60 58 59 58 58 59 60 61 58 58 58 59 58 58 59 56 55 55 55 54 53 52 51 50 47 50 49 49 48 48 49 50 50 48 48 50

GFSNGP_sfc_temp_114.txt.gz
Temp
61 62 65 63 62 64 55 54 50 57 54 56 59 59 62 63 66 65 67 68 70 70 70 69 68 69 70 70 70 70 70 70 71 72 73 73 72 72 73 73 73 73 73 69
50 64 64 63 63 62 62 60 58 57 53 59 62 64 62 62 63 62 63 62 68 67 67 67 67 67 68 68 70 71 70 70 70 70 71 72 73 74 73 71 70 71 70 67
44 59 58 50 60 60 58 59 56 51 55 59 57 60 61 61 63 62 62 62 62 66 67 66 67 67 67 66 67 70 70 70 70 71 71 71 71 72 72 70 71 68 66 63
43 47 41 50 63 65 59 61 59 58 58 58 58 60 60 61 60 61 61 61 61 62 63 64 66 66 68 67 67 69 69 69 70 70 69 69 70 71 71 70 70 68 65 63
41 41 48 55 56 56 58 52 61 59 61 61 61 60 56 59 59 57 58 60 60 61 61 63 63 66 69 68 69 68 69 69 69 69 68 68 68 68 68 68 67 66 64 61
41 38 40 46 58 63 61 45 61 61 57 56 57 52 54 56 57 57 57 57 58 59 60 61 60 65 66 67 68 68 68 68 69 68 68 67 67 67 66 65 63 61 60 61
42 41 47 55 57 61 47 46 59 61 56 53 53 55 56 57 56 57 56 56 57 57 56 59 60 62 61 62 62 65 68 69 68 68 67 66 65 65 63 62 61 59 59 60
43 41 40 58 59 53 52 54 57 57 56 56 55 54 54 54 54 55 54 56 57 56 56 57 59 60 59 59 61 63 64 64 65 66 67 66 65 63 63 63 61 60 59 60
45 45 50 53 54 57 56 56 55 57 55 54 52 53 54 53 53 54 54 54 56 56 56 56 57 59 58 59 61 61 59 58 57 56 57 59 63 63 62 62 61 61 60 58
47 49 51 54 58 61 59 57 57 56 54 52 53 53 52 52 53 52 54 54 56 56 55 56 57 58 59 59 60 61 59 56 55 53 51 52 53 53 54 57 61 63 63 61
46 49 52 56 59 60 61 59 57 57 55 52 52 52 53 52 53 53 53 55 55 55 54 55 57 58 58 60 61 58 58 57 54 51 50 49 46 48 49 46 47 55 57 62
44 50 50 54 59 62 59 57 56 55 53 54 51 50 53 53 53 53 53 54 54 54 55 54 52 54 57 59 59 58 58 59 56 53 51 51 49 48 46 46 45 44 45 52
55 56 55 59 62 64 60 59 59 56 55 52 52 51 51 49 50 54 54 51 52 53 55 55 55 56 56 56 56 55 56 57 54 56 56 54 53 52 49 48 47 46 45 45
59 59 56 61 58 63 63 62 59 59 56 55 54 53 52 50 50 50 51 52 52 52 52 56 56 56 57 57 57 57 56 54 54 57 57 57 56 56 54 52 52 51 46 47
60 64 61 61 63 63 63 61 59 56 55 54 55 53 52 51 50 51 52 52 53 52 51 54 55 55 56 57 56 54 54 53 51 52 52 53 53 56 55 55 50 48 45 48
60 63 63 62 61 63 63 61 58 57 57 58 56 54 54 53 52 52 52 52 51 50 52 51 51 52 53 53 52 53 54 58 55 51 52 50 50 50 50 53 52 52 49 52
57 55 57 59 64 63 59 62 61 59 59 58 58 58 55 54 52 52 53 53 53 53 53 53 53 54 54 53 52 51 51 51 57 50 50 49 49 50 48 48 49 48 49 50
61 61 61 61 59 59 59 60 61 61 60 61 59 61 56 54 54 54 55 55 54 54 54 55 55 55 55 54 52 51 50 50 50 49 49 50 50 49 50 49 47 48 47 47
65 62 62 63 61 59 58 57 58 58 59 59 58 58 58 57 55 56 55 54 54 53 56 56 59 60 54 55 55 51 51 51 50 50 49 50 50 49 50 50 48 47 47 48
63 63 64 63 62 60 59 59 59 59 59 59 57 56 54 56 58 56 53 52 52 54 55 56 57 56 55 55 61 52 55 52 51 49 49 48 49 49 49 49 50 50 48 49
61 61 61 60 59 59 60 59 58 57 57 57 57 54 53 53 54 53 50 50 51 52 53 56 54 53 53 54 57 52 51 52 51 50 49 49 52 48 48 49 50 50 50 49
58 59 59 59 58 58 58 58 58 58 57 56 56 54 53 52 51 49 50 51 50 53 51 50 51 57 57 59 54 54 54 51 50 50 53 53 51 53 52 51 48 52 54 48
57 58 58 57 57 57 57 57 57 57 56 54 54 53 52 51 50 49 48 50 50 52 50 49 54 56 56 48 48 49 50 50 50 49 49 52 53 53 52 54 51 53 49 48
57 57 58 59 57 56 54 54 56 56 56 54 55 55 53 50 48 48 51 52 52 52 50 50 53 56 53 47 48 48 47 48 48 50 51 47 50 50 50 51 48 52 52 51
58 58 57 56 57 59 57 54 53 52 54 54 57 57 56 51 52 51 50 52 53 52 51 55 56 55 48 48 47 47 47 47 48 48 47 47 47 46 46 46 47 48 47 48
57 59 61 62 64 60 58 57 56 56 57 56 54 56 53 51 52 53 51 51 52 52 51 50 51 50 48 48 49 48 47 47 47 47 47 47 47 47 47 47 46 46 47 47
57 54 54 52 53 61 61 59 57 57 57 55 54 55 53 52 54 53 52 52 52 52 51 51 50 50 49 49 49 49 48 47 44 47 47 46 45 45 45 45 46 47 46 46

GFSNGP_sfc_temp_117.txt.gz
Temp
56 55 58 59 57 58 52 48 47 49 52 55 58 58 60 62 65 64 63 64 66 67 69 69 69 71 72 72 72 72 72 72 72 72 72 71 71 71 71 70 70 70 71 70
54 61 62 56 58 58 57 55 54 54 53 57 62 62 61 61 61 61 62 63 65 65 67 68 69 69 70 70 71 71 71 72 72 70 71 71 71 71 71 70 70 70 70 67
43 53 59 50 53 55 54 56 54 47 52 59 58 57 58 59 60 61 61 61 62 64 65 65 65 66 67 67 68 69 69 70 70 70 69 70 71 71 70 70 70 68 65 64
42 47 42 51 56 61 56 57 56 54 56 59 57 56 57 58 57 58 57 60 61 62 64 64 65 66 67 67 67 68 68 69 69 69 69 69 70 70 70 70 69 68 65 63
39 36 45 52 55 54 51 54 57 56 57 57 59 58 56 57 58 56 57 57 59 60 61 62 64 66 67 67 67 67 68 68 69 69 68 68 68 68 68 69 69 67 65 61
38 38 38 47 55 59 56 48 59 58 56 55 56 51 53 56 57 56 56 57 56 58 59 60 61 64 67 67 68 67 68 68 69 68 67 67 67 67 66 66 64 62 60 59
39 37 44 55 58 60 46 46 57 59 55 51 51 53 55 57 56 57 56 56 57 57 56 57 60 63 62 63 63 64 68 68 67 67 67 67 67 66 63 62 62 61 60 61
38 36 38 56 57 52 52 55 58 56 55 55 55 55 55 55 55 55 55 56 56 56 56 57 59 60 60 59 61 63 64 63 66 66 67 66 64 62 61 61 59 58 57 59
43 42 50 52 53 55 55 55 56 55 54 57 54 54 54 53 53 54 54 54 56 56 57 57 58 59 58 58 60 58 59 58 57 56 58 60 63 62 61 62 61 60 61 60
45 48 50 53 58 58 59 57 55 55 53 53 53 53 52 53 53 53 53 54 55 55 54 56 58 58 58 59 60 58 56 56 56 57 56 55 54 54 56 56 61 60 60 59
45 48 51 55 56 57 56 56 55 55 53 52 53 52 53 52 52 53 53 55 55 55 53 54 56 57 58 59 59 58 56 55 53 53 51 49 47 48 50 46 48 54 53 59
44 51 51 53 55 58 56 54 54 53 51 51 50 49 50 49 52 53 52 53 53 51 52 53 52 52 53 57 58 57 57 57 54 52 51 51 50 48 47 45 45 43 44 50
52 52 53 56 59 60 56 56 55 53 52 50 50 50 50 48 50 54 52 53 51 49 51 54 54 54 53 54 55 55 55 54 53 53 54 52 52 53 52 49 49 46 44 44
56 57 54 57 55 60 59 58 57 56 53 52 51 51 50 49 49 49 49 49 50 50 50 51 51 50 51 55 55 54 54 53 55 53 55 52 52 53 51 53 53 52 48 46
56 58 57 58 58 59 59 57 55 53 53 52 52 51 50 49 49 49 50 51 51 50 50 51 51 53 55 56 55 51 54 55 54 54 52 51 51 52 49 50 50 52 51 49
57 57 58 59 58 58 57 56 54 53 53 52 52 51 51 51 50 50 50 50 49 49 50 49 50 51 51 51 50 49 50 57 54 50 49 51 48 48 48 48 47 47 48 50
53 52 52 54 56 57 57 58 57 56 55 54 54 53 52 51 51 50 50 50 50 51 51 50 51 52 52 51 50 48 48 48 55 47 47 47 47 47 46 46 46 46 46 47
60 60 58 60 58 57 57 58 58 56 56 58 56 54 52 51 51 51 51 51 51 51 52 53 53 53 53 52 51 49 48 47 47 47 46 47 46 46 46 46 47 47 46 46
61 60 59 61 59 58 57 57 57 57 57 56 55 54 55 54 53 53 53 52 51 51 55 54 58 58 54 55 54 49 49 48 48 47 47 49 46 46 45 46 46 47 47 47
61 61 61 59 58 58 56 56 56 55 56 56 55 53 53 53 54 53 52 52 53 54 55 55 54 54 54 54 60 50 50 50 49 47 47 46 46 46 46 46 47 47 47 46
59 59 59 58 57 57 57 56 55 55 55 54 53 52 53 53 51 50 48 48 50 51 52 56 53 52 52 53 55 52 51 50 49 48 48 47 46 46 46 46 47 47 47 47
56 57 57 57 56 56 55 55 55 55 54 53 52 51 50 49 49 48 49 50 49 53 50 49 50 56 53 58 52 52 50 50 50 51 50 48 48 51 50 50 51 52 47 46
55 56 56 55 55 57 55 54 55 56 54 53 52 51 52 49 48 47 48 48 49 50 48 48 54 56 55 46 47 47 48 49 48 47 47 47 49 51 47 47 50 51 47 46
54 54 55 58 55 53 52 52 53 54 56 55 56 55 51 48 47 49 48 50 51 50 49 50 52 54 51 46 46 45 45 45 46 46 47 47 50 48 46 47 47 47 47 50
55 55 54 52 52 56 58 56 53 51 51 52 51 52 56 54 54 51 48 50 51 50 49 53 55 54 47 46 46 45 45 45 46 46 46 45 45 46 48 48 48 46 45 46
54 56 58 58 61 61 58 52 56 54 54 52 53 56 55 54 54 52 49 50 50 50 49 49 49 49 47 47 47 46 46 46 45 45 45 45 45 45 44 43 43 43 44 45
55 53 53 52 53 55 55 55 58 54 55 56 56 55 53 52 51 49 51 50 51 49 50 50 49 49 47 47 47 47 46 46 43 46 45 44 44 43 44 43 43 42 43 46

GFSNGP_sfc_temp_120.txt.gz
Temp
52 55 56 54 54 55 49 46 45 49 54 55 56 58 60 61 62 64 64 66 67 66 68 69 69 68 70 72 72 72 72 72 72 73 73 73 72 72 72 71 72 72 71 73
52 59 60 54 55 56 54 55 55 55 52 59 60 60 60 61 60 60 62 63 66 67 67 68 68 69 70 71 70 72 72 72 72 71 72 72 72 72 72 72 71 71 72 72
42 51 56 51 52 53 53 53 52 47 53 60 56 57 57 57 58 58 59 61 63 65 65 66 66 67 66 67 69 69 69 69 70 71 71 71 72 71 71 71 70 71 69 67
44 44 37 46 57 58 54 55 54 55 57 59 56 56 57 57 57 57 58 58 59 60 62 65 66 66 67 67 67 68 68 69 69 69 69 69 70 70 70 70 68 68 67 65
39 37 43 51 55 54 54 52 57 55 59 59 57 57 56 58 58 56 57 57 57 59 60 61 62 65 67 67 67 67 67 68 68 69 68 68 68 68 69 69 69 68 66 64
38 36 36 47 56 59 58 47 61 59 56 55 58 50 53 57 58 57 57 57 57 58 59 59 60 63 66 66 67 67 67 68 68 69 68 68 68 68 67 68 67 65 62 62
37 37 44 53 57 57 47 49 61 61 58 54 52 53 55 57 56 57 56 57 58 58 57 57 60 63 64 64 63 65 67 68 68 68 68 68 67 66 65 63 61 60 58 58
37 36 38 54 55 49 50 55 59 57 54 55 54 55 55 55 55 55 55 56 56 57 56 57 59 60 59 59 60 63 63 63 65 67 67 66 65 62 61 61 58 57 58 57
42 41 49 52 52 55 55 55 56 54 54 57 54 54 54 53 54 54 54 54 56 56 57 57 57 58 57 58 59 58 59 58 57 57 58 61 63 61 59 58 56 55 56 58
45 47 49 53 56 57 58 57 55 54 57 57 54 54 53 53 53 53 54 54 56 55 56 55 57 58 57 58 58 57 56 55 55 56 55 55 54 55 56 59 59 58 56 55
44 48 50 54 55 57 56 56 54 54 53 53 52 53 54 53 52 51 52 54 56 55 54 54 56 56 58 59 59 57 55 55 54 54 52 50 48 49 50 46 49 54 55 57
44 50 51 52 55 57 55 55 54 53 51 52 51 50 50 50 51 52 51 54 54 53 55 55 54 53 54 57 59 58 58 56 54 52 52 51 51 48 48 47 47 44 45 50
52 52 53 55 57 59 56 55 55 54 52 50 51 51 50 49 51 53 53 53 51 51 54 54 54 52 54 54 55 56 57 56 55 55 55 54 54 54 52 49 46 43 43 43
54 55 53 55 54 57 58 57 56 54 53 52 52 51 51 50 51 50 50 51 52 52 52 52 53 53 54 55 55 55 54 52 55 55 55 55 55 54 54 55 54 52 47 47
55 56 56 57 57 57 57 56 54 52 52 51 52 51 51 50 50 51 52 52 53 53 53 53 54 54 55 55 54 53 54 54 54 54 54 54 54 55 55 55 54 53 53 49
54 57 56 57 56 56 56 55 53 52 52 52 52 51 52 52 52 52 52 52 52 52 53 53 54 55 55 54 53 54 54 56 54 52 52 53 54 54 54 53 53 53 53 53
53 52 53 53 55 55 55 57 57 56 55 54 53 53 52 52 51 51 52 52 52 52 54 53 54 55 55 55 54 54 54 53 54 52 52 52 52 52 52 53 53 53 53 51
58 59 58 59 57 56 56 57 56 56 56 57 55 54 53 51 52 52 53 53 52 52 53 55 55 56 56 56 55 54 54 53 53 53 52 51 52 52 52 53 53 54 54 51
59 58 58 59 59 59 59 57 57 58 56 56 55 54 55 54 54 54 54 53 53 53 56 56 58 59 56 57 57 55 55 55 54 53 53 52 52 52 53 53 53 53 54 54
58 60 59 58 58 58 57 57 57 56 56 56 55 54 54 55 55 54 54 54 54 55 57 57 58 57 57 57 61 55 55 55 54 54 53 54 54 53 53 49 54 55 55 55
58 58 57 56 56 57 57 57 56 55 55 55 55 55 55 55 55 55 53 53 55 54 55 57 57 56 55 56 58 56 56 55 54 54 54 54 54 54 54 54 54 54 55 54
56 56 56 56 55 56 56 55 56 55 54 54 55 55 53 52 52 52 53 54 54 52 54 54 55 57 57 58 55 55 55 54 54 54 54 54 53 53 55 55 55 54 54 53
55 55 55 54 55 55 54 54 54 54 53 53 53 52 53 54 53 52 52 53 53 52 54 54 56 55 54 52 52 52 53 53 53 53 52 53 54 54 54 54 54 54 54 53
54 53 54 55 54 53 52 52 54 54 55 55 55 55 53 51 51 52 54 52 51 52 53 54 54 53 51 51 50 50 50 50 51 51 51 47 54 54 55 52 52 54 54 52
54 54 53 53 52 54 54 54 53 53 53 54 53 53 55 57 56 55 53 54 51 52 53 53 54 52 53 52 51 50 50 50 50 51 51 51 52 52 52 52 53 52 52 52
52 54 55 55 58 57 56 52 56 56 54 53 52 53 55 57 55 55 52 52 53 52 54 54 54 53 53 54 53 52 51 51 51 51 50 51 51 51 50 50 50 50 50 50
54 50 53 52 53 55 55 55 56 55 54 57 56 55 56 53 52 52 51 52 52 54 54 53 54 53 54 54 53 54 53 52 47 52 52 51 51 51 51 50 50 49 49 49

GFSNGP_sfc_temp_123.txt.gz
Temp
65 65 64 63 63 64 62 62 60 64 62 63 63 63 63 66 67 67 71 73 73 75 74 73 74 75 77 79 73 74 77 76 77 81 81 81 81 81 81 81 80 81 79 80
61 65 66 62 65 65 62 61 61 62 60 66 63 64 62 61 60 60 61 63 70 71 72 71 76 77 78 74 72 78 72 76 76 77 77 80 80 81 80 80 80 80 79 79
57 60 63 58 64 65 63 62 63 57 63 65 61 59 58 59 59 59 60 60 61 62 66 72 71 70 77 77 76 72 75 76 76 74 75 73 74 77 75 78 79 78 79 79
58 59 48 61 63 64 64 62 63 62 64 63 59 58 58 59 58 58 58 59 59 60 62 64 65 70 71 73 73 71 73 70 71 74 72 72 71 72 71 76 74 77 76 76
54 54 57 60 62 61 63 61 64 62 62 61 61 61 58 59 59 58 58 59 60 60 61 62 63 65 67 70 71 68 68 69 69 70 70 70 70 70 70 70 70 69 71 73
51 49 47 58 61 66 64 57 66 67 65 63 61 59 59 58 59 59 59 58 58 59 61 62 62 64 65 68 70 68 70 70 70 70 70 69 70 69 69 70 69 69 67 68
52 51 56 61 63 64 53 59 68 69 68 66 62 63 58 59 58 59 58 58 59 59 59 60 61 64 64 65 65 67 69 73 73 72 72 70 69 68 67 65 64 62 60 58
51 49 48 63 62 57 61 63 66 65 63 63 59 58 58 58 58 61 59 59 59 58 57 59 61 61 59 59 62 65 66 65 65 67 68 68 66 64 62 60 58 56 55 55
58 59 60 63 63 65 62 62 64 64 64 63 60 59 58 57 58 59 59 58 60 60 60 61 63 61 59 58 60 60 59 58 58 59 58 59 62 62 60 60 58 56 55 55
56 60 60 63 64 66 65 65 66 65 63 63 60 59 60 59 57 58 59 60 62 62 61 59 63 65 61 60 59 58 56 57 57 55 53 54 55 55 55 59 59 58 56 55
58 61 61 63 65 66 64 64 63 64 63 63 62 61 59 58 57 59 61 63 63 60 59 59 60 61 63 63 59 57 58 56 55 54 54 51 49 51 50 47 49 57 56 56
61 65 65 64 67 66 63 63 63 61 60 62 62 60 61 59 60 61 61 62 59 61 58 59 59 60 63 64 60 59 58 57 54 54 55 54 52 49 48 48 46 45 48 50
66 64 65 66 68 68 66 65 63 63 63 60 61 61 61 59 60 58 61 61 61 60 61 62 61 60 61 63 63 61 61 58 58 59 58 56 57 59 52 49 46 45 44 44
65 65 62 65 64 67 67 64 62 64 64 63 62 62 62 61 60 61 60 59 61 62 62 63 63 62 61 63 61 61 59 54 60 61 63 63 64 63 63 59 59 59 49 49
64 67 65 69 68 66 66 65 63 62 62 62 63 62 62 61 61 61 62 63 63 63 63 63 63 62 64 65 63 63 65 62 64 65 64 63 65 65 63 65 63 62 61 53
66 65 66 66 66 65 65 65 65 63 63 63 63 63 63 64 63 63 63 63 63 64 63 63 63 64 65 64 65 66 64 57 61 65 64 65 66 67 66 62 62 65 65 65
62 60 63 65 65 66 66 68 68 66 65 64 64 64 63 63 63 62 63 64 64 64 65 65 65 65 65 65 66 68 68 67 59 66 64 65 66 64 64 68 67 66 65 61
70 69 69 69 67 67 68 67 67 66 65 66 66 64 62 61 61 63 64 65 63 63 64 66 66 67 66 67 67 69 70 68 67 67 66 65 66 67 67 66 65 66 67 63
69 68 70 70 70 69 69 67 67 67 67 66 65 63 64 64 64 65 65 63 62 62 66 67 63 62 67 67 66 69 69 68 68 68 67 59 65 67 67 67 66 66 67 67
68 70 70 70 70 70 68 69 70 68 68 67 66 65 63 65 65 64 64 64 66 69 67 68 66 68 68 68 62 70 69 68 67 67 66 67 67 67 67 57 65 67 67 67
68 68 68 68 67 68 70 70 69 67 67 67 65 65 65 67 67 65 63 65 68 66 66 61 67 69 68 67 67 70 69 68 65 61 59 60 61 64 67 67 67 67 67 67
69 69 69 69 68 67 68 70 69 69 67 65 66 67 65 65 66 66 67 68 68 54 66 69 69 61 66 61 68 68 67 67 67 67 66 66 65 64 60 60 62 66 67 64
68 68 69 68 68 69 70 69 69 68 66 66 65 65 66 69 69 66 65 65 68 59 68 68 58 55 56 67 68 68 67 67 66 65 64 65 65 65 66 66 66 67 67 64
67 67 68 68 68 66 65 66 69 68 68 67 68 68 68 67 66 69 69 60 56 56 66 63 59 54 58 64 63 63 63 63 63 65 64 50 66 66 66 66 64 64 65 62
67 68 67 65 64 67 67 68 66 66 65 66 66 67 68 70 71 68 68 66 53 60 63 53 53 54 65 64 63 61 61 61 61 61 62 63 64 62 63 65 65 64 64 64
65 68 69 67 70 72 71 69 69 70 69 68 69 69 68 67 66 66 67 62 64 58 57 55 57 63 66 66 65 64 63 61 61 61 59 62 61 62 61 62 62 62 62 62
67 58 68 67 69 69 71 69 70 70 67 69 69 69 64 62 61 59 59 62 59 59 57 57 59 62 66 66 65 65 65 65 55 64 63 63 63 62 65 63 62 60 59 59

GFSNGP_sfc_temp_126.txt.gz
Temp
74 73 73 73 74 74 73 74 68 72 71 72 69 66 66 65 66 71 71 75 80 76 79 72 79 84 79 78 86 80 84 87 87 87 86 86 87 87 87 86 87 87 86 86
68 73 73 71 73 74 73 72 72 72 71 76 72 67 65 62 61 61 62 63 65 74 73 76 75 78 82 77 75 80 74 82 85 81 83 79 80 83 84 84 85 84 85 85
63 70 70 65 72 74 75 74 74 70 74 76 72 65 60 63 62 61 60 61 62 63 65 67 72 75 79 80 84 75 81 76 80 77 80 76 81 75 79 81 81 80 82 84
64 67 54 71 74 74 73 75 76 74 73 73 69 63 64 63 63 62 61 61 61 61 63 68 74 75 72 79 79 79 80 74 78 77 76 76 78 77 78 74 73 71 77 82
60 62 67 70 73 70 69 70 77 75 72 70 67 68 62 64 62 61 61 61 62 62 62 65 68 71 72 74 74 76 76 78 76 78 79 79 73 74 77 77 70 71 72 74
64 55 53 68 72 75 74 63 76 75 72 71 71 64 61 61 63 63 64 63 63 65 66 64 64 69 71 71 71 73 75 73 73 73 75 72 72 71 72 72 72 71 71 70
63 59 65 72 72 73 59 64 76 77 76 74 73 70 64 64 66 65 64 63 65 65 63 63 63 68 66 66 65 68 75 78 77 77 76 77 76 71 70 69 68 65 61 60
63 57 54 72 70 64 67 73 74 76 76 73 64 65 64 65 64 67 65 65 65 64 68 65 64 62 60 62 65 70 73 70 67 68 66 67 66 64 63 62 60 58 57 56
65 66 69 73 73 75 74 72 73 72 73 71 69 67 66 62 66 64 62 63 64 65 67 69 67 64 60 60 61 63 63 61 62 62 62 62 62 65 64 63 61 59 59 57
65 72 72 73 74 75 75 74 75 76 74 73 71 69 66 64 65 66 63 64 66 66 65 66 67 66 63 61 62 60 59 61 60 57 56 59 59 60 63 61 59 60 63 61
67 72 72 73 75 76 74 74 74 74 74 72 71 69 67 64 62 62 66 69 68 65 68 67 67 68 69 65 62 61 60 59 57 55 54 52 48 49 52 49 50 59 59 59
66 74 72 73 76 75 73 72 73 71 69 70 71 69 68 67 65 67 68 69 68 67 65 66 67 69 70 69 67 66 66 60 57 56 57 55 54 55 47 46 45 45 47 52
72 76 75 76 76 76 74 74 73 73 72 69 70 70 68 67 68 63 68 68 69 68 69 68 68 67 69 70 71 69 64 62 64 64 59 58 59 61 59 56 46 44 44 45
76 74 70 74 73 76 76 74 70 75 74 71 70 71 70 68 66 68 67 68 69 69 69 69 69 67 70 71 70 69 69 57 70 72 70 74 72 67 71 71 68 65 49 50
74 76 78 78 76 75 75 72 71 71 70 70 71 70 69 67 67 68 69 70 71 70 70 70 69 69 72 73 71 70 73 73 74 72 71 69 71 74 76 74 73 70 69 55
75 75 75 75 74 74 73 72 72 70 70 70 70 70 70 71 70 70 71 71 70 70 70 70 70 70 72 72 72 72 71 62 67 74 74 74 75 74 73 73 73 72 74 73
72 69 71 72 73 73 73 75 75 73 73 71 71 71 71 71 70 69 70 72 72 71 71 71 71 72 72 72 74 78 77 73 62 77 76 75 75 74 73 74 73 74 73 65
78 78 77 77 74 74 75 76 76 75 73 73 73 71 70 69 69 69 71 72 71 71 72 72 73 74 73 74 74 77 78 76 78 78 76 74 75 76 75 75 75 74 73 67
78 77 77 78 78 77 77 76 76 75 74 74 72 71 71 72 72 72 72 71 70 69 73 74 66 67 74 73 71 78 79 78 76 76 75 63 72 76 78 77 77 77 77 77
77 78 78 78 78 78 76 77 78 76 75 74 73 72 71 72 72 72 71 70 73 76 76 76 73 74 75 74 66 77 78 78 76 76 75 74 75 74 74 60 71 74 75 75
76 77 77 76 77 78 78 78 78 75 75 74 72 71 71 72 72 72 70 71 73 71 74 67 74 76 77 73 72 76 79 76 76 75 73 72 73 72 72 71 73 74 74 74
77 77 77 77 77 76 78 79 78 77 75 73 73 74 72 71 72 72 73 74 76 56 73 77 76 66 74 63 77 78 78 77 75 75 74 74 73 71 72 72 71 71 70 69
78 77 77 77 77 78 79 78 78 77 75 74 73 73 73 76 76 73 71 74 77 65 77 77 60 58 59 72 77 75 76 74 74 74 74 73 73 72 68 66 69 72 72 72
77 77 77 79 80 78 74 75 78 77 76 76 76 76 76 76 77 80 81 66 62 63 75 68 63 56 57 73 73 73 72 72 71 72 74 50 73 74 75 73 73 74 73 67
76 76 77 76 74 76 76 76 76 77 75 75 76 77 78 80 78 80 79 75 56 64 73 53 54 55 67 67 70 69 69 69 69 69 70 70 71 71 71 72 72 71 72 71
74 77 78 76 79 80 81 79 78 79 79 77 78 79 80 80 80 79 78 70 72 65 73 67 66 65 64 66 70 69 69 67 67 68 67 69 69 68 68 69 69 71 70 70
77 67 79 77 79 81 82 80 79 79 77 80 79 81 81 79 78 71 68 75 74 73 69 63 66 63 65 71 71 71 71 71 63 70 70 69 69 70 71 69 69 69 69 68